<?xml version="1.0" encoding="UTF-8" standalone="no" ?>
<gpx xmlns="http://www.topografix.com/GPX/1/1" xmlns:xsi="http://www.w3.org/2001/XMLSchema-instance" xsi:schemaLocation="http://www.topografix.com/GPX/1/1 http://www.topografix.com/GPX/1/1/gpx.xsd" version="1.1" creator="VisuGPX - https://www.visugpx.com">
  <metadata>
    <name>Fourg,forêt de Chaux.</name>
  </metadata>
  <trk>
    <name><![CDATA[Fourg,forêt de Chaux._1]]></name>
    <trkseg>
      <trkpt lat="47.09771" lon="5.8102">
        <ele>268.6</ele>
        <time>2019-05-12T07:41:25Z</time>
      </trkpt>
      <trkpt lat="47.09766" lon="5.81022">
        <ele>271.9</ele>
        <time>2019-05-12T07:45:59Z</time>
      </trkpt>
      <trkpt lat="47.09763" lon="5.81017">
        <ele>272.4</ele>
        <time>2019-05-12T07:46:10Z</time>
      </trkpt>
      <trkpt lat="47.09768" lon="5.81016">
        <ele>271.4</ele>
        <time>2019-05-12T07:47:34Z</time>
      </trkpt>
      <trkpt lat="47.09767" lon="5.81023">
        <ele>269.5</ele>
        <time>2019-05-12T07:48:40Z</time>
      </trkpt>
      <trkpt lat="47.09765" lon="5.81017">
        <ele>266.7</ele>
        <time>2019-05-12T07:49:55Z</time>
      </trkpt>
      <trkpt lat="47.09769" lon="5.8102">
        <ele>269.4</ele>
        <time>2019-05-12T07:53:39Z</time>
      </trkpt>
      <trkpt lat="47.09773" lon="5.81018">
        <ele>270.4</ele>
        <time>2019-05-12T07:53:57Z</time>
      </trkpt>
      <trkpt lat="47.09771" lon="5.81025">
        <ele>273.7</ele>
        <time>2019-05-12T07:54:34Z</time>
      </trkpt>
      <trkpt lat="47.09769" lon="5.81029">
        <ele>269</ele>
        <time>2019-05-12T07:58:49Z</time>
      </trkpt>
      <trkpt lat="47.09773" lon="5.81026">
        <ele>268.1</ele>
        <time>2019-05-12T08:00:11Z</time>
      </trkpt>
      <trkpt lat="47.0977" lon="5.81031">
        <ele>265.7</ele>
        <time>2019-05-12T08:01:05Z</time>
      </trkpt>
      <trkpt lat="47.09772" lon="5.81025">
        <ele>271.6</ele>
        <time>2019-05-12T08:03:03Z</time>
      </trkpt>
      <trkpt lat="47.09774" lon="5.81032">
        <ele>270.1</ele>
        <time>2019-05-12T08:04:06Z</time>
      </trkpt>
      <trkpt lat="47.09772" lon="5.81038">
        <ele>266.4</ele>
        <time>2019-05-12T08:06:11Z</time>
      </trkpt>
      <trkpt lat="47.09777" lon="5.81039">
        <ele>266.6</ele>
        <time>2019-05-12T08:06:20Z</time>
      </trkpt>
      <trkpt lat="47.09783" lon="5.81041">
        <ele>266.8</ele>
        <time>2019-05-12T08:06:24Z</time>
      </trkpt>
      <trkpt lat="47.09788" lon="5.81041">
        <ele>267.2</ele>
        <time>2019-05-12T08:06:28Z</time>
      </trkpt>
      <trkpt lat="47.09793" lon="5.81044">
        <ele>267.7</ele>
        <time>2019-05-12T08:06:33Z</time>
      </trkpt>
      <trkpt lat="47.09797" lon="5.81045">
        <ele>268</ele>
        <time>2019-05-12T08:06:37Z</time>
      </trkpt>
      <trkpt lat="47.09803" lon="5.81046">
        <ele>268.3</ele>
        <time>2019-05-12T08:06:41Z</time>
      </trkpt>
      <trkpt lat="47.09808" lon="5.81048">
        <ele>268.7</ele>
        <time>2019-05-12T08:06:45Z</time>
      </trkpt>
      <trkpt lat="47.09812" lon="5.81051">
        <ele>268.9</ele>
        <time>2019-05-12T08:06:49Z</time>
      </trkpt>
      <trkpt lat="47.09817" lon="5.81054">
        <ele>269.1</ele>
        <time>2019-05-12T08:06:54Z</time>
      </trkpt>
      <trkpt lat="47.09822" lon="5.81057">
        <ele>269.3</ele>
        <time>2019-05-12T08:06:59Z</time>
      </trkpt>
      <trkpt lat="47.09827" lon="5.81059">
        <ele>269.5</ele>
        <time>2019-05-12T08:07:03Z</time>
      </trkpt>
      <trkpt lat="47.09832" lon="5.8106">
        <ele>269.8</ele>
        <time>2019-05-12T08:07:08Z</time>
      </trkpt>
      <trkpt lat="47.09837" lon="5.81061">
        <ele>270.1</ele>
        <time>2019-05-12T08:07:13Z</time>
      </trkpt>
      <trkpt lat="47.09841" lon="5.81063">
        <ele>270.4</ele>
        <time>2019-05-12T08:07:20Z</time>
      </trkpt>
      <trkpt lat="47.09846" lon="5.81065">
        <ele>270.7</ele>
        <time>2019-05-12T08:07:26Z</time>
      </trkpt>
      <trkpt lat="47.0985" lon="5.81069">
        <ele>271.2</ele>
        <time>2019-05-12T08:07:31Z</time>
      </trkpt>
      <trkpt lat="47.09855" lon="5.81072">
        <ele>271.9</ele>
        <time>2019-05-12T08:07:37Z</time>
      </trkpt>
      <trkpt lat="47.0986" lon="5.81071">
        <ele>272.1</ele>
        <time>2019-05-12T08:07:40Z</time>
      </trkpt>
      <trkpt lat="47.09866" lon="5.81069">
        <ele>272.2</ele>
        <time>2019-05-12T08:07:44Z</time>
      </trkpt>
      <trkpt lat="47.0987" lon="5.81071">
        <ele>272.2</ele>
        <time>2019-05-12T08:07:49Z</time>
      </trkpt>
      <trkpt lat="47.09876" lon="5.81072">
        <ele>272.2</ele>
        <time>2019-05-12T08:07:54Z</time>
      </trkpt>
      <trkpt lat="47.09881" lon="5.81073">
        <ele>272.2</ele>
        <time>2019-05-12T08:07:58Z</time>
      </trkpt>
      <trkpt lat="47.09885" lon="5.81076">
        <ele>272.3</ele>
        <time>2019-05-12T08:08:04Z</time>
      </trkpt>
      <trkpt lat="47.0989" lon="5.81079">
        <ele>272.6</ele>
        <time>2019-05-12T08:08:09Z</time>
      </trkpt>
      <trkpt lat="47.09895" lon="5.81082">
        <ele>272.5</ele>
        <time>2019-05-12T08:08:13Z</time>
      </trkpt>
      <trkpt lat="47.099" lon="5.8108">
        <ele>272.1</ele>
        <time>2019-05-12T08:08:18Z</time>
      </trkpt>
      <trkpt lat="47.09904" lon="5.81076">
        <ele>271.7</ele>
        <time>2019-05-12T08:08:23Z</time>
      </trkpt>
      <trkpt lat="47.09908" lon="5.81069">
        <ele>271.3</ele>
        <time>2019-05-12T08:08:27Z</time>
      </trkpt>
      <trkpt lat="47.09911" lon="5.81063">
        <ele>270.8</ele>
        <time>2019-05-12T08:08:32Z</time>
      </trkpt>
      <trkpt lat="47.09914" lon="5.81057">
        <ele>270.3</ele>
        <time>2019-05-12T08:08:37Z</time>
      </trkpt>
      <trkpt lat="47.09917" lon="5.81051">
        <ele>269.8</ele>
        <time>2019-05-12T08:08:42Z</time>
      </trkpt>
      <trkpt lat="47.09919" lon="5.81044">
        <ele>269.3</ele>
        <time>2019-05-12T08:08:46Z</time>
      </trkpt>
      <trkpt lat="47.09921" lon="5.81036">
        <ele>268.6</ele>
        <time>2019-05-12T08:08:51Z</time>
      </trkpt>
      <trkpt lat="47.09924" lon="5.8103">
        <ele>268.2</ele>
        <time>2019-05-12T08:08:55Z</time>
      </trkpt>
      <trkpt lat="47.09927" lon="5.81024">
        <ele>267.9</ele>
        <time>2019-05-12T08:08:59Z</time>
      </trkpt>
      <trkpt lat="47.0993" lon="5.81018">
        <ele>267.7</ele>
        <time>2019-05-12T08:09:03Z</time>
      </trkpt>
      <trkpt lat="47.09933" lon="5.81013">
        <ele>267.5</ele>
        <time>2019-05-12T08:09:07Z</time>
      </trkpt>
      <trkpt lat="47.09937" lon="5.81007">
        <ele>267.1</ele>
        <time>2019-05-12T08:09:12Z</time>
      </trkpt>
      <trkpt lat="47.09939" lon="5.81001">
        <ele>266.6</ele>
        <time>2019-05-12T08:09:17Z</time>
      </trkpt>
      <trkpt lat="47.09942" lon="5.80996">
        <ele>266.1</ele>
        <time>2019-05-12T08:09:21Z</time>
      </trkpt>
      <trkpt lat="47.09945" lon="5.8099">
        <ele>265.8</ele>
        <time>2019-05-12T08:09:24Z</time>
      </trkpt>
      <trkpt lat="47.09948" lon="5.80983">
        <ele>265.4</ele>
        <time>2019-05-12T08:09:28Z</time>
      </trkpt>
      <trkpt lat="47.09951" lon="5.80977">
        <ele>264.9</ele>
        <time>2019-05-12T08:09:33Z</time>
      </trkpt>
      <trkpt lat="47.09953" lon="5.80971">
        <ele>264.6</ele>
        <time>2019-05-12T08:09:37Z</time>
      </trkpt>
      <trkpt lat="47.09953" lon="5.80964">
        <ele>264.3</ele>
        <time>2019-05-12T08:09:40Z</time>
      </trkpt>
      <trkpt lat="47.09955" lon="5.80956">
        <ele>263.9</ele>
        <time>2019-05-12T08:09:44Z</time>
      </trkpt>
      <trkpt lat="47.09956" lon="5.80948">
        <ele>263.7</ele>
        <time>2019-05-12T08:09:48Z</time>
      </trkpt>
      <trkpt lat="47.09958" lon="5.80941">
        <ele>263.6</ele>
        <time>2019-05-12T08:09:52Z</time>
      </trkpt>
      <trkpt lat="47.09961" lon="5.80935">
        <ele>263.4</ele>
        <time>2019-05-12T08:09:56Z</time>
      </trkpt>
      <trkpt lat="47.09964" lon="5.8093">
        <ele>263.3</ele>
        <time>2019-05-12T08:10:00Z</time>
      </trkpt>
      <trkpt lat="47.09967" lon="5.80925">
        <ele>263.2</ele>
        <time>2019-05-12T08:10:04Z</time>
      </trkpt>
      <trkpt lat="47.0997" lon="5.80918">
        <ele>263.1</ele>
        <time>2019-05-12T08:10:08Z</time>
      </trkpt>
      <trkpt lat="47.09973" lon="5.80912">
        <ele>263.1</ele>
        <time>2019-05-12T08:10:12Z</time>
      </trkpt>
      <trkpt lat="47.09976" lon="5.80906">
        <ele>263.1</ele>
        <time>2019-05-12T08:10:17Z</time>
      </trkpt>
      <trkpt lat="47.0998" lon="5.80901">
        <ele>263.2</ele>
        <time>2019-05-12T08:10:21Z</time>
      </trkpt>
      <trkpt lat="47.09984" lon="5.80895">
        <ele>263.3</ele>
        <time>2019-05-12T08:10:25Z</time>
      </trkpt>
      <trkpt lat="47.09987" lon="5.80889">
        <ele>263.5</ele>
        <time>2019-05-12T08:10:30Z</time>
      </trkpt>
      <trkpt lat="47.09991" lon="5.80884">
        <ele>263.7</ele>
        <time>2019-05-12T08:10:35Z</time>
      </trkpt>
      <trkpt lat="47.09995" lon="5.80879">
        <ele>263.8</ele>
        <time>2019-05-12T08:10:39Z</time>
      </trkpt>
      <trkpt lat="47.1" lon="5.80874">
        <ele>263.8</ele>
        <time>2019-05-12T08:10:43Z</time>
      </trkpt>
      <trkpt lat="47.10004" lon="5.80869">
        <ele>263.9</ele>
        <time>2019-05-12T08:10:47Z</time>
      </trkpt>
      <trkpt lat="47.10009" lon="5.80865">
        <ele>264.1</ele>
        <time>2019-05-12T08:10:51Z</time>
      </trkpt>
      <trkpt lat="47.10013" lon="5.80861">
        <ele>264.4</ele>
        <time>2019-05-12T08:10:55Z</time>
      </trkpt>
      <trkpt lat="47.10018" lon="5.80858">
        <ele>264.6</ele>
        <time>2019-05-12T08:10:59Z</time>
      </trkpt>
      <trkpt lat="47.10023" lon="5.80855">
        <ele>264.7</ele>
        <time>2019-05-12T08:11:03Z</time>
      </trkpt>
      <trkpt lat="47.10028" lon="5.80852">
        <ele>264.9</ele>
        <time>2019-05-12T08:11:07Z</time>
      </trkpt>
      <trkpt lat="47.10031" lon="5.80848">
        <ele>265</ele>
        <time>2019-05-12T08:11:11Z</time>
      </trkpt>
      <trkpt lat="47.10035" lon="5.80842">
        <ele>265.1</ele>
        <time>2019-05-12T08:11:17Z</time>
      </trkpt>
      <trkpt lat="47.10038" lon="5.80836">
        <ele>265.3</ele>
        <time>2019-05-12T08:11:22Z</time>
      </trkpt>
      <trkpt lat="47.10041" lon="5.80831">
        <ele>265.3</ele>
        <time>2019-05-12T08:11:26Z</time>
      </trkpt>
      <trkpt lat="47.10045" lon="5.80824">
        <ele>265</ele>
        <time>2019-05-12T08:11:31Z</time>
      </trkpt>
      <trkpt lat="47.10048" lon="5.80819">
        <ele>264.9</ele>
        <time>2019-05-12T08:11:35Z</time>
      </trkpt>
      <trkpt lat="47.10052" lon="5.80813">
        <ele>264.8</ele>
        <time>2019-05-12T08:11:39Z</time>
      </trkpt>
      <trkpt lat="47.10055" lon="5.80807">
        <ele>264.9</ele>
        <time>2019-05-12T08:11:43Z</time>
      </trkpt>
      <trkpt lat="47.10058" lon="5.80801">
        <ele>264.9</ele>
        <time>2019-05-12T08:11:47Z</time>
      </trkpt>
      <trkpt lat="47.10061" lon="5.80794">
        <ele>264.9</ele>
        <time>2019-05-12T08:11:52Z</time>
      </trkpt>
      <trkpt lat="47.10064" lon="5.80788">
        <ele>265</ele>
        <time>2019-05-12T08:11:57Z</time>
      </trkpt>
      <trkpt lat="47.10067" lon="5.80782">
        <ele>265.1</ele>
        <time>2019-05-12T08:12:01Z</time>
      </trkpt>
      <trkpt lat="47.1007" lon="5.80777">
        <ele>265.2</ele>
        <time>2019-05-12T08:12:05Z</time>
      </trkpt>
      <trkpt lat="47.10073" lon="5.80771">
        <ele>265.5</ele>
        <time>2019-05-12T08:12:10Z</time>
      </trkpt>
      <trkpt lat="47.10076" lon="5.80765">
        <ele>265.8</ele>
        <time>2019-05-12T08:12:14Z</time>
      </trkpt>
      <trkpt lat="47.1008" lon="5.8076">
        <ele>266.1</ele>
        <time>2019-05-12T08:12:18Z</time>
      </trkpt>
      <trkpt lat="47.10083" lon="5.80754">
        <ele>266.4</ele>
        <time>2019-05-12T08:12:22Z</time>
      </trkpt>
      <trkpt lat="47.10085" lon="5.80748">
        <ele>266.7</ele>
        <time>2019-05-12T08:12:26Z</time>
      </trkpt>
      <trkpt lat="47.10089" lon="5.80742">
        <ele>267.1</ele>
        <time>2019-05-12T08:12:31Z</time>
      </trkpt>
      <trkpt lat="47.10093" lon="5.80737">
        <ele>267.6</ele>
        <time>2019-05-12T08:12:36Z</time>
      </trkpt>
      <trkpt lat="47.10097" lon="5.80732">
        <ele>267.9</ele>
        <time>2019-05-12T08:12:41Z</time>
      </trkpt>
      <trkpt lat="47.101" lon="5.80726">
        <ele>268.2</ele>
        <time>2019-05-12T08:12:45Z</time>
      </trkpt>
      <trkpt lat="47.10103" lon="5.8072">
        <ele>268.3</ele>
        <time>2019-05-12T08:12:49Z</time>
      </trkpt>
      <trkpt lat="47.10106" lon="5.80714">
        <ele>268.4</ele>
        <time>2019-05-12T08:12:53Z</time>
      </trkpt>
      <trkpt lat="47.10107" lon="5.80707">
        <ele>268.6</ele>
        <time>2019-05-12T08:12:57Z</time>
      </trkpt>
      <trkpt lat="47.10109" lon="5.80698">
        <ele>268.9</ele>
        <time>2019-05-12T08:13:01Z</time>
      </trkpt>
      <trkpt lat="47.10111" lon="5.80691">
        <ele>269.2</ele>
        <time>2019-05-12T08:13:05Z</time>
      </trkpt>
      <trkpt lat="47.10113" lon="5.80684">
        <ele>269.4</ele>
        <time>2019-05-12T08:13:09Z</time>
      </trkpt>
      <trkpt lat="47.10116" lon="5.80677">
        <ele>269.6</ele>
        <time>2019-05-12T08:13:14Z</time>
      </trkpt>
      <trkpt lat="47.10118" lon="5.8067">
        <ele>269.9</ele>
        <time>2019-05-12T08:13:19Z</time>
      </trkpt>
      <trkpt lat="47.1012" lon="5.80663">
        <ele>270.3</ele>
        <time>2019-05-12T08:13:24Z</time>
      </trkpt>
      <trkpt lat="47.10124" lon="5.80657">
        <ele>270.8</ele>
        <time>2019-05-12T08:13:29Z</time>
      </trkpt>
      <trkpt lat="47.10127" lon="5.8065">
        <ele>271.2</ele>
        <time>2019-05-12T08:13:33Z</time>
      </trkpt>
      <trkpt lat="47.1013" lon="5.80644">
        <ele>271.5</ele>
        <time>2019-05-12T08:13:37Z</time>
      </trkpt>
      <trkpt lat="47.10133" lon="5.80638">
        <ele>271.8</ele>
        <time>2019-05-12T08:13:41Z</time>
      </trkpt>
      <trkpt lat="47.10136" lon="5.80633">
        <ele>272.1</ele>
        <time>2019-05-12T08:13:47Z</time>
      </trkpt>
      <trkpt lat="47.1014" lon="5.80626">
        <ele>272.2</ele>
        <time>2019-05-12T08:13:51Z</time>
      </trkpt>
      <trkpt lat="47.10143" lon="5.80621">
        <ele>272.2</ele>
        <time>2019-05-12T08:13:54Z</time>
      </trkpt>
      <trkpt lat="47.10146" lon="5.80614">
        <ele>272.4</ele>
        <time>2019-05-12T08:13:58Z</time>
      </trkpt>
      <trkpt lat="47.10149" lon="5.80607">
        <ele>272.6</ele>
        <time>2019-05-12T08:14:02Z</time>
      </trkpt>
      <trkpt lat="47.10152" lon="5.80601">
        <ele>272.9</ele>
        <time>2019-05-12T08:14:06Z</time>
      </trkpt>
      <trkpt lat="47.10154" lon="5.80595">
        <ele>273.3</ele>
        <time>2019-05-12T08:14:10Z</time>
      </trkpt>
      <trkpt lat="47.10157" lon="5.80589">
        <ele>273.5</ele>
        <time>2019-05-12T08:14:14Z</time>
      </trkpt>
      <trkpt lat="47.1016" lon="5.80581">
        <ele>273.6</ele>
        <time>2019-05-12T08:14:18Z</time>
      </trkpt>
      <trkpt lat="47.10163" lon="5.80574">
        <ele>273.8</ele>
        <time>2019-05-12T08:14:23Z</time>
      </trkpt>
      <trkpt lat="47.10165" lon="5.80567">
        <ele>274</ele>
        <time>2019-05-12T08:14:27Z</time>
      </trkpt>
      <trkpt lat="47.10167" lon="5.80559">
        <ele>274.2</ele>
        <time>2019-05-12T08:14:32Z</time>
      </trkpt>
      <trkpt lat="47.10168" lon="5.80553">
        <ele>274.4</ele>
        <time>2019-05-12T08:14:35Z</time>
      </trkpt>
      <trkpt lat="47.1017" lon="5.80545">
        <ele>274.5</ele>
        <time>2019-05-12T08:14:40Z</time>
      </trkpt>
      <trkpt lat="47.10172" lon="5.80538">
        <ele>274.6</ele>
        <time>2019-05-12T08:14:44Z</time>
      </trkpt>
      <trkpt lat="47.10174" lon="5.80532">
        <ele>274.7</ele>
        <time>2019-05-12T08:14:48Z</time>
      </trkpt>
      <trkpt lat="47.10176" lon="5.80523">
        <ele>274.8</ele>
        <time>2019-05-12T08:14:53Z</time>
      </trkpt>
      <trkpt lat="47.10176" lon="5.80516">
        <ele>274.7</ele>
        <time>2019-05-12T08:14:57Z</time>
      </trkpt>
      <trkpt lat="47.10177" lon="5.80509">
        <ele>274.7</ele>
        <time>2019-05-12T08:15:02Z</time>
      </trkpt>
      <trkpt lat="47.10179" lon="5.80501">
        <ele>274.6</ele>
        <time>2019-05-12T08:15:07Z</time>
      </trkpt>
      <trkpt lat="47.1018" lon="5.80494">
        <ele>274.7</ele>
        <time>2019-05-12T08:15:11Z</time>
      </trkpt>
      <trkpt lat="47.10182" lon="5.80487">
        <ele>274.7</ele>
        <time>2019-05-12T08:15:16Z</time>
      </trkpt>
      <trkpt lat="47.10184" lon="5.8048">
        <ele>274.8</ele>
        <time>2019-05-12T08:15:21Z</time>
      </trkpt>
      <trkpt lat="47.10185" lon="5.80472">
        <ele>275</ele>
        <time>2019-05-12T08:15:25Z</time>
      </trkpt>
      <trkpt lat="47.10186" lon="5.80466">
        <ele>275.1</ele>
        <time>2019-05-12T08:15:29Z</time>
      </trkpt>
      <trkpt lat="47.10188" lon="5.80459">
        <ele>275.2</ele>
        <time>2019-05-12T08:15:33Z</time>
      </trkpt>
      <trkpt lat="47.10192" lon="5.80453">
        <ele>275.3</ele>
        <time>2019-05-12T08:15:37Z</time>
      </trkpt>
      <trkpt lat="47.10194" lon="5.80447">
        <ele>275.4</ele>
        <time>2019-05-12T08:15:42Z</time>
      </trkpt>
      <trkpt lat="47.10196" lon="5.80441">
        <ele>275.4</ele>
        <time>2019-05-12T08:15:46Z</time>
      </trkpt>
      <trkpt lat="47.10197" lon="5.80433">
        <ele>275.3</ele>
        <time>2019-05-12T08:15:50Z</time>
      </trkpt>
      <trkpt lat="47.10197" lon="5.80425">
        <ele>275.3</ele>
        <time>2019-05-12T08:15:54Z</time>
      </trkpt>
      <trkpt lat="47.10198" lon="5.80417">
        <ele>275.4</ele>
        <time>2019-05-12T08:15:58Z</time>
      </trkpt>
      <trkpt lat="47.10199" lon="5.8041">
        <ele>275.4</ele>
        <time>2019-05-12T08:16:02Z</time>
      </trkpt>
      <trkpt lat="47.10199" lon="5.80403">
        <ele>275.4</ele>
        <time>2019-05-12T08:16:06Z</time>
      </trkpt>
      <trkpt lat="47.102" lon="5.80396">
        <ele>275.5</ele>
        <time>2019-05-12T08:16:10Z</time>
      </trkpt>
      <trkpt lat="47.10201" lon="5.80389">
        <ele>275.7</ele>
        <time>2019-05-12T08:16:15Z</time>
      </trkpt>
      <trkpt lat="47.10203" lon="5.80382">
        <ele>275.9</ele>
        <time>2019-05-12T08:16:19Z</time>
      </trkpt>
      <trkpt lat="47.10204" lon="5.80376">
        <ele>275.9</ele>
        <time>2019-05-12T08:16:22Z</time>
      </trkpt>
      <trkpt lat="47.10205" lon="5.80369">
        <ele>276</ele>
        <time>2019-05-12T08:16:26Z</time>
      </trkpt>
      <trkpt lat="47.10207" lon="5.80362">
        <ele>276.1</ele>
        <time>2019-05-12T08:16:30Z</time>
      </trkpt>
      <trkpt lat="47.10208" lon="5.80355">
        <ele>276.2</ele>
        <time>2019-05-12T08:16:34Z</time>
      </trkpt>
      <trkpt lat="47.10209" lon="5.80348">
        <ele>276.4</ele>
        <time>2019-05-12T08:16:38Z</time>
      </trkpt>
      <trkpt lat="47.10211" lon="5.80341">
        <ele>276.6</ele>
        <time>2019-05-12T08:16:43Z</time>
      </trkpt>
      <trkpt lat="47.10213" lon="5.80334">
        <ele>276.6</ele>
        <time>2019-05-12T08:16:48Z</time>
      </trkpt>
      <trkpt lat="47.10215" lon="5.80326">
        <ele>276.8</ele>
        <time>2019-05-12T08:16:53Z</time>
      </trkpt>
      <trkpt lat="47.10217" lon="5.8032">
        <ele>277.1</ele>
        <time>2019-05-12T08:16:57Z</time>
      </trkpt>
      <trkpt lat="47.10221" lon="5.80314">
        <ele>277.5</ele>
        <time>2019-05-12T08:17:02Z</time>
      </trkpt>
      <trkpt lat="47.10224" lon="5.8031">
        <ele>277.8</ele>
        <time>2019-05-12T08:17:06Z</time>
      </trkpt>
      <trkpt lat="47.10228" lon="5.80305">
        <ele>278</ele>
        <time>2019-05-12T08:17:10Z</time>
      </trkpt>
      <trkpt lat="47.10232" lon="5.80301">
        <ele>278.1</ele>
        <time>2019-05-12T08:17:14Z</time>
      </trkpt>
      <trkpt lat="47.10237" lon="5.80298">
        <ele>278.2</ele>
        <time>2019-05-12T08:17:18Z</time>
      </trkpt>
      <trkpt lat="47.10241" lon="5.80294">
        <ele>278.3</ele>
        <time>2019-05-12T08:17:22Z</time>
      </trkpt>
      <trkpt lat="47.10245" lon="5.80289">
        <ele>278.6</ele>
        <time>2019-05-12T08:17:26Z</time>
      </trkpt>
      <trkpt lat="47.1025" lon="5.80284">
        <ele>278.8</ele>
        <time>2019-05-12T08:17:30Z</time>
      </trkpt>
      <trkpt lat="47.10254" lon="5.80279">
        <ele>279.1</ele>
        <time>2019-05-12T08:17:35Z</time>
      </trkpt>
      <trkpt lat="47.10258" lon="5.80274">
        <ele>279.4</ele>
        <time>2019-05-12T08:17:40Z</time>
      </trkpt>
      <trkpt lat="47.10261" lon="5.80268">
        <ele>279.9</ele>
        <time>2019-05-12T08:17:46Z</time>
      </trkpt>
      <trkpt lat="47.10265" lon="5.80263">
        <ele>280.3</ele>
        <time>2019-05-12T08:17:52Z</time>
      </trkpt>
      <trkpt lat="47.10268" lon="5.80256">
        <ele>280.6</ele>
        <time>2019-05-12T08:17:56Z</time>
      </trkpt>
      <trkpt lat="47.1027" lon="5.80249">
        <ele>280.9</ele>
        <time>2019-05-12T08:18:00Z</time>
      </trkpt>
      <trkpt lat="47.10272" lon="5.80243">
        <ele>281.2</ele>
        <time>2019-05-12T08:18:03Z</time>
      </trkpt>
      <trkpt lat="47.10275" lon="5.80237">
        <ele>281.3</ele>
        <time>2019-05-12T08:18:06Z</time>
      </trkpt>
      <trkpt lat="47.10278" lon="5.80231">
        <ele>281.4</ele>
        <time>2019-05-12T08:18:09Z</time>
      </trkpt>
      <trkpt lat="47.10281" lon="5.80225">
        <ele>281.5</ele>
        <time>2019-05-12T08:18:13Z</time>
      </trkpt>
      <trkpt lat="47.10284" lon="5.8022">
        <ele>281.5</ele>
        <time>2019-05-12T08:18:16Z</time>
      </trkpt>
      <trkpt lat="47.10286" lon="5.80214">
        <ele>281.5</ele>
        <time>2019-05-12T08:18:21Z</time>
      </trkpt>
      <trkpt lat="47.10289" lon="5.80208">
        <ele>281.6</ele>
        <time>2019-05-12T08:18:26Z</time>
      </trkpt>
      <trkpt lat="47.10291" lon="5.80201">
        <ele>281.6</ele>
        <time>2019-05-12T08:18:30Z</time>
      </trkpt>
      <trkpt lat="47.10294" lon="5.80195">
        <ele>281.5</ele>
        <time>2019-05-12T08:18:35Z</time>
      </trkpt>
      <trkpt lat="47.10298" lon="5.80191">
        <ele>281.5</ele>
        <time>2019-05-12T08:18:41Z</time>
      </trkpt>
      <trkpt lat="47.10301" lon="5.80184">
        <ele>281.5</ele>
        <time>2019-05-12T08:18:47Z</time>
      </trkpt>
      <trkpt lat="47.10304" lon="5.80177">
        <ele>281.4</ele>
        <time>2019-05-12T08:18:51Z</time>
      </trkpt>
      <trkpt lat="47.10307" lon="5.80171">
        <ele>281.4</ele>
        <time>2019-05-12T08:18:55Z</time>
      </trkpt>
      <trkpt lat="47.1031" lon="5.80165">
        <ele>281.6</ele>
        <time>2019-05-12T08:18:59Z</time>
      </trkpt>
      <trkpt lat="47.10314" lon="5.8016">
        <ele>282.1</ele>
        <time>2019-05-12T08:19:04Z</time>
      </trkpt>
      <trkpt lat="47.10318" lon="5.80156">
        <ele>282.4</ele>
        <time>2019-05-12T08:19:08Z</time>
      </trkpt>
      <trkpt lat="47.10323" lon="5.80151">
        <ele>282.5</ele>
        <time>2019-05-12T08:19:13Z</time>
      </trkpt>
      <trkpt lat="47.10327" lon="5.80148">
        <ele>282.5</ele>
        <time>2019-05-12T08:19:17Z</time>
      </trkpt>
      <trkpt lat="47.10331" lon="5.80145">
        <ele>282.5</ele>
        <time>2019-05-12T08:19:21Z</time>
      </trkpt>
      <trkpt lat="47.10336" lon="5.80139">
        <ele>282.4</ele>
        <time>2019-05-12T08:19:25Z</time>
      </trkpt>
      <trkpt lat="47.10339" lon="5.80134">
        <ele>282.5</ele>
        <time>2019-05-12T08:19:29Z</time>
      </trkpt>
      <trkpt lat="47.10343" lon="5.80129">
        <ele>282.4</ele>
        <time>2019-05-12T08:19:34Z</time>
      </trkpt>
      <trkpt lat="47.10346" lon="5.80123">
        <ele>281.9</ele>
        <time>2019-05-12T08:19:39Z</time>
      </trkpt>
      <trkpt lat="47.1035" lon="5.80119">
        <ele>280.9</ele>
        <time>2019-05-12T08:19:44Z</time>
      </trkpt>
      <trkpt lat="47.10354" lon="5.80115">
        <ele>280.4</ele>
        <time>2019-05-12T08:19:47Z</time>
      </trkpt>
      <trkpt lat="47.10359" lon="5.80112">
        <ele>279.8</ele>
        <time>2019-05-12T08:19:50Z</time>
      </trkpt>
      <trkpt lat="47.10364" lon="5.80108">
        <ele>279.2</ele>
        <time>2019-05-12T08:19:54Z</time>
      </trkpt>
      <trkpt lat="47.10369" lon="5.80104">
        <ele>278.3</ele>
        <time>2019-05-12T08:19:59Z</time>
      </trkpt>
      <trkpt lat="47.10373" lon="5.801">
        <ele>277.5</ele>
        <time>2019-05-12T08:20:03Z</time>
      </trkpt>
      <trkpt lat="47.10378" lon="5.80096">
        <ele>276.7</ele>
        <time>2019-05-12T08:20:07Z</time>
      </trkpt>
      <trkpt lat="47.10382" lon="5.80092">
        <ele>275.8</ele>
        <time>2019-05-12T08:20:13Z</time>
      </trkpt>
      <trkpt lat="47.10385" lon="5.80086">
        <ele>275.3</ele>
        <time>2019-05-12T08:20:18Z</time>
      </trkpt>
      <trkpt lat="47.10388" lon="5.8008">
        <ele>274.8</ele>
        <time>2019-05-12T08:20:23Z</time>
      </trkpt>
      <trkpt lat="47.10391" lon="5.80074">
        <ele>274.2</ele>
        <time>2019-05-12T08:20:29Z</time>
      </trkpt>
      <trkpt lat="47.10395" lon="5.80069">
        <ele>273.7</ele>
        <time>2019-05-12T08:20:34Z</time>
      </trkpt>
      <trkpt lat="47.10397" lon="5.80062">
        <ele>273.4</ele>
        <time>2019-05-12T08:20:38Z</time>
      </trkpt>
      <trkpt lat="47.10399" lon="5.80054">
        <ele>273.3</ele>
        <time>2019-05-12T08:20:42Z</time>
      </trkpt>
      <trkpt lat="47.10401" lon="5.80048">
        <ele>273.3</ele>
        <time>2019-05-12T08:20:47Z</time>
      </trkpt>
      <trkpt lat="47.10404" lon="5.80042">
        <ele>273.5</ele>
        <time>2019-05-12T08:20:51Z</time>
      </trkpt>
      <trkpt lat="47.10406" lon="5.80036">
        <ele>274</ele>
        <time>2019-05-12T08:20:58Z</time>
      </trkpt>
      <trkpt lat="47.10408" lon="5.8003">
        <ele>274.6</ele>
        <time>2019-05-12T08:21:03Z</time>
      </trkpt>
      <trkpt lat="47.10409" lon="5.80023">
        <ele>275.1</ele>
        <time>2019-05-12T08:21:08Z</time>
      </trkpt>
      <trkpt lat="47.10411" lon="5.80017">
        <ele>275.2</ele>
        <time>2019-05-12T08:21:13Z</time>
      </trkpt>
      <trkpt lat="47.10415" lon="5.80013">
        <ele>274.8</ele>
        <time>2019-05-12T08:21:21Z</time>
      </trkpt>
      <trkpt lat="47.10419" lon="5.8001">
        <ele>274</ele>
        <time>2019-05-12T08:21:28Z</time>
      </trkpt>
      <trkpt lat="47.10423" lon="5.80006">
        <ele>272.9</ele>
        <time>2019-05-12T08:21:34Z</time>
      </trkpt>
      <trkpt lat="47.10427" lon="5.80003">
        <ele>271.9</ele>
        <time>2019-05-12T08:21:40Z</time>
      </trkpt>
      <trkpt lat="47.10431" lon="5.79995">
        <ele>264.9</ele>
        <time>2019-05-12T08:22:28Z</time>
      </trkpt>
      <trkpt lat="47.10433" lon="5.79988">
        <ele>267.7</ele>
        <time>2019-05-12T08:23:29Z</time>
      </trkpt>
      <trkpt lat="47.10435" lon="5.79978">
        <ele>267.2</ele>
        <time>2019-05-12T08:24:07Z</time>
      </trkpt>
      <trkpt lat="47.10435" lon="5.7997">
        <ele>267.4</ele>
        <time>2019-05-12T08:24:13Z</time>
      </trkpt>
      <trkpt lat="47.10437" lon="5.79963">
        <ele>267.6</ele>
        <time>2019-05-12T08:24:20Z</time>
      </trkpt>
      <trkpt lat="47.10438" lon="5.79957">
        <ele>267.8</ele>
        <time>2019-05-12T08:24:28Z</time>
      </trkpt>
      <trkpt lat="47.1044" lon="5.79948">
        <ele>268</ele>
        <time>2019-05-12T08:24:36Z</time>
      </trkpt>
      <trkpt lat="47.10442" lon="5.79942">
        <ele>267.8</ele>
        <time>2019-05-12T08:24:40Z</time>
      </trkpt>
      <trkpt lat="47.10445" lon="5.79934">
        <ele>267.5</ele>
        <time>2019-05-12T08:24:45Z</time>
      </trkpt>
      <trkpt lat="47.10448" lon="5.79927">
        <ele>267.2</ele>
        <time>2019-05-12T08:24:48Z</time>
      </trkpt>
      <trkpt lat="47.1045" lon="5.79919">
        <ele>267.1</ele>
        <time>2019-05-12T08:24:51Z</time>
      </trkpt>
      <trkpt lat="47.10452" lon="5.79912">
        <ele>266.9</ele>
        <time>2019-05-12T08:24:54Z</time>
      </trkpt>
      <trkpt lat="47.10455" lon="5.79907">
        <ele>266.7</ele>
        <time>2019-05-12T08:25:00Z</time>
      </trkpt>
      <trkpt lat="47.10459" lon="5.79901">
        <ele>266.6</ele>
        <time>2019-05-12T08:25:04Z</time>
      </trkpt>
      <trkpt lat="47.10462" lon="5.79896">
        <ele>266.5</ele>
        <time>2019-05-12T08:25:09Z</time>
      </trkpt>
      <trkpt lat="47.10464" lon="5.79889">
        <ele>266.1</ele>
        <time>2019-05-12T08:25:16Z</time>
      </trkpt>
      <trkpt lat="47.10467" lon="5.79884">
        <ele>265.7</ele>
        <time>2019-05-12T08:25:20Z</time>
      </trkpt>
      <trkpt lat="47.10469" lon="5.79876">
        <ele>265.5</ele>
        <time>2019-05-12T08:25:24Z</time>
      </trkpt>
      <trkpt lat="47.10472" lon="5.7987">
        <ele>265.3</ele>
        <time>2019-05-12T08:25:29Z</time>
      </trkpt>
      <trkpt lat="47.10475" lon="5.79865">
        <ele>265.2</ele>
        <time>2019-05-12T08:25:34Z</time>
      </trkpt>
      <trkpt lat="47.10477" lon="5.79858">
        <ele>265</ele>
        <time>2019-05-12T08:25:39Z</time>
      </trkpt>
      <trkpt lat="47.1048" lon="5.79851">
        <ele>264.5</ele>
        <time>2019-05-12T08:25:45Z</time>
      </trkpt>
      <trkpt lat="47.10482" lon="5.79845">
        <ele>263.1</ele>
        <time>2019-05-12T08:25:51Z</time>
      </trkpt>
      <trkpt lat="47.10484" lon="5.79838">
        <ele>262</ele>
        <time>2019-05-12T08:25:56Z</time>
      </trkpt>
      <trkpt lat="47.10487" lon="5.79833">
        <ele>261.2</ele>
        <time>2019-05-12T08:26:00Z</time>
      </trkpt>
      <trkpt lat="47.10489" lon="5.79825">
        <ele>260.3</ele>
        <time>2019-05-12T08:26:06Z</time>
      </trkpt>
      <trkpt lat="47.1049" lon="5.79818">
        <ele>259.8</ele>
        <time>2019-05-12T08:26:13Z</time>
      </trkpt>
      <trkpt lat="47.10492" lon="5.79812">
        <ele>259.6</ele>
        <time>2019-05-12T08:26:21Z</time>
      </trkpt>
      <trkpt lat="47.10494" lon="5.79806">
        <ele>259.6</ele>
        <time>2019-05-12T08:26:26Z</time>
      </trkpt>
      <trkpt lat="47.10495" lon="5.79795">
        <ele>260</ele>
        <time>2019-05-12T08:26:31Z</time>
      </trkpt>
      <trkpt lat="47.10495" lon="5.79787">
        <ele>261</ele>
        <time>2019-05-12T08:26:36Z</time>
      </trkpt>
      <trkpt lat="47.10496" lon="5.7978">
        <ele>261.7</ele>
        <time>2019-05-12T08:26:39Z</time>
      </trkpt>
      <trkpt lat="47.10497" lon="5.79771">
        <ele>262.2</ele>
        <time>2019-05-12T08:26:42Z</time>
      </trkpt>
      <trkpt lat="47.10499" lon="5.79765">
        <ele>262.5</ele>
        <time>2019-05-12T08:26:44Z</time>
      </trkpt>
      <trkpt lat="47.10501" lon="5.79758">
        <ele>262.8</ele>
        <time>2019-05-12T08:26:47Z</time>
      </trkpt>
      <trkpt lat="47.10503" lon="5.7975">
        <ele>263.1</ele>
        <time>2019-05-12T08:26:50Z</time>
      </trkpt>
      <trkpt lat="47.10506" lon="5.79745">
        <ele>263.4</ele>
        <time>2019-05-12T08:26:54Z</time>
      </trkpt>
      <trkpt lat="47.10509" lon="5.79738">
        <ele>263.3</ele>
        <time>2019-05-12T08:27:00Z</time>
      </trkpt>
      <trkpt lat="47.10511" lon="5.79731">
        <ele>263.1</ele>
        <time>2019-05-12T08:27:04Z</time>
      </trkpt>
      <trkpt lat="47.10513" lon="5.79725">
        <ele>263</ele>
        <time>2019-05-12T08:27:09Z</time>
      </trkpt>
      <trkpt lat="47.10517" lon="5.7972">
        <ele>262.8</ele>
        <time>2019-05-12T08:27:17Z</time>
      </trkpt>
      <trkpt lat="47.1052" lon="5.79715">
        <ele>262.4</ele>
        <time>2019-05-12T08:27:23Z</time>
      </trkpt>
      <trkpt lat="47.10522" lon="5.79708">
        <ele>262.1</ele>
        <time>2019-05-12T08:27:27Z</time>
      </trkpt>
      <trkpt lat="47.10526" lon="5.79702">
        <ele>261.5</ele>
        <time>2019-05-12T08:27:32Z</time>
      </trkpt>
      <trkpt lat="47.10529" lon="5.79696">
        <ele>260.8</ele>
        <time>2019-05-12T08:27:36Z</time>
      </trkpt>
      <trkpt lat="47.10532" lon="5.79689">
        <ele>259.8</ele>
        <time>2019-05-12T08:27:42Z</time>
      </trkpt>
      <trkpt lat="47.10535" lon="5.79682">
        <ele>259.3</ele>
        <time>2019-05-12T08:27:45Z</time>
      </trkpt>
      <trkpt lat="47.10536" lon="5.79676">
        <ele>258.5</ele>
        <time>2019-05-12T08:27:50Z</time>
      </trkpt>
      <trkpt lat="47.10538" lon="5.79668">
        <ele>257.8</ele>
        <time>2019-05-12T08:27:55Z</time>
      </trkpt>
      <trkpt lat="47.10539" lon="5.7966">
        <ele>257.4</ele>
        <time>2019-05-12T08:28:01Z</time>
      </trkpt>
      <trkpt lat="47.10541" lon="5.79632">
        <ele>257.9</ele>
        <time>2019-05-12T08:28:12Z</time>
      </trkpt>
      <trkpt lat="47.10543" lon="5.79627">
        <ele>258.4</ele>
        <time>2019-05-12T08:28:19Z</time>
      </trkpt>
      <trkpt lat="47.10545" lon="5.79621">
        <ele>258.7</ele>
        <time>2019-05-12T08:28:26Z</time>
      </trkpt>
      <trkpt lat="47.10545" lon="5.79613">
        <ele>258.8</ele>
        <time>2019-05-12T08:28:30Z</time>
      </trkpt>
      <trkpt lat="47.10548" lon="5.79606">
        <ele>258.9</ele>
        <time>2019-05-12T08:28:36Z</time>
      </trkpt>
      <trkpt lat="47.10551" lon="5.79601">
        <ele>259.1</ele>
        <time>2019-05-12T08:28:40Z</time>
      </trkpt>
      <trkpt lat="47.10555" lon="5.79597">
        <ele>259.4</ele>
        <time>2019-05-12T08:28:44Z</time>
      </trkpt>
      <trkpt lat="47.10559" lon="5.79592">
        <ele>259.8</ele>
        <time>2019-05-12T08:28:49Z</time>
      </trkpt>
      <trkpt lat="47.10563" lon="5.79586">
        <ele>260.3</ele>
        <time>2019-05-12T08:28:54Z</time>
      </trkpt>
      <trkpt lat="47.10567" lon="5.79581">
        <ele>260.4</ele>
        <time>2019-05-12T08:28:58Z</time>
      </trkpt>
      <trkpt lat="47.10569" lon="5.79575">
        <ele>260.7</ele>
        <time>2019-05-12T08:29:03Z</time>
      </trkpt>
      <trkpt lat="47.10573" lon="5.79568">
        <ele>260.9</ele>
        <time>2019-05-12T08:29:08Z</time>
      </trkpt>
      <trkpt lat="47.10574" lon="5.79562">
        <ele>260.8</ele>
        <time>2019-05-12T08:29:14Z</time>
      </trkpt>
      <trkpt lat="47.10575" lon="5.79554">
        <ele>260.6</ele>
        <time>2019-05-12T08:29:19Z</time>
      </trkpt>
      <trkpt lat="47.10576" lon="5.79547">
        <ele>260.4</ele>
        <time>2019-05-12T08:29:23Z</time>
      </trkpt>
      <trkpt lat="47.10578" lon="5.79541">
        <ele>260.2</ele>
        <time>2019-05-12T08:29:27Z</time>
      </trkpt>
      <trkpt lat="47.10579" lon="5.79534">
        <ele>260.1</ele>
        <time>2019-05-12T08:29:32Z</time>
      </trkpt>
      <trkpt lat="47.10582" lon="5.79528">
        <ele>259.9</ele>
        <time>2019-05-12T08:29:39Z</time>
      </trkpt>
      <trkpt lat="47.10585" lon="5.79521">
        <ele>259.8</ele>
        <time>2019-05-12T08:29:43Z</time>
      </trkpt>
      <trkpt lat="47.10587" lon="5.79514">
        <ele>259.9</ele>
        <time>2019-05-12T08:29:46Z</time>
      </trkpt>
      <trkpt lat="47.10589" lon="5.79508">
        <ele>259.9</ele>
        <time>2019-05-12T08:29:49Z</time>
      </trkpt>
      <trkpt lat="47.10591" lon="5.79502">
        <ele>259.9</ele>
        <time>2019-05-12T08:29:54Z</time>
      </trkpt>
      <trkpt lat="47.10594" lon="5.79496">
        <ele>259.6</ele>
        <time>2019-05-12T08:30:02Z</time>
      </trkpt>
      <trkpt lat="47.10597" lon="5.7949">
        <ele>259.4</ele>
        <time>2019-05-12T08:30:06Z</time>
      </trkpt>
      <trkpt lat="47.10598" lon="5.79482">
        <ele>259.2</ele>
        <time>2019-05-12T08:30:09Z</time>
      </trkpt>
      <trkpt lat="47.10598" lon="5.79474">
        <ele>258.9</ele>
        <time>2019-05-12T08:30:13Z</time>
      </trkpt>
      <trkpt lat="47.10599" lon="5.79466">
        <ele>258.8</ele>
        <time>2019-05-12T08:30:18Z</time>
      </trkpt>
      <trkpt lat="47.10602" lon="5.79459">
        <ele>258.8</ele>
        <time>2019-05-12T08:30:24Z</time>
      </trkpt>
      <trkpt lat="47.10605" lon="5.79453">
        <ele>258.7</ele>
        <time>2019-05-12T08:30:31Z</time>
      </trkpt>
      <trkpt lat="47.10609" lon="5.79448">
        <ele>258.4</ele>
        <time>2019-05-12T08:30:35Z</time>
      </trkpt>
      <trkpt lat="47.10614" lon="5.79442">
        <ele>257.7</ele>
        <time>2019-05-12T08:30:40Z</time>
      </trkpt>
      <trkpt lat="47.10618" lon="5.79438">
        <ele>257.3</ele>
        <time>2019-05-12T08:30:43Z</time>
      </trkpt>
      <trkpt lat="47.10622" lon="5.79433">
        <ele>257.2</ele>
        <time>2019-05-12T08:30:46Z</time>
      </trkpt>
      <trkpt lat="47.10624" lon="5.79427">
        <ele>257.3</ele>
        <time>2019-05-12T08:30:51Z</time>
      </trkpt>
      <trkpt lat="47.10624" lon="5.7942">
        <ele>257.7</ele>
        <time>2019-05-12T08:30:55Z</time>
      </trkpt>
      <trkpt lat="47.10622" lon="5.79411">
        <ele>258.3</ele>
        <time>2019-05-12T08:30:59Z</time>
      </trkpt>
      <trkpt lat="47.10623" lon="5.79402">
        <ele>258.8</ele>
        <time>2019-05-12T08:31:02Z</time>
      </trkpt>
      <trkpt lat="47.10626" lon="5.79396">
        <ele>259.4</ele>
        <time>2019-05-12T08:31:06Z</time>
      </trkpt>
      <trkpt lat="47.10629" lon="5.79391">
        <ele>260.7</ele>
        <time>2019-05-12T08:31:14Z</time>
      </trkpt>
      <trkpt lat="47.10633" lon="5.79386">
        <ele>261.8</ele>
        <time>2019-05-12T08:31:22Z</time>
      </trkpt>
      <trkpt lat="47.10637" lon="5.7938">
        <ele>262.4</ele>
        <time>2019-05-12T08:31:28Z</time>
      </trkpt>
      <trkpt lat="47.10638" lon="5.79373">
        <ele>262.8</ele>
        <time>2019-05-12T08:31:33Z</time>
      </trkpt>
      <trkpt lat="47.1064" lon="5.79366">
        <ele>262.8</ele>
        <time>2019-05-12T08:31:38Z</time>
      </trkpt>
      <trkpt lat="47.10644" lon="5.79361">
        <ele>262.6</ele>
        <time>2019-05-12T08:31:42Z</time>
      </trkpt>
      <trkpt lat="47.10647" lon="5.79356">
        <ele>262.1</ele>
        <time>2019-05-12T08:31:48Z</time>
      </trkpt>
      <trkpt lat="47.10652" lon="5.79348">
        <ele>261.7</ele>
        <time>2019-05-12T08:31:53Z</time>
      </trkpt>
      <trkpt lat="47.10654" lon="5.79343">
        <ele>261.5</ele>
        <time>2019-05-12T08:31:57Z</time>
      </trkpt>
      <trkpt lat="47.10657" lon="5.79337">
        <ele>261.2</ele>
        <time>2019-05-12T08:32:02Z</time>
      </trkpt>
      <trkpt lat="47.10659" lon="5.7933">
        <ele>260.2</ele>
        <time>2019-05-12T08:32:12Z</time>
      </trkpt>
      <trkpt lat="47.1066" lon="5.79323">
        <ele>259.6</ele>
        <time>2019-05-12T08:32:17Z</time>
      </trkpt>
      <trkpt lat="47.10661" lon="5.79316">
        <ele>258.3</ele>
        <time>2019-05-12T08:32:23Z</time>
      </trkpt>
      <trkpt lat="47.10664" lon="5.7931">
        <ele>257.2</ele>
        <time>2019-05-12T08:32:28Z</time>
      </trkpt>
      <trkpt lat="47.10666" lon="5.79303">
        <ele>256.1</ele>
        <time>2019-05-12T08:32:34Z</time>
      </trkpt>
      <trkpt lat="47.10667" lon="5.79297">
        <ele>255.8</ele>
        <time>2019-05-12T08:32:38Z</time>
      </trkpt>
      <trkpt lat="47.10668" lon="5.7929">
        <ele>255.6</ele>
        <time>2019-05-12T08:32:44Z</time>
      </trkpt>
      <trkpt lat="47.10669" lon="5.79281">
        <ele>256.1</ele>
        <time>2019-05-12T08:32:51Z</time>
      </trkpt>
      <trkpt lat="47.10669" lon="5.79273">
        <ele>256.5</ele>
        <time>2019-05-12T08:32:55Z</time>
      </trkpt>
      <trkpt lat="47.1067" lon="5.79266">
        <ele>257.3</ele>
        <time>2019-05-12T08:32:59Z</time>
      </trkpt>
      <trkpt lat="47.10672" lon="5.79259">
        <ele>258.4</ele>
        <time>2019-05-12T08:33:04Z</time>
      </trkpt>
      <trkpt lat="47.10674" lon="5.79251">
        <ele>260.3</ele>
        <time>2019-05-12T08:33:14Z</time>
      </trkpt>
      <trkpt lat="47.10676" lon="5.79245">
        <ele>260.9</ele>
        <time>2019-05-12T08:33:22Z</time>
      </trkpt>
      <trkpt lat="47.10676" lon="5.79238">
        <ele>261</ele>
        <time>2019-05-12T08:33:29Z</time>
      </trkpt>
      <trkpt lat="47.10678" lon="5.79232">
        <ele>263.8</ele>
        <time>2019-05-12T08:33:45Z</time>
      </trkpt>
      <trkpt lat="47.10687" lon="5.79217">
        <ele>263.6</ele>
        <time>2019-05-12T08:34:07Z</time>
      </trkpt>
      <trkpt lat="47.10687" lon="5.7921">
        <ele>261.9</ele>
        <time>2019-05-12T08:34:16Z</time>
      </trkpt>
      <trkpt lat="47.10685" lon="5.79204">
        <ele>260.9</ele>
        <time>2019-05-12T08:34:25Z</time>
      </trkpt>
      <trkpt lat="47.10686" lon="5.79197">
        <ele>260.7</ele>
        <time>2019-05-12T08:34:35Z</time>
      </trkpt>
      <trkpt lat="47.10688" lon="5.7919">
        <ele>260.8</ele>
        <time>2019-05-12T08:34:41Z</time>
      </trkpt>
      <trkpt lat="47.10691" lon="5.79184">
        <ele>260.8</ele>
        <time>2019-05-12T08:34:46Z</time>
      </trkpt>
      <trkpt lat="47.10694" lon="5.79179">
        <ele>260.7</ele>
        <time>2019-05-12T08:34:54Z</time>
      </trkpt>
      <trkpt lat="47.10697" lon="5.79175">
        <ele>260.4</ele>
        <time>2019-05-12T08:35:02Z</time>
      </trkpt>
      <trkpt lat="47.10703" lon="5.79173">
        <ele>272.4</ele>
        <time>2019-05-12T08:36:31Z</time>
      </trkpt>
      <trkpt lat="47.10707" lon="5.7917">
        <ele>272.4</ele>
        <time>2019-05-12T08:36:40Z</time>
      </trkpt>
      <trkpt lat="47.10712" lon="5.79168">
        <ele>272.7</ele>
        <time>2019-05-12T08:36:46Z</time>
      </trkpt>
      <trkpt lat="47.10717" lon="5.79167">
        <ele>272.6</ele>
        <time>2019-05-12T08:36:55Z</time>
      </trkpt>
      <trkpt lat="47.10722" lon="5.79162">
        <ele>272.7</ele>
        <time>2019-05-12T08:36:57Z</time>
      </trkpt>
      <trkpt lat="47.10727" lon="5.79159">
        <ele>272.7</ele>
        <time>2019-05-12T08:37:00Z</time>
      </trkpt>
      <trkpt lat="47.10733" lon="5.79156">
        <ele>272.6</ele>
        <time>2019-05-12T08:37:03Z</time>
      </trkpt>
      <trkpt lat="47.10737" lon="5.79155">
        <ele>272.3</ele>
        <time>2019-05-12T08:37:07Z</time>
      </trkpt>
      <trkpt lat="47.10743" lon="5.79152">
        <ele>271.8</ele>
        <time>2019-05-12T08:37:12Z</time>
      </trkpt>
      <trkpt lat="47.10748" lon="5.79148">
        <ele>271.6</ele>
        <time>2019-05-12T08:37:18Z</time>
      </trkpt>
      <trkpt lat="47.1075" lon="5.79143">
        <ele>271.8</ele>
        <time>2019-05-12T08:37:23Z</time>
      </trkpt>
      <trkpt lat="47.10754" lon="5.79138">
        <ele>272.1</ele>
        <time>2019-05-12T08:37:26Z</time>
      </trkpt>
      <trkpt lat="47.10758" lon="5.79135">
        <ele>272.1</ele>
        <time>2019-05-12T08:37:31Z</time>
      </trkpt>
      <trkpt lat="47.10763" lon="5.79133">
        <ele>271.7</ele>
        <time>2019-05-12T08:37:37Z</time>
      </trkpt>
      <trkpt lat="47.10768" lon="5.79131">
        <ele>270.9</ele>
        <time>2019-05-12T08:37:43Z</time>
      </trkpt>
      <trkpt lat="47.10773" lon="5.79129">
        <ele>270.2</ele>
        <time>2019-05-12T08:37:49Z</time>
      </trkpt>
      <trkpt lat="47.10787" lon="5.79114">
        <ele>269.5</ele>
        <time>2019-05-12T08:38:06Z</time>
      </trkpt>
      <trkpt lat="47.10792" lon="5.79115">
        <ele>269.7</ele>
        <time>2019-05-12T08:38:09Z</time>
      </trkpt>
      <trkpt lat="47.10796" lon="5.79111">
        <ele>269.9</ele>
        <time>2019-05-12T08:38:13Z</time>
      </trkpt>
      <trkpt lat="47.10804" lon="5.791">
        <ele>268.9</ele>
        <time>2019-05-12T08:38:27Z</time>
      </trkpt>
      <trkpt lat="47.10804" lon="5.79093">
        <ele>268.5</ele>
        <time>2019-05-12T08:38:32Z</time>
      </trkpt>
      <trkpt lat="47.10805" lon="5.79085">
        <ele>267.9</ele>
        <time>2019-05-12T08:38:39Z</time>
      </trkpt>
      <trkpt lat="47.10806" lon="5.79078">
        <ele>267.9</ele>
        <time>2019-05-12T08:38:44Z</time>
      </trkpt>
      <trkpt lat="47.10808" lon="5.79072">
        <ele>268.4</ele>
        <time>2019-05-12T08:38:49Z</time>
      </trkpt>
      <trkpt lat="47.1081" lon="5.79066">
        <ele>270.6</ele>
        <time>2019-05-12T08:38:58Z</time>
      </trkpt>
      <trkpt lat="47.10815" lon="5.79063">
        <ele>273.5</ele>
        <time>2019-05-12T08:39:07Z</time>
      </trkpt>
      <trkpt lat="47.1082" lon="5.79063">
        <ele>274.7</ele>
        <time>2019-05-12T08:39:12Z</time>
      </trkpt>
      <trkpt lat="47.10834" lon="5.79059">
        <ele>276.7</ele>
        <time>2019-05-12T08:39:22Z</time>
      </trkpt>
      <trkpt lat="47.10838" lon="5.79055">
        <ele>277.1</ele>
        <time>2019-05-12T08:39:28Z</time>
      </trkpt>
      <trkpt lat="47.10842" lon="5.7905">
        <ele>277.7</ele>
        <time>2019-05-12T08:39:35Z</time>
      </trkpt>
      <trkpt lat="47.10846" lon="5.79045">
        <ele>278.1</ele>
        <time>2019-05-12T08:39:41Z</time>
      </trkpt>
      <trkpt lat="47.1085" lon="5.79042">
        <ele>278.3</ele>
        <time>2019-05-12T08:39:46Z</time>
      </trkpt>
      <trkpt lat="47.10854" lon="5.79037">
        <ele>277.9</ele>
        <time>2019-05-12T08:39:56Z</time>
      </trkpt>
      <trkpt lat="47.10858" lon="5.79036">
        <ele>277.4</ele>
        <time>2019-05-12T08:40:02Z</time>
      </trkpt>
      <trkpt lat="47.10862" lon="5.79033">
        <ele>277</ele>
        <time>2019-05-12T08:40:06Z</time>
      </trkpt>
      <trkpt lat="47.10867" lon="5.7903">
        <ele>277.2</ele>
        <time>2019-05-12T08:40:10Z</time>
      </trkpt>
      <trkpt lat="47.10871" lon="5.79028">
        <ele>277.3</ele>
        <time>2019-05-12T08:40:15Z</time>
      </trkpt>
      <trkpt lat="47.10877" lon="5.79025">
        <ele>277.5</ele>
        <time>2019-05-12T08:40:19Z</time>
      </trkpt>
      <trkpt lat="47.10885" lon="5.79024">
        <ele>277.6</ele>
        <time>2019-05-12T08:40:22Z</time>
      </trkpt>
      <trkpt lat="47.1089" lon="5.79023">
        <ele>277.8</ele>
        <time>2019-05-12T08:40:25Z</time>
      </trkpt>
      <trkpt lat="47.10896" lon="5.79022">
        <ele>278.1</ele>
        <time>2019-05-12T08:40:29Z</time>
      </trkpt>
      <trkpt lat="47.10902" lon="5.7902">
        <ele>278.2</ele>
        <time>2019-05-12T08:40:32Z</time>
      </trkpt>
      <trkpt lat="47.10907" lon="5.7902">
        <ele>278.2</ele>
        <time>2019-05-12T08:40:36Z</time>
      </trkpt>
      <trkpt lat="47.10913" lon="5.79019">
        <ele>277.4</ele>
        <time>2019-05-12T08:40:42Z</time>
      </trkpt>
      <trkpt lat="47.10919" lon="5.7902">
        <ele>276.7</ele>
        <time>2019-05-12T08:40:46Z</time>
      </trkpt>
      <trkpt lat="47.10923" lon="5.79019">
        <ele>275.9</ele>
        <time>2019-05-12T08:40:51Z</time>
      </trkpt>
      <trkpt lat="47.10928" lon="5.79017">
        <ele>275.1</ele>
        <time>2019-05-12T08:40:56Z</time>
      </trkpt>
      <trkpt lat="47.10932" lon="5.79014">
        <ele>274.2</ele>
        <time>2019-05-12T08:41:02Z</time>
      </trkpt>
      <trkpt lat="47.10936" lon="5.7901">
        <ele>273.6</ele>
        <time>2019-05-12T08:41:08Z</time>
      </trkpt>
      <trkpt lat="47.10939" lon="5.79003">
        <ele>273.2</ele>
        <time>2019-05-12T08:41:16Z</time>
      </trkpt>
      <trkpt lat="47.10942" lon="5.78996">
        <ele>273</ele>
        <time>2019-05-12T08:41:19Z</time>
      </trkpt>
      <trkpt lat="47.10944" lon="5.7899">
        <ele>272.6</ele>
        <time>2019-05-12T08:41:23Z</time>
      </trkpt>
      <trkpt lat="47.10946" lon="5.78983">
        <ele>272.2</ele>
        <time>2019-05-12T08:41:29Z</time>
      </trkpt>
      <trkpt lat="47.10949" lon="5.78976">
        <ele>272</ele>
        <time>2019-05-12T08:41:34Z</time>
      </trkpt>
      <trkpt lat="47.10952" lon="5.78971">
        <ele>271.9</ele>
        <time>2019-05-12T08:41:39Z</time>
      </trkpt>
      <trkpt lat="47.10964" lon="5.78942">
        <ele>272.5</ele>
        <time>2019-05-12T08:42:52Z</time>
      </trkpt>
      <trkpt lat="47.10965" lon="5.78935">
        <ele>273.6</ele>
        <time>2019-05-12T08:42:59Z</time>
      </trkpt>
      <trkpt lat="47.10963" lon="5.7893">
        <ele>275</ele>
        <time>2019-05-12T08:43:10Z</time>
      </trkpt>
      <trkpt lat="47.10961" lon="5.78921">
        <ele>273.7</ele>
        <time>2019-05-12T08:43:37Z</time>
      </trkpt>
      <trkpt lat="47.10958" lon="5.78911">
        <ele>267</ele>
        <time>2019-05-12T08:44:58Z</time>
      </trkpt>
      <trkpt lat="47.10954" lon="5.78907">
        <ele>268.9</ele>
        <time>2019-05-12T08:45:06Z</time>
      </trkpt>
      <trkpt lat="47.10953" lon="5.78899">
        <ele>270.7</ele>
        <time>2019-05-12T08:45:12Z</time>
      </trkpt>
      <trkpt lat="47.10944" lon="5.78875">
        <ele>277.3</ele>
        <time>2019-05-12T08:45:43Z</time>
      </trkpt>
      <trkpt lat="47.10941" lon="5.78868">
        <ele>279.7</ele>
        <time>2019-05-12T08:45:57Z</time>
      </trkpt>
      <trkpt lat="47.10938" lon="5.78862">
        <ele>280.4</ele>
        <time>2019-05-12T08:46:03Z</time>
      </trkpt>
      <trkpt lat="47.10931" lon="5.7883">
        <ele>282.6</ele>
        <time>2019-05-12T08:46:29Z</time>
      </trkpt>
      <trkpt lat="47.10931" lon="5.78823">
        <ele>282.8</ele>
        <time>2019-05-12T08:46:34Z</time>
      </trkpt>
      <trkpt lat="47.10931" lon="5.78817">
        <ele>283.5</ele>
        <time>2019-05-12T08:46:43Z</time>
      </trkpt>
      <trkpt lat="47.10927" lon="5.78806">
        <ele>285.4</ele>
        <time>2019-05-12T08:46:53Z</time>
      </trkpt>
      <trkpt lat="47.10926" lon="5.788">
        <ele>285.5</ele>
        <time>2019-05-12T08:47:02Z</time>
      </trkpt>
      <trkpt lat="47.10924" lon="5.78794">
        <ele>285.5</ele>
        <time>2019-05-12T08:47:07Z</time>
      </trkpt>
      <trkpt lat="47.10922" lon="5.78786">
        <ele>285.5</ele>
        <time>2019-05-12T08:47:09Z</time>
      </trkpt>
      <trkpt lat="47.10921" lon="5.78779">
        <ele>285.6</ele>
        <time>2019-05-12T08:47:13Z</time>
      </trkpt>
      <trkpt lat="47.10928" lon="5.7876">
        <ele>287.2</ele>
        <time>2019-05-12T08:47:30Z</time>
      </trkpt>
      <trkpt lat="47.1093" lon="5.78753">
        <ele>287.3</ele>
        <time>2019-05-12T08:47:33Z</time>
      </trkpt>
      <trkpt lat="47.10915" lon="5.78714">
        <ele>287.8</ele>
        <time>2019-05-12T08:48:02Z</time>
      </trkpt>
      <trkpt lat="47.10913" lon="5.78708">
        <ele>287.9</ele>
        <time>2019-05-12T08:48:05Z</time>
      </trkpt>
      <trkpt lat="47.10911" lon="5.787">
        <ele>288.1</ele>
        <time>2019-05-12T08:48:08Z</time>
      </trkpt>
      <trkpt lat="47.10909" lon="5.78694">
        <ele>288.6</ele>
        <time>2019-05-12T08:48:12Z</time>
      </trkpt>
      <trkpt lat="47.10906" lon="5.78687">
        <ele>289.4</ele>
        <time>2019-05-12T08:48:20Z</time>
      </trkpt>
      <trkpt lat="47.10899" lon="5.78677">
        <ele>290.1</ele>
        <time>2019-05-12T08:48:38Z</time>
      </trkpt>
      <trkpt lat="47.10892" lon="5.78664">
        <ele>291.1</ele>
        <time>2019-05-12T08:48:48Z</time>
      </trkpt>
      <trkpt lat="47.10891" lon="5.78657">
        <ele>290.9</ele>
        <time>2019-05-12T08:48:54Z</time>
      </trkpt>
      <trkpt lat="47.10891" lon="5.78648">
        <ele>290.5</ele>
        <time>2019-05-12T08:49:00Z</time>
      </trkpt>
      <trkpt lat="47.10892" lon="5.7864">
        <ele>289.9</ele>
        <time>2019-05-12T08:49:05Z</time>
      </trkpt>
      <trkpt lat="47.10891" lon="5.78632">
        <ele>289.6</ele>
        <time>2019-05-12T08:49:11Z</time>
      </trkpt>
      <trkpt lat="47.10891" lon="5.78626">
        <ele>289.5</ele>
        <time>2019-05-12T08:49:18Z</time>
      </trkpt>
      <trkpt lat="47.1089" lon="5.78619">
        <ele>288.8</ele>
        <time>2019-05-12T08:49:30Z</time>
      </trkpt>
      <trkpt lat="47.10888" lon="5.78613">
        <ele>288.4</ele>
        <time>2019-05-12T08:49:34Z</time>
      </trkpt>
      <trkpt lat="47.10884" lon="5.78608">
        <ele>286.4</ele>
        <time>2019-05-12T08:49:44Z</time>
      </trkpt>
      <trkpt lat="47.1088" lon="5.78601">
        <ele>285.6</ele>
        <time>2019-05-12T08:49:48Z</time>
      </trkpt>
      <trkpt lat="47.10877" lon="5.78595">
        <ele>285</ele>
        <time>2019-05-12T08:49:50Z</time>
      </trkpt>
      <trkpt lat="47.10873" lon="5.78592">
        <ele>282.8</ele>
        <time>2019-05-12T08:49:59Z</time>
      </trkpt>
      <trkpt lat="47.10863" lon="5.78595">
        <ele>276.7</ele>
        <time>2019-05-12T08:51:14Z</time>
      </trkpt>
      <trkpt lat="47.10859" lon="5.78597">
        <ele>277.4</ele>
        <time>2019-05-12T08:51:19Z</time>
      </trkpt>
      <trkpt lat="47.10854" lon="5.78601">
        <ele>278</ele>
        <time>2019-05-12T08:51:24Z</time>
      </trkpt>
      <trkpt lat="47.10849" lon="5.78605">
        <ele>278.6</ele>
        <time>2019-05-12T08:51:30Z</time>
      </trkpt>
      <trkpt lat="47.1084" lon="5.7861">
        <ele>279</ele>
        <time>2019-05-12T08:51:38Z</time>
      </trkpt>
      <trkpt lat="47.10836" lon="5.78615">
        <ele>278.9</ele>
        <time>2019-05-12T08:51:42Z</time>
      </trkpt>
      <trkpt lat="47.10828" lon="5.78621">
        <ele>280</ele>
        <time>2019-05-12T08:51:59Z</time>
      </trkpt>
      <trkpt lat="47.10824" lon="5.78627">
        <ele>280.7</ele>
        <time>2019-05-12T08:52:04Z</time>
      </trkpt>
      <trkpt lat="47.10819" lon="5.7863">
        <ele>281.3</ele>
        <time>2019-05-12T08:52:09Z</time>
      </trkpt>
      <trkpt lat="47.10815" lon="5.78633">
        <ele>282</ele>
        <time>2019-05-12T08:52:13Z</time>
      </trkpt>
      <trkpt lat="47.10804" lon="5.78657">
        <ele>289.5</ele>
        <time>2019-05-12T08:52:31Z</time>
      </trkpt>
      <trkpt lat="47.108" lon="5.78661">
        <ele>290.2</ele>
        <time>2019-05-12T08:52:34Z</time>
      </trkpt>
      <trkpt lat="47.10786" lon="5.78666">
        <ele>291.5</ele>
        <time>2019-05-12T08:52:41Z</time>
      </trkpt>
      <trkpt lat="47.1078" lon="5.78667">
        <ele>291.3</ele>
        <time>2019-05-12T08:52:44Z</time>
      </trkpt>
      <trkpt lat="47.10775" lon="5.78668">
        <ele>291</ele>
        <time>2019-05-12T08:52:48Z</time>
      </trkpt>
      <trkpt lat="47.10771" lon="5.78671">
        <ele>290.7</ele>
        <time>2019-05-12T08:52:53Z</time>
      </trkpt>
      <trkpt lat="47.10767" lon="5.78676">
        <ele>290.5</ele>
        <time>2019-05-12T08:52:58Z</time>
      </trkpt>
      <trkpt lat="47.10759" lon="5.78682">
        <ele>291.3</ele>
        <time>2019-05-12T08:53:11Z</time>
      </trkpt>
      <trkpt lat="47.10754" lon="5.78686">
        <ele>290.9</ele>
        <time>2019-05-12T08:53:15Z</time>
      </trkpt>
      <trkpt lat="47.1075" lon="5.78689">
        <ele>290.5</ele>
        <time>2019-05-12T08:53:20Z</time>
      </trkpt>
      <trkpt lat="47.1073" lon="5.78697">
        <ele>290.2</ele>
        <time>2019-05-12T08:53:43Z</time>
      </trkpt>
      <trkpt lat="47.10725" lon="5.78701">
        <ele>290.3</ele>
        <time>2019-05-12T08:53:49Z</time>
      </trkpt>
      <trkpt lat="47.10721" lon="5.78704">
        <ele>290.2</ele>
        <time>2019-05-12T08:53:54Z</time>
      </trkpt>
      <trkpt lat="47.10716" lon="5.78706">
        <ele>290.1</ele>
        <time>2019-05-12T08:53:58Z</time>
      </trkpt>
      <trkpt lat="47.10711" lon="5.78709">
        <ele>290.3</ele>
        <time>2019-05-12T08:54:02Z</time>
      </trkpt>
      <trkpt lat="47.10707" lon="5.78711">
        <ele>290.4</ele>
        <time>2019-05-12T08:54:05Z</time>
      </trkpt>
      <trkpt lat="47.10702" lon="5.78714">
        <ele>290.8</ele>
        <time>2019-05-12T08:54:12Z</time>
      </trkpt>
      <trkpt lat="47.10698" lon="5.78717">
        <ele>291.2</ele>
        <time>2019-05-12T08:54:16Z</time>
      </trkpt>
      <trkpt lat="47.10693" lon="5.78719">
        <ele>291.3</ele>
        <time>2019-05-12T08:54:21Z</time>
      </trkpt>
      <trkpt lat="47.10688" lon="5.7872">
        <ele>291.2</ele>
        <time>2019-05-12T08:54:24Z</time>
      </trkpt>
      <trkpt lat="47.10682" lon="5.78722">
        <ele>290.9</ele>
        <time>2019-05-12T08:54:27Z</time>
      </trkpt>
      <trkpt lat="47.10676" lon="5.78724">
        <ele>290.3</ele>
        <time>2019-05-12T08:54:31Z</time>
      </trkpt>
      <trkpt lat="47.10671" lon="5.78726">
        <ele>289.7</ele>
        <time>2019-05-12T08:54:34Z</time>
      </trkpt>
      <trkpt lat="47.10666" lon="5.78728">
        <ele>289.1</ele>
        <time>2019-05-12T08:54:37Z</time>
      </trkpt>
      <trkpt lat="47.1066" lon="5.7873">
        <ele>288.6</ele>
        <time>2019-05-12T08:54:40Z</time>
      </trkpt>
      <trkpt lat="47.10656" lon="5.78731">
        <ele>288.1</ele>
        <time>2019-05-12T08:54:44Z</time>
      </trkpt>
      <trkpt lat="47.10651" lon="5.78733">
        <ele>287.2</ele>
        <time>2019-05-12T08:55:04Z</time>
      </trkpt>
      <trkpt lat="47.10646" lon="5.78735">
        <ele>287.4</ele>
        <time>2019-05-12T08:55:13Z</time>
      </trkpt>
      <trkpt lat="47.10642" lon="5.78735">
        <ele>286.9</ele>
        <time>2019-05-12T08:55:21Z</time>
      </trkpt>
      <trkpt lat="47.10638" lon="5.78731">
        <ele>285.5</ele>
        <time>2019-05-12T08:55:32Z</time>
      </trkpt>
      <trkpt lat="47.10634" lon="5.78736">
        <ele>284</ele>
        <time>2019-05-12T08:55:45Z</time>
      </trkpt>
      <trkpt lat="47.10634" lon="5.78731">
        <ele>279.1</ele>
        <time>2019-05-12T08:59:34Z</time>
      </trkpt>
      <trkpt lat="47.10642" lon="5.78742">
        <ele>280.2</ele>
        <time>2019-05-12T09:00:39Z</time>
      </trkpt>
      <trkpt lat="47.10634" lon="5.78743">
        <ele>280.1</ele>
        <time>2019-05-12T09:06:35Z</time>
      </trkpt>
      <trkpt lat="47.10625" lon="5.78755">
        <ele>282.5</ele>
        <time>2019-05-12T09:07:38Z</time>
      </trkpt>
      <trkpt lat="47.1062" lon="5.78759">
        <ele>282.8</ele>
        <time>2019-05-12T09:07:42Z</time>
      </trkpt>
      <trkpt lat="47.10617" lon="5.78764">
        <ele>283.1</ele>
        <time>2019-05-12T09:07:47Z</time>
      </trkpt>
      <trkpt lat="47.10613" lon="5.78768">
        <ele>283.3</ele>
        <time>2019-05-12T09:07:51Z</time>
      </trkpt>
      <trkpt lat="47.10609" lon="5.78771">
        <ele>283.4</ele>
        <time>2019-05-12T09:07:57Z</time>
      </trkpt>
      <trkpt lat="47.10603" lon="5.78775">
        <ele>283.7</ele>
        <time>2019-05-12T09:08:01Z</time>
      </trkpt>
      <trkpt lat="47.10599" lon="5.78778">
        <ele>283.8</ele>
        <time>2019-05-12T09:08:03Z</time>
      </trkpt>
      <trkpt lat="47.10594" lon="5.78781">
        <ele>283.8</ele>
        <time>2019-05-12T09:08:05Z</time>
      </trkpt>
      <trkpt lat="47.10588" lon="5.78785">
        <ele>284</ele>
        <time>2019-05-12T09:08:08Z</time>
      </trkpt>
      <trkpt lat="47.10583" lon="5.78787">
        <ele>284.1</ele>
        <time>2019-05-12T09:08:11Z</time>
      </trkpt>
      <trkpt lat="47.10578" lon="5.78792">
        <ele>284.2</ele>
        <time>2019-05-12T09:08:14Z</time>
      </trkpt>
      <trkpt lat="47.10574" lon="5.78796">
        <ele>284.5</ele>
        <time>2019-05-12T09:08:19Z</time>
      </trkpt>
      <trkpt lat="47.10569" lon="5.78797">
        <ele>284.9</ele>
        <time>2019-05-12T09:08:26Z</time>
      </trkpt>
      <trkpt lat="47.10564" lon="5.78798">
        <ele>285.1</ele>
        <time>2019-05-12T09:08:29Z</time>
      </trkpt>
      <trkpt lat="47.10559" lon="5.788">
        <ele>285.6</ele>
        <time>2019-05-12T09:08:34Z</time>
      </trkpt>
      <trkpt lat="47.10555" lon="5.78804">
        <ele>285.9</ele>
        <time>2019-05-12T09:08:37Z</time>
      </trkpt>
      <trkpt lat="47.10551" lon="5.78807">
        <ele>286.1</ele>
        <time>2019-05-12T09:08:40Z</time>
      </trkpt>
      <trkpt lat="47.10545" lon="5.7881">
        <ele>286.1</ele>
        <time>2019-05-12T09:08:42Z</time>
      </trkpt>
      <trkpt lat="47.10534" lon="5.78821">
        <ele>286.5</ele>
        <time>2019-05-12T09:08:56Z</time>
      </trkpt>
      <trkpt lat="47.1053" lon="5.78823">
        <ele>286.8</ele>
        <time>2019-05-12T09:09:01Z</time>
      </trkpt>
      <trkpt lat="47.10526" lon="5.78827">
        <ele>286.6</ele>
        <time>2019-05-12T09:09:07Z</time>
      </trkpt>
      <trkpt lat="47.10521" lon="5.7883">
        <ele>286.5</ele>
        <time>2019-05-12T09:09:10Z</time>
      </trkpt>
      <trkpt lat="47.10515" lon="5.78831">
        <ele>286.3</ele>
        <time>2019-05-12T09:09:17Z</time>
      </trkpt>
      <trkpt lat="47.1051" lon="5.78834">
        <ele>286.2</ele>
        <time>2019-05-12T09:09:22Z</time>
      </trkpt>
      <trkpt lat="47.10503" lon="5.78846">
        <ele>287.9</ele>
        <time>2019-05-12T09:09:40Z</time>
      </trkpt>
      <trkpt lat="47.105" lon="5.78851">
        <ele>288.2</ele>
        <time>2019-05-12T09:09:42Z</time>
      </trkpt>
      <trkpt lat="47.10497" lon="5.78856">
        <ele>288.6</ele>
        <time>2019-05-12T09:09:45Z</time>
      </trkpt>
      <trkpt lat="47.10491" lon="5.7886">
        <ele>289.5</ele>
        <time>2019-05-12T09:09:51Z</time>
      </trkpt>
      <trkpt lat="47.10484" lon="5.78862">
        <ele>289.9</ele>
        <time>2019-05-12T09:09:55Z</time>
      </trkpt>
      <trkpt lat="47.10477" lon="5.78865">
        <ele>290.1</ele>
        <time>2019-05-12T09:09:58Z</time>
      </trkpt>
      <trkpt lat="47.10472" lon="5.78869">
        <ele>290.2</ele>
        <time>2019-05-12T09:10:00Z</time>
      </trkpt>
      <trkpt lat="47.10467" lon="5.78872">
        <ele>290.3</ele>
        <time>2019-05-12T09:10:03Z</time>
      </trkpt>
      <trkpt lat="47.10462" lon="5.78875">
        <ele>290.3</ele>
        <time>2019-05-12T09:10:07Z</time>
      </trkpt>
      <trkpt lat="47.10458" lon="5.78876">
        <ele>290.1</ele>
        <time>2019-05-12T09:10:13Z</time>
      </trkpt>
      <trkpt lat="47.10452" lon="5.78877">
        <ele>289.7</ele>
        <time>2019-05-12T09:10:18Z</time>
      </trkpt>
      <trkpt lat="47.10448" lon="5.78878">
        <ele>289.3</ele>
        <time>2019-05-12T09:10:22Z</time>
      </trkpt>
      <trkpt lat="47.10443" lon="5.7888">
        <ele>288.8</ele>
        <time>2019-05-12T09:10:27Z</time>
      </trkpt>
      <trkpt lat="47.10438" lon="5.78882">
        <ele>288.5</ele>
        <time>2019-05-12T09:10:32Z</time>
      </trkpt>
      <trkpt lat="47.10433" lon="5.78884">
        <ele>287.9</ele>
        <time>2019-05-12T09:10:36Z</time>
      </trkpt>
      <trkpt lat="47.10429" lon="5.78887">
        <ele>287.4</ele>
        <time>2019-05-12T09:10:40Z</time>
      </trkpt>
      <trkpt lat="47.10424" lon="5.7889">
        <ele>287</ele>
        <time>2019-05-12T09:10:45Z</time>
      </trkpt>
      <trkpt lat="47.10419" lon="5.78893">
        <ele>286.9</ele>
        <time>2019-05-12T09:10:51Z</time>
      </trkpt>
      <trkpt lat="47.10414" lon="5.78894">
        <ele>287.1</ele>
        <time>2019-05-12T09:10:57Z</time>
      </trkpt>
      <trkpt lat="47.10408" lon="5.78896">
        <ele>287.2</ele>
        <time>2019-05-12T09:11:02Z</time>
      </trkpt>
      <trkpt lat="47.10405" lon="5.789">
        <ele>287.2</ele>
        <time>2019-05-12T09:11:04Z</time>
      </trkpt>
      <trkpt lat="47.10401" lon="5.78905">
        <ele>287.3</ele>
        <time>2019-05-12T09:11:07Z</time>
      </trkpt>
      <trkpt lat="47.10397" lon="5.7891">
        <ele>287.3</ele>
        <time>2019-05-12T09:11:11Z</time>
      </trkpt>
      <trkpt lat="47.10392" lon="5.78915">
        <ele>287.1</ele>
        <time>2019-05-12T09:11:16Z</time>
      </trkpt>
      <trkpt lat="47.10388" lon="5.78918">
        <ele>286.8</ele>
        <time>2019-05-12T09:11:21Z</time>
      </trkpt>
      <trkpt lat="47.10384" lon="5.7892">
        <ele>286.5</ele>
        <time>2019-05-12T09:11:26Z</time>
      </trkpt>
      <trkpt lat="47.1038" lon="5.78922">
        <ele>286.4</ele>
        <time>2019-05-12T09:11:30Z</time>
      </trkpt>
      <trkpt lat="47.10375" lon="5.78925">
        <ele>286.3</ele>
        <time>2019-05-12T09:11:35Z</time>
      </trkpt>
      <trkpt lat="47.1037" lon="5.78929">
        <ele>286</ele>
        <time>2019-05-12T09:11:40Z</time>
      </trkpt>
      <trkpt lat="47.10365" lon="5.78933">
        <ele>285.9</ele>
        <time>2019-05-12T09:11:45Z</time>
      </trkpt>
      <trkpt lat="47.10361" lon="5.78937">
        <ele>286</ele>
        <time>2019-05-12T09:11:48Z</time>
      </trkpt>
      <trkpt lat="47.10312" lon="5.78973">
        <ele>295.9</ele>
        <time>2019-05-12T09:12:23Z</time>
      </trkpt>
      <trkpt lat="47.10307" lon="5.78976">
        <ele>295.9</ele>
        <time>2019-05-12T09:12:31Z</time>
      </trkpt>
      <trkpt lat="47.10302" lon="5.78976">
        <ele>295.5</ele>
        <time>2019-05-12T09:12:36Z</time>
      </trkpt>
      <trkpt lat="47.10297" lon="5.78975">
        <ele>294.9</ele>
        <time>2019-05-12T09:12:41Z</time>
      </trkpt>
      <trkpt lat="47.10293" lon="5.78979">
        <ele>294.1</ele>
        <time>2019-05-12T09:12:47Z</time>
      </trkpt>
      <trkpt lat="47.10289" lon="5.78981">
        <ele>293.6</ele>
        <time>2019-05-12T09:12:51Z</time>
      </trkpt>
      <trkpt lat="47.10284" lon="5.78983">
        <ele>292.7</ele>
        <time>2019-05-12T09:12:56Z</time>
      </trkpt>
      <trkpt lat="47.1028" lon="5.78985">
        <ele>292</ele>
        <time>2019-05-12T09:13:01Z</time>
      </trkpt>
      <trkpt lat="47.10275" lon="5.78987">
        <ele>291.4</ele>
        <time>2019-05-12T09:13:06Z</time>
      </trkpt>
      <trkpt lat="47.1027" lon="5.7899">
        <ele>291</ele>
        <time>2019-05-12T09:13:11Z</time>
      </trkpt>
      <trkpt lat="47.10266" lon="5.78993">
        <ele>290.7</ele>
        <time>2019-05-12T09:13:14Z</time>
      </trkpt>
      <trkpt lat="47.10262" lon="5.78996">
        <ele>290.4</ele>
        <time>2019-05-12T09:13:17Z</time>
      </trkpt>
      <trkpt lat="47.10257" lon="5.78999">
        <ele>290.1</ele>
        <time>2019-05-12T09:13:21Z</time>
      </trkpt>
      <trkpt lat="47.10252" lon="5.79003">
        <ele>289.9</ele>
        <time>2019-05-12T09:13:25Z</time>
      </trkpt>
      <trkpt lat="47.10247" lon="5.79008">
        <ele>290</ele>
        <time>2019-05-12T09:13:27Z</time>
      </trkpt>
      <trkpt lat="47.10242" lon="5.79012">
        <ele>290.1</ele>
        <time>2019-05-12T09:13:30Z</time>
      </trkpt>
      <trkpt lat="47.10236" lon="5.79017">
        <ele>290.5</ele>
        <time>2019-05-12T09:13:34Z</time>
      </trkpt>
      <trkpt lat="47.10232" lon="5.79022">
        <ele>291</ele>
        <time>2019-05-12T09:13:38Z</time>
      </trkpt>
      <trkpt lat="47.10225" lon="5.7903">
        <ele>293</ele>
        <time>2019-05-12T09:13:50Z</time>
      </trkpt>
      <trkpt lat="47.10222" lon="5.79036">
        <ele>293.1</ele>
        <time>2019-05-12T09:13:57Z</time>
      </trkpt>
      <trkpt lat="47.1022" lon="5.79043">
        <ele>293</ele>
        <time>2019-05-12T09:14:04Z</time>
      </trkpt>
      <trkpt lat="47.1022" lon="5.79043">
        <ele>292</ele>
        <time>2019-05-12T09:14:56Z</time>
      </trkpt>
      <trkpt lat="47.10223" lon="5.79037">
        <ele>292.3</ele>
        <time>2019-05-12T09:15:00Z</time>
      </trkpt>
      <trkpt lat="47.10225" lon="5.79048">
        <ele>291.9</ele>
        <time>2019-05-12T09:15:22Z</time>
      </trkpt>
      <trkpt lat="47.10225" lon="5.79074">
        <ele>289.9</ele>
        <time>2019-05-12T09:15:42Z</time>
      </trkpt>
      <trkpt lat="47.10228" lon="5.79081">
        <ele>289.4</ele>
        <time>2019-05-12T09:15:46Z</time>
      </trkpt>
      <trkpt lat="47.10231" lon="5.79087">
        <ele>288.8</ele>
        <time>2019-05-12T09:15:49Z</time>
      </trkpt>
      <trkpt lat="47.10238" lon="5.79105">
        <ele>283.9</ele>
        <time>2019-05-12T09:16:24Z</time>
      </trkpt>
      <trkpt lat="47.1024" lon="5.79112">
        <ele>283.6</ele>
        <time>2019-05-12T09:16:27Z</time>
      </trkpt>
      <trkpt lat="47.10221" lon="5.79118">
        <ele>281.5</ele>
        <time>2019-05-12T09:17:51Z</time>
      </trkpt>
      <trkpt lat="47.10219" lon="5.79109">
        <ele>281</ele>
        <time>2019-05-12T09:17:57Z</time>
      </trkpt>
      <trkpt lat="47.10217" lon="5.79102">
        <ele>280.6</ele>
        <time>2019-05-12T09:18:03Z</time>
      </trkpt>
      <trkpt lat="47.10216" lon="5.79094">
        <ele>280</ele>
        <time>2019-05-12T09:18:08Z</time>
      </trkpt>
      <trkpt lat="47.10214" lon="5.79087">
        <ele>279.5</ele>
        <time>2019-05-12T09:18:11Z</time>
      </trkpt>
      <trkpt lat="47.10208" lon="5.79082">
        <ele>279.1</ele>
        <time>2019-05-12T09:18:14Z</time>
      </trkpt>
      <trkpt lat="47.10204" lon="5.7908">
        <ele>278.8</ele>
        <time>2019-05-12T09:18:20Z</time>
      </trkpt>
      <trkpt lat="47.10199" lon="5.79082">
        <ele>279</ele>
        <time>2019-05-12T09:18:30Z</time>
      </trkpt>
      <trkpt lat="47.10189" lon="5.79088">
        <ele>280.1</ele>
        <time>2019-05-12T09:18:43Z</time>
      </trkpt>
      <trkpt lat="47.10186" lon="5.79094">
        <ele>281.2</ele>
        <time>2019-05-12T09:18:49Z</time>
      </trkpt>
      <trkpt lat="47.10183" lon="5.79098">
        <ele>282</ele>
        <time>2019-05-12T09:18:53Z</time>
      </trkpt>
      <trkpt lat="47.10174" lon="5.79126">
        <ele>284.9</ele>
        <time>2019-05-12T09:19:45Z</time>
      </trkpt>
      <trkpt lat="47.10161" lon="5.79152">
        <ele>290.6</ele>
        <time>2019-05-12T09:20:28Z</time>
      </trkpt>
      <trkpt lat="47.10158" lon="5.79157">
        <ele>291.3</ele>
        <time>2019-05-12T09:20:37Z</time>
      </trkpt>
      <trkpt lat="47.10154" lon="5.79165">
        <ele>291.5</ele>
        <time>2019-05-12T09:20:40Z</time>
      </trkpt>
      <trkpt lat="47.10149" lon="5.79172">
        <ele>291.7</ele>
        <time>2019-05-12T09:20:42Z</time>
      </trkpt>
      <trkpt lat="47.10145" lon="5.79178">
        <ele>291.8</ele>
        <time>2019-05-12T09:20:44Z</time>
      </trkpt>
      <trkpt lat="47.10141" lon="5.79184">
        <ele>291.9</ele>
        <time>2019-05-12T09:20:46Z</time>
      </trkpt>
      <trkpt lat="47.10137" lon="5.79188">
        <ele>292</ele>
        <time>2019-05-12T09:20:50Z</time>
      </trkpt>
      <trkpt lat="47.10131" lon="5.79193">
        <ele>292.3</ele>
        <time>2019-05-12T09:20:54Z</time>
      </trkpt>
      <trkpt lat="47.10125" lon="5.79199">
        <ele>292.4</ele>
        <time>2019-05-12T09:20:56Z</time>
      </trkpt>
      <trkpt lat="47.10121" lon="5.79204">
        <ele>292.8</ele>
        <time>2019-05-12T09:20:59Z</time>
      </trkpt>
      <trkpt lat="47.10116" lon="5.79207">
        <ele>293.6</ele>
        <time>2019-05-12T09:21:07Z</time>
      </trkpt>
      <trkpt lat="47.10111" lon="5.79208">
        <ele>293</ele>
        <time>2019-05-12T09:21:19Z</time>
      </trkpt>
      <trkpt lat="47.10107" lon="5.79212">
        <ele>292.5</ele>
        <time>2019-05-12T09:21:24Z</time>
      </trkpt>
      <trkpt lat="47.10104" lon="5.79218">
        <ele>293</ele>
        <time>2019-05-12T09:21:36Z</time>
      </trkpt>
      <trkpt lat="47.101" lon="5.79222">
        <ele>293.5</ele>
        <time>2019-05-12T09:21:39Z</time>
      </trkpt>
      <trkpt lat="47.10096" lon="5.79226">
        <ele>293.7</ele>
        <time>2019-05-12T09:21:41Z</time>
      </trkpt>
      <trkpt lat="47.1008" lon="5.79239">
        <ele>291.6</ele>
        <time>2019-05-12T09:22:24Z</time>
      </trkpt>
      <trkpt lat="47.10076" lon="5.79244">
        <ele>291.2</ele>
        <time>2019-05-12T09:22:27Z</time>
      </trkpt>
      <trkpt lat="47.10069" lon="5.79247">
        <ele>290.6</ele>
        <time>2019-05-12T09:22:30Z</time>
      </trkpt>
      <trkpt lat="47.10064" lon="5.79247">
        <ele>290.1</ele>
        <time>2019-05-12T09:22:32Z</time>
      </trkpt>
      <trkpt lat="47.10031" lon="5.79275">
        <ele>285.1</ele>
        <time>2019-05-12T09:22:54Z</time>
      </trkpt>
      <trkpt lat="47.10027" lon="5.79279">
        <ele>285</ele>
        <time>2019-05-12T09:22:57Z</time>
      </trkpt>
      <trkpt lat="47.10023" lon="5.79282">
        <ele>285.1</ele>
        <time>2019-05-12T09:23:01Z</time>
      </trkpt>
      <trkpt lat="47.09998" lon="5.79302">
        <ele>286.9</ele>
        <time>2019-05-12T09:23:17Z</time>
      </trkpt>
      <trkpt lat="47.09994" lon="5.79306">
        <ele>287.1</ele>
        <time>2019-05-12T09:23:22Z</time>
      </trkpt>
      <trkpt lat="47.09989" lon="5.79308">
        <ele>286.8</ele>
        <time>2019-05-12T09:23:32Z</time>
      </trkpt>
      <trkpt lat="47.09985" lon="5.79311">
        <ele>285.9</ele>
        <time>2019-05-12T09:23:39Z</time>
      </trkpt>
      <trkpt lat="47.0998" lon="5.79314">
        <ele>285.4</ele>
        <time>2019-05-12T09:23:42Z</time>
      </trkpt>
      <trkpt lat="47.09976" lon="5.79318">
        <ele>284.8</ele>
        <time>2019-05-12T09:23:45Z</time>
      </trkpt>
      <trkpt lat="47.09971" lon="5.79322">
        <ele>284.2</ele>
        <time>2019-05-12T09:23:48Z</time>
      </trkpt>
      <trkpt lat="47.09968" lon="5.79326">
        <ele>283.3</ele>
        <time>2019-05-12T09:23:51Z</time>
      </trkpt>
      <trkpt lat="47.09965" lon="5.79331">
        <ele>281.9</ele>
        <time>2019-05-12T09:23:57Z</time>
      </trkpt>
      <trkpt lat="47.09961" lon="5.79335">
        <ele>281.6</ele>
        <time>2019-05-12T09:23:59Z</time>
      </trkpt>
      <trkpt lat="47.09955" lon="5.79338">
        <ele>281.2</ele>
        <time>2019-05-12T09:24:01Z</time>
      </trkpt>
      <trkpt lat="47.0995" lon="5.79343">
        <ele>280.7</ele>
        <time>2019-05-12T09:24:04Z</time>
      </trkpt>
      <trkpt lat="47.09946" lon="5.79349">
        <ele>280.1</ele>
        <time>2019-05-12T09:24:07Z</time>
      </trkpt>
      <trkpt lat="47.09942" lon="5.79354">
        <ele>279.4</ele>
        <time>2019-05-12T09:24:11Z</time>
      </trkpt>
      <trkpt lat="47.09939" lon="5.79359">
        <ele>278.8</ele>
        <time>2019-05-12T09:24:14Z</time>
      </trkpt>
      <trkpt lat="47.09935" lon="5.79364">
        <ele>278.2</ele>
        <time>2019-05-12T09:24:17Z</time>
      </trkpt>
      <trkpt lat="47.09932" lon="5.79371">
        <ele>277.6</ele>
        <time>2019-05-12T09:24:21Z</time>
      </trkpt>
      <trkpt lat="47.09928" lon="5.79376">
        <ele>277.3</ele>
        <time>2019-05-12T09:24:25Z</time>
      </trkpt>
      <trkpt lat="47.09924" lon="5.79382">
        <ele>277.3</ele>
        <time>2019-05-12T09:24:29Z</time>
      </trkpt>
      <trkpt lat="47.09919" lon="5.79385">
        <ele>277.4</ele>
        <time>2019-05-12T09:24:33Z</time>
      </trkpt>
      <trkpt lat="47.09915" lon="5.79388">
        <ele>277.6</ele>
        <time>2019-05-12T09:24:38Z</time>
      </trkpt>
      <trkpt lat="47.0991" lon="5.79391">
        <ele>277.7</ele>
        <time>2019-05-12T09:24:41Z</time>
      </trkpt>
      <trkpt lat="47.09906" lon="5.79394">
        <ele>277.7</ele>
        <time>2019-05-12T09:24:44Z</time>
      </trkpt>
      <trkpt lat="47.09901" lon="5.79398">
        <ele>277.6</ele>
        <time>2019-05-12T09:24:47Z</time>
      </trkpt>
      <trkpt lat="47.09897" lon="5.79401">
        <ele>277.4</ele>
        <time>2019-05-12T09:24:50Z</time>
      </trkpt>
      <trkpt lat="47.09893" lon="5.79406">
        <ele>277</ele>
        <time>2019-05-12T09:24:54Z</time>
      </trkpt>
      <trkpt lat="47.0989" lon="5.79411">
        <ele>276.7</ele>
        <time>2019-05-12T09:24:57Z</time>
      </trkpt>
      <trkpt lat="47.09885" lon="5.79416">
        <ele>276.6</ele>
        <time>2019-05-12T09:25:01Z</time>
      </trkpt>
      <trkpt lat="47.0988" lon="5.79419">
        <ele>276.4</ele>
        <time>2019-05-12T09:25:04Z</time>
      </trkpt>
      <trkpt lat="47.09875" lon="5.79421">
        <ele>276.1</ele>
        <time>2019-05-12T09:25:08Z</time>
      </trkpt>
      <trkpt lat="47.09871" lon="5.79424">
        <ele>276</ele>
        <time>2019-05-12T09:25:12Z</time>
      </trkpt>
      <trkpt lat="47.09867" lon="5.79427">
        <ele>276</ele>
        <time>2019-05-12T09:25:17Z</time>
      </trkpt>
      <trkpt lat="47.09863" lon="5.7943">
        <ele>276</ele>
        <time>2019-05-12T09:25:21Z</time>
      </trkpt>
      <trkpt lat="47.09858" lon="5.79432">
        <ele>276</ele>
        <time>2019-05-12T09:25:24Z</time>
      </trkpt>
      <trkpt lat="47.09854" lon="5.79435">
        <ele>275.9</ele>
        <time>2019-05-12T09:25:27Z</time>
      </trkpt>
      <trkpt lat="47.09849" lon="5.79439">
        <ele>275.6</ele>
        <time>2019-05-12T09:25:30Z</time>
      </trkpt>
      <trkpt lat="47.09844" lon="5.79443">
        <ele>275.2</ele>
        <time>2019-05-12T09:25:34Z</time>
      </trkpt>
      <trkpt lat="47.0984" lon="5.79446">
        <ele>274.7</ele>
        <time>2019-05-12T09:25:37Z</time>
      </trkpt>
      <trkpt lat="47.09835" lon="5.79448">
        <ele>274.2</ele>
        <time>2019-05-12T09:25:40Z</time>
      </trkpt>
      <trkpt lat="47.0983" lon="5.79449">
        <ele>273.2</ele>
        <time>2019-05-12T09:25:44Z</time>
      </trkpt>
      <trkpt lat="47.09825" lon="5.79452">
        <ele>271.9</ele>
        <time>2019-05-12T09:25:49Z</time>
      </trkpt>
      <trkpt lat="47.0982" lon="5.79454">
        <ele>270.8</ele>
        <time>2019-05-12T09:25:54Z</time>
      </trkpt>
      <trkpt lat="47.09815" lon="5.79456">
        <ele>269.9</ele>
        <time>2019-05-12T09:25:59Z</time>
      </trkpt>
      <trkpt lat="47.09809" lon="5.79456">
        <ele>269</ele>
        <time>2019-05-12T09:26:03Z</time>
      </trkpt>
      <trkpt lat="47.09804" lon="5.79457">
        <ele>268.4</ele>
        <time>2019-05-12T09:26:06Z</time>
      </trkpt>
      <trkpt lat="47.098" lon="5.79458">
        <ele>267.7</ele>
        <time>2019-05-12T09:26:09Z</time>
      </trkpt>
      <trkpt lat="47.09796" lon="5.7946">
        <ele>267.1</ele>
        <time>2019-05-12T09:26:12Z</time>
      </trkpt>
      <trkpt lat="47.09791" lon="5.79462">
        <ele>266.4</ele>
        <time>2019-05-12T09:26:16Z</time>
      </trkpt>
      <trkpt lat="47.09786" lon="5.79464">
        <ele>265.7</ele>
        <time>2019-05-12T09:26:21Z</time>
      </trkpt>
      <trkpt lat="47.09781" lon="5.79466">
        <ele>265.4</ele>
        <time>2019-05-12T09:26:25Z</time>
      </trkpt>
      <trkpt lat="47.09777" lon="5.79469">
        <ele>265.2</ele>
        <time>2019-05-12T09:26:29Z</time>
      </trkpt>
      <trkpt lat="47.09772" lon="5.79472">
        <ele>265</ele>
        <time>2019-05-12T09:26:34Z</time>
      </trkpt>
      <trkpt lat="47.09767" lon="5.79475">
        <ele>265</ele>
        <time>2019-05-12T09:26:38Z</time>
      </trkpt>
      <trkpt lat="47.09763" lon="5.79478">
        <ele>265.1</ele>
        <time>2019-05-12T09:26:44Z</time>
      </trkpt>
      <trkpt lat="47.09758" lon="5.7948">
        <ele>265.3</ele>
        <time>2019-05-12T09:26:51Z</time>
      </trkpt>
      <trkpt lat="47.09753" lon="5.79483">
        <ele>265.9</ele>
        <time>2019-05-12T09:26:57Z</time>
      </trkpt>
      <trkpt lat="47.09749" lon="5.79487">
        <ele>266.4</ele>
        <time>2019-05-12T09:27:01Z</time>
      </trkpt>
      <trkpt lat="47.09743" lon="5.7949">
        <ele>266.8</ele>
        <time>2019-05-12T09:27:04Z</time>
      </trkpt>
      <trkpt lat="47.09726" lon="5.79495">
        <ele>270.8</ele>
        <time>2019-05-12T09:27:16Z</time>
      </trkpt>
      <trkpt lat="47.0972" lon="5.79497">
        <ele>272</ele>
        <time>2019-05-12T09:27:20Z</time>
      </trkpt>
      <trkpt lat="47.09716" lon="5.79499">
        <ele>273.4</ele>
        <time>2019-05-12T09:27:24Z</time>
      </trkpt>
      <trkpt lat="47.0971" lon="5.79503">
        <ele>274.2</ele>
        <time>2019-05-12T09:27:27Z</time>
      </trkpt>
      <trkpt lat="47.09706" lon="5.79507">
        <ele>275</ele>
        <time>2019-05-12T09:27:31Z</time>
      </trkpt>
      <trkpt lat="47.09701" lon="5.79509">
        <ele>275.5</ele>
        <time>2019-05-12T09:27:36Z</time>
      </trkpt>
      <trkpt lat="47.09697" lon="5.79512">
        <ele>276.3</ele>
        <time>2019-05-12T09:27:42Z</time>
      </trkpt>
      <trkpt lat="47.09692" lon="5.79513">
        <ele>277</ele>
        <time>2019-05-12T09:27:48Z</time>
      </trkpt>
      <trkpt lat="47.09679" lon="5.79519">
        <ele>277.3</ele>
        <time>2019-05-12T09:28:03Z</time>
      </trkpt>
      <trkpt lat="47.09674" lon="5.79521">
        <ele>277</ele>
        <time>2019-05-12T09:28:10Z</time>
      </trkpt>
      <trkpt lat="47.09668" lon="5.79524">
        <ele>277.1</ele>
        <time>2019-05-12T09:28:13Z</time>
      </trkpt>
      <trkpt lat="47.09662" lon="5.79525">
        <ele>277.2</ele>
        <time>2019-05-12T09:28:16Z</time>
      </trkpt>
      <trkpt lat="47.09656" lon="5.79527">
        <ele>277.4</ele>
        <time>2019-05-12T09:28:19Z</time>
      </trkpt>
      <trkpt lat="47.0965" lon="5.7953">
        <ele>278</ele>
        <time>2019-05-12T09:28:24Z</time>
      </trkpt>
      <trkpt lat="47.09645" lon="5.79532">
        <ele>278.6</ele>
        <time>2019-05-12T09:28:27Z</time>
      </trkpt>
      <trkpt lat="47.09641" lon="5.79535">
        <ele>279.2</ele>
        <time>2019-05-12T09:28:30Z</time>
      </trkpt>
      <trkpt lat="47.09636" lon="5.79539">
        <ele>279.8</ele>
        <time>2019-05-12T09:28:33Z</time>
      </trkpt>
      <trkpt lat="47.09631" lon="5.79544">
        <ele>280.4</ele>
        <time>2019-05-12T09:28:36Z</time>
      </trkpt>
      <trkpt lat="47.09627" lon="5.79546">
        <ele>281</ele>
        <time>2019-05-12T09:28:39Z</time>
      </trkpt>
      <trkpt lat="47.09622" lon="5.79546">
        <ele>281.6</ele>
        <time>2019-05-12T09:28:42Z</time>
      </trkpt>
      <trkpt lat="47.09617" lon="5.79546">
        <ele>282.4</ele>
        <time>2019-05-12T09:28:46Z</time>
      </trkpt>
      <trkpt lat="47.09612" lon="5.79545">
        <ele>283.4</ele>
        <time>2019-05-12T09:28:51Z</time>
      </trkpt>
      <trkpt lat="47.09607" lon="5.79546">
        <ele>283.9</ele>
        <time>2019-05-12T09:28:54Z</time>
      </trkpt>
      <trkpt lat="47.09601" lon="5.79549">
        <ele>284.4</ele>
        <time>2019-05-12T09:28:58Z</time>
      </trkpt>
      <trkpt lat="47.09596" lon="5.79551">
        <ele>284.9</ele>
        <time>2019-05-12T09:29:03Z</time>
      </trkpt>
      <trkpt lat="47.09591" lon="5.79553">
        <ele>285.3</ele>
        <time>2019-05-12T09:29:08Z</time>
      </trkpt>
      <trkpt lat="47.09586" lon="5.79554">
        <ele>285.4</ele>
        <time>2019-05-12T09:29:13Z</time>
      </trkpt>
      <trkpt lat="47.09582" lon="5.79556">
        <ele>285.6</ele>
        <time>2019-05-12T09:29:20Z</time>
      </trkpt>
      <trkpt lat="47.09577" lon="5.79556">
        <ele>285.7</ele>
        <time>2019-05-12T09:29:26Z</time>
      </trkpt>
      <trkpt lat="47.09573" lon="5.79557">
        <ele>285.5</ele>
        <time>2019-05-12T09:29:30Z</time>
      </trkpt>
      <trkpt lat="47.09567" lon="5.7956">
        <ele>285.1</ele>
        <time>2019-05-12T09:29:34Z</time>
      </trkpt>
      <trkpt lat="47.09562" lon="5.79562">
        <ele>284.7</ele>
        <time>2019-05-12T09:29:39Z</time>
      </trkpt>
      <trkpt lat="47.09557" lon="5.79564">
        <ele>284.3</ele>
        <time>2019-05-12T09:29:45Z</time>
      </trkpt>
      <trkpt lat="47.09553" lon="5.79566">
        <ele>284</ele>
        <time>2019-05-12T09:29:49Z</time>
      </trkpt>
      <trkpt lat="47.09548" lon="5.79569">
        <ele>283.8</ele>
        <time>2019-05-12T09:29:53Z</time>
      </trkpt>
      <trkpt lat="47.09543" lon="5.79572">
        <ele>283.7</ele>
        <time>2019-05-12T09:29:56Z</time>
      </trkpt>
      <trkpt lat="47.09537" lon="5.79574">
        <ele>283.7</ele>
        <time>2019-05-12T09:30:00Z</time>
      </trkpt>
      <trkpt lat="47.09533" lon="5.79577">
        <ele>283.6</ele>
        <time>2019-05-12T09:30:03Z</time>
      </trkpt>
      <trkpt lat="47.0953" lon="5.79581">
        <ele>283.6</ele>
        <time>2019-05-12T09:30:06Z</time>
      </trkpt>
      <trkpt lat="47.09526" lon="5.79588">
        <ele>283.6</ele>
        <time>2019-05-12T09:30:10Z</time>
      </trkpt>
      <trkpt lat="47.09523" lon="5.79594">
        <ele>283.7</ele>
        <time>2019-05-12T09:30:14Z</time>
      </trkpt>
      <trkpt lat="47.0952" lon="5.796">
        <ele>283.8</ele>
        <time>2019-05-12T09:30:18Z</time>
      </trkpt>
      <trkpt lat="47.09518" lon="5.79605">
        <ele>283.9</ele>
        <time>2019-05-12T09:30:24Z</time>
      </trkpt>
      <trkpt lat="47.09518" lon="5.79612">
        <ele>283.8</ele>
        <time>2019-05-12T09:30:30Z</time>
      </trkpt>
      <trkpt lat="47.09517" lon="5.7962">
        <ele>283.7</ele>
        <time>2019-05-12T09:30:34Z</time>
      </trkpt>
      <trkpt lat="47.09516" lon="5.79627">
        <ele>283.8</ele>
        <time>2019-05-12T09:30:37Z</time>
      </trkpt>
      <trkpt lat="47.09515" lon="5.79634">
        <ele>283.8</ele>
        <time>2019-05-12T09:30:42Z</time>
      </trkpt>
      <trkpt lat="47.09517" lon="5.79641">
        <ele>283.7</ele>
        <time>2019-05-12T09:30:47Z</time>
      </trkpt>
      <trkpt lat="47.0952" lon="5.79647">
        <ele>283.3</ele>
        <time>2019-05-12T09:30:51Z</time>
      </trkpt>
      <trkpt lat="47.09523" lon="5.79654">
        <ele>282.3</ele>
        <time>2019-05-12T09:30:57Z</time>
      </trkpt>
      <trkpt lat="47.09524" lon="5.7966">
        <ele>281.1</ele>
        <time>2019-05-12T09:31:04Z</time>
      </trkpt>
      <trkpt lat="47.09525" lon="5.79667">
        <ele>280.4</ele>
        <time>2019-05-12T09:31:09Z</time>
      </trkpt>
      <trkpt lat="47.09528" lon="5.79673">
        <ele>279.9</ele>
        <time>2019-05-12T09:31:13Z</time>
      </trkpt>
      <trkpt lat="47.09532" lon="5.7968">
        <ele>279.3</ele>
        <time>2019-05-12T09:31:17Z</time>
      </trkpt>
      <trkpt lat="47.09534" lon="5.79685">
        <ele>278.6</ele>
        <time>2019-05-12T09:31:21Z</time>
      </trkpt>
      <trkpt lat="47.09536" lon="5.79692">
        <ele>277.7</ele>
        <time>2019-05-12T09:31:26Z</time>
      </trkpt>
      <trkpt lat="47.09539" lon="5.79698">
        <ele>276.9</ele>
        <time>2019-05-12T09:31:31Z</time>
      </trkpt>
      <trkpt lat="47.09542" lon="5.79705">
        <ele>276.2</ele>
        <time>2019-05-12T09:31:35Z</time>
      </trkpt>
      <trkpt lat="47.09545" lon="5.79712">
        <ele>275.7</ele>
        <time>2019-05-12T09:31:38Z</time>
      </trkpt>
      <trkpt lat="47.09547" lon="5.79719">
        <ele>275</ele>
        <time>2019-05-12T09:31:42Z</time>
      </trkpt>
      <trkpt lat="47.0955" lon="5.79725">
        <ele>274</ele>
        <time>2019-05-12T09:31:47Z</time>
      </trkpt>
      <trkpt lat="47.09554" lon="5.79731">
        <ele>273.3</ele>
        <time>2019-05-12T09:31:51Z</time>
      </trkpt>
      <trkpt lat="47.09557" lon="5.79738">
        <ele>272.7</ele>
        <time>2019-05-12T09:31:55Z</time>
      </trkpt>
      <trkpt lat="47.0956" lon="5.79743">
        <ele>272.3</ele>
        <time>2019-05-12T09:31:58Z</time>
      </trkpt>
      <trkpt lat="47.09563" lon="5.79749">
        <ele>272.1</ele>
        <time>2019-05-12T09:32:01Z</time>
      </trkpt>
      <trkpt lat="47.09565" lon="5.79755">
        <ele>271.9</ele>
        <time>2019-05-12T09:32:04Z</time>
      </trkpt>
      <trkpt lat="47.09568" lon="5.79761">
        <ele>271.6</ele>
        <time>2019-05-12T09:32:08Z</time>
      </trkpt>
      <trkpt lat="47.09569" lon="5.79767">
        <ele>271.5</ele>
        <time>2019-05-12T09:32:12Z</time>
      </trkpt>
      <trkpt lat="47.09571" lon="5.79775">
        <ele>271.4</ele>
        <time>2019-05-12T09:32:16Z</time>
      </trkpt>
      <trkpt lat="47.09572" lon="5.79782">
        <ele>271.2</ele>
        <time>2019-05-12T09:32:20Z</time>
      </trkpt>
      <trkpt lat="47.09574" lon="5.79789">
        <ele>270.8</ele>
        <time>2019-05-12T09:32:24Z</time>
      </trkpt>
      <trkpt lat="47.09576" lon="5.79797">
        <ele>270.6</ele>
        <time>2019-05-12T09:32:28Z</time>
      </trkpt>
      <trkpt lat="47.09577" lon="5.79804">
        <ele>270.6</ele>
        <time>2019-05-12T09:32:33Z</time>
      </trkpt>
      <trkpt lat="47.09579" lon="5.79812">
        <ele>270.7</ele>
        <time>2019-05-12T09:32:37Z</time>
      </trkpt>
      <trkpt lat="47.0958" lon="5.7982">
        <ele>270.9</ele>
        <time>2019-05-12T09:32:41Z</time>
      </trkpt>
      <trkpt lat="47.09582" lon="5.79826">
        <ele>271.1</ele>
        <time>2019-05-12T09:32:45Z</time>
      </trkpt>
      <trkpt lat="47.09583" lon="5.79833">
        <ele>271.1</ele>
        <time>2019-05-12T09:32:49Z</time>
      </trkpt>
      <trkpt lat="47.09585" lon="5.7984">
        <ele>271.1</ele>
        <time>2019-05-12T09:32:53Z</time>
      </trkpt>
      <trkpt lat="47.09586" lon="5.79849">
        <ele>271</ele>
        <time>2019-05-12T09:32:58Z</time>
      </trkpt>
      <trkpt lat="47.09586" lon="5.79857">
        <ele>270.9</ele>
        <time>2019-05-12T09:33:02Z</time>
      </trkpt>
      <trkpt lat="47.09586" lon="5.79864">
        <ele>270.7</ele>
        <time>2019-05-12T09:33:06Z</time>
      </trkpt>
      <trkpt lat="47.09587" lon="5.79872">
        <ele>270.4</ele>
        <time>2019-05-12T09:33:11Z</time>
      </trkpt>
      <trkpt lat="47.09587" lon="5.79879">
        <ele>270.2</ele>
        <time>2019-05-12T09:33:16Z</time>
      </trkpt>
      <trkpt lat="47.09586" lon="5.79886">
        <ele>270</ele>
        <time>2019-05-12T09:33:21Z</time>
      </trkpt>
      <trkpt lat="47.09585" lon="5.79894">
        <ele>269.7</ele>
        <time>2019-05-12T09:33:27Z</time>
      </trkpt>
      <trkpt lat="47.09584" lon="5.79901">
        <ele>269.5</ele>
        <time>2019-05-12T09:33:32Z</time>
      </trkpt>
      <trkpt lat="47.09585" lon="5.79908">
        <ele>269.6</ele>
        <time>2019-05-12T09:33:36Z</time>
      </trkpt>
      <trkpt lat="47.09585" lon="5.79915">
        <ele>269.7</ele>
        <time>2019-05-12T09:33:41Z</time>
      </trkpt>
      <trkpt lat="47.09585" lon="5.79923">
        <ele>269.8</ele>
        <time>2019-05-12T09:33:46Z</time>
      </trkpt>
      <trkpt lat="47.09584" lon="5.79931">
        <ele>269.9</ele>
        <time>2019-05-12T09:33:51Z</time>
      </trkpt>
      <trkpt lat="47.09583" lon="5.79938">
        <ele>270</ele>
        <time>2019-05-12T09:33:55Z</time>
      </trkpt>
      <trkpt lat="47.09583" lon="5.79945">
        <ele>270</ele>
        <time>2019-05-12T09:33:58Z</time>
      </trkpt>
      <trkpt lat="47.09582" lon="5.79953">
        <ele>270.1</ele>
        <time>2019-05-12T09:34:05Z</time>
      </trkpt>
      <trkpt lat="47.09581" lon="5.79959">
        <ele>270.1</ele>
        <time>2019-05-12T09:34:10Z</time>
      </trkpt>
      <trkpt lat="47.0958" lon="5.79966">
        <ele>270.4</ele>
        <time>2019-05-12T09:34:15Z</time>
      </trkpt>
      <trkpt lat="47.0958" lon="5.79974">
        <ele>270.8</ele>
        <time>2019-05-12T09:34:21Z</time>
      </trkpt>
      <trkpt lat="47.0958" lon="5.79982">
        <ele>271.1</ele>
        <time>2019-05-12T09:34:25Z</time>
      </trkpt>
      <trkpt lat="47.09577" lon="5.79988">
        <ele>271.1</ele>
        <time>2019-05-12T09:34:38Z</time>
      </trkpt>
      <trkpt lat="47.09577" lon="5.79996">
        <ele>271</ele>
        <time>2019-05-12T09:34:42Z</time>
      </trkpt>
      <trkpt lat="47.09576" lon="5.80003">
        <ele>270.8</ele>
        <time>2019-05-12T09:34:47Z</time>
      </trkpt>
      <trkpt lat="47.09574" lon="5.8001">
        <ele>270.8</ele>
        <time>2019-05-12T09:34:51Z</time>
      </trkpt>
      <trkpt lat="47.09572" lon="5.80017">
        <ele>270.7</ele>
        <time>2019-05-12T09:34:55Z</time>
      </trkpt>
      <trkpt lat="47.0957" lon="5.80024">
        <ele>270.8</ele>
        <time>2019-05-12T09:35:00Z</time>
      </trkpt>
      <trkpt lat="47.09568" lon="5.80032">
        <ele>270.8</ele>
        <time>2019-05-12T09:35:05Z</time>
      </trkpt>
      <trkpt lat="47.09567" lon="5.8004">
        <ele>270.7</ele>
        <time>2019-05-12T09:35:09Z</time>
      </trkpt>
      <trkpt lat="47.09565" lon="5.80047">
        <ele>270.7</ele>
        <time>2019-05-12T09:35:13Z</time>
      </trkpt>
      <trkpt lat="47.09563" lon="5.80055">
        <ele>270.8</ele>
        <time>2019-05-12T09:35:18Z</time>
      </trkpt>
      <trkpt lat="47.09561" lon="5.80061">
        <ele>271</ele>
        <time>2019-05-12T09:35:23Z</time>
      </trkpt>
      <trkpt lat="47.09559" lon="5.80068">
        <ele>271.3</ele>
        <time>2019-05-12T09:35:34Z</time>
      </trkpt>
      <trkpt lat="47.09554" lon="5.80068">
        <ele>275.4</ele>
        <time>2019-05-12T09:37:03Z</time>
      </trkpt>
      <trkpt lat="47.09551" lon="5.80063">
        <ele>275.9</ele>
        <time>2019-05-12T09:37:08Z</time>
      </trkpt>
      <trkpt lat="47.09548" lon="5.80057">
        <ele>276.4</ele>
        <time>2019-05-12T09:37:13Z</time>
      </trkpt>
      <trkpt lat="47.09545" lon="5.80051">
        <ele>276.5</ele>
        <time>2019-05-12T09:37:17Z</time>
      </trkpt>
      <trkpt lat="47.09542" lon="5.80046">
        <ele>276.5</ele>
        <time>2019-05-12T09:37:21Z</time>
      </trkpt>
      <trkpt lat="47.09539" lon="5.8004">
        <ele>276.4</ele>
        <time>2019-05-12T09:37:25Z</time>
      </trkpt>
      <trkpt lat="47.09536" lon="5.80035">
        <ele>276.2</ele>
        <time>2019-05-12T09:37:29Z</time>
      </trkpt>
      <trkpt lat="47.09533" lon="5.80031">
        <ele>275.9</ele>
        <time>2019-05-12T09:37:33Z</time>
      </trkpt>
      <trkpt lat="47.09529" lon="5.80025">
        <ele>275.4</ele>
        <time>2019-05-12T09:37:37Z</time>
      </trkpt>
      <trkpt lat="47.09525" lon="5.8002">
        <ele>274.9</ele>
        <time>2019-05-12T09:37:41Z</time>
      </trkpt>
      <trkpt lat="47.09522" lon="5.80015">
        <ele>274.5</ele>
        <time>2019-05-12T09:37:45Z</time>
      </trkpt>
      <trkpt lat="47.09519" lon="5.8001">
        <ele>274</ele>
        <time>2019-05-12T09:37:49Z</time>
      </trkpt>
      <trkpt lat="47.09515" lon="5.80004">
        <ele>273.5</ele>
        <time>2019-05-12T09:37:54Z</time>
      </trkpt>
      <trkpt lat="47.09511" lon="5.79999">
        <ele>273.1</ele>
        <time>2019-05-12T09:37:58Z</time>
      </trkpt>
      <trkpt lat="47.09508" lon="5.79993">
        <ele>272.7</ele>
        <time>2019-05-12T09:38:02Z</time>
      </trkpt>
      <trkpt lat="47.09506" lon="5.79987">
        <ele>271.9</ele>
        <time>2019-05-12T09:38:07Z</time>
      </trkpt>
      <trkpt lat="47.09503" lon="5.79981">
        <ele>271.2</ele>
        <time>2019-05-12T09:38:11Z</time>
      </trkpt>
      <trkpt lat="47.095" lon="5.79977">
        <ele>270.8</ele>
        <time>2019-05-12T09:38:14Z</time>
      </trkpt>
      <trkpt lat="47.09497" lon="5.79971">
        <ele>270.4</ele>
        <time>2019-05-12T09:38:18Z</time>
      </trkpt>
      <trkpt lat="47.09493" lon="5.79966">
        <ele>270.1</ele>
        <time>2019-05-12T09:38:23Z</time>
      </trkpt>
      <trkpt lat="47.0949" lon="5.7996">
        <ele>270.1</ele>
        <time>2019-05-12T09:38:27Z</time>
      </trkpt>
      <trkpt lat="47.09486" lon="5.79956">
        <ele>270.1</ele>
        <time>2019-05-12T09:38:31Z</time>
      </trkpt>
      <trkpt lat="47.09482" lon="5.79951">
        <ele>270.2</ele>
        <time>2019-05-12T09:38:35Z</time>
      </trkpt>
      <trkpt lat="47.09479" lon="5.79944">
        <ele>270.4</ele>
        <time>2019-05-12T09:38:40Z</time>
      </trkpt>
      <trkpt lat="47.09476" lon="5.79938">
        <ele>270.5</ele>
        <time>2019-05-12T09:38:44Z</time>
      </trkpt>
      <trkpt lat="47.09472" lon="5.79932">
        <ele>270.6</ele>
        <time>2019-05-12T09:38:48Z</time>
      </trkpt>
      <trkpt lat="47.09469" lon="5.79926">
        <ele>270.4</ele>
        <time>2019-05-12T09:38:54Z</time>
      </trkpt>
      <trkpt lat="47.09466" lon="5.79921">
        <ele>270.3</ele>
        <time>2019-05-12T09:38:59Z</time>
      </trkpt>
      <trkpt lat="47.09462" lon="5.79916">
        <ele>270.2</ele>
        <time>2019-05-12T09:39:03Z</time>
      </trkpt>
      <trkpt lat="47.09459" lon="5.7991">
        <ele>270.1</ele>
        <time>2019-05-12T09:39:08Z</time>
      </trkpt>
      <trkpt lat="47.09456" lon="5.79904">
        <ele>270.1</ele>
        <time>2019-05-12T09:39:12Z</time>
      </trkpt>
      <trkpt lat="47.09453" lon="5.79898">
        <ele>270.2</ele>
        <time>2019-05-12T09:39:16Z</time>
      </trkpt>
      <trkpt lat="47.09449" lon="5.79892">
        <ele>270.3</ele>
        <time>2019-05-12T09:39:21Z</time>
      </trkpt>
      <trkpt lat="47.09445" lon="5.79888">
        <ele>270.4</ele>
        <time>2019-05-12T09:39:25Z</time>
      </trkpt>
      <trkpt lat="47.09441" lon="5.79883">
        <ele>270.5</ele>
        <time>2019-05-12T09:39:30Z</time>
      </trkpt>
      <trkpt lat="47.09437" lon="5.79878">
        <ele>270.6</ele>
        <time>2019-05-12T09:39:35Z</time>
      </trkpt>
      <trkpt lat="47.09434" lon="5.79872">
        <ele>270.6</ele>
        <time>2019-05-12T09:39:40Z</time>
      </trkpt>
      <trkpt lat="47.0943" lon="5.79867">
        <ele>270.7</ele>
        <time>2019-05-12T09:39:44Z</time>
      </trkpt>
      <trkpt lat="47.09427" lon="5.79861">
        <ele>270.7</ele>
        <time>2019-05-12T09:39:48Z</time>
      </trkpt>
      <trkpt lat="47.09423" lon="5.79855">
        <ele>270.6</ele>
        <time>2019-05-12T09:39:52Z</time>
      </trkpt>
      <trkpt lat="47.09419" lon="5.7985">
        <ele>270.6</ele>
        <time>2019-05-12T09:39:56Z</time>
      </trkpt>
      <trkpt lat="47.09416" lon="5.79845">
        <ele>270.7</ele>
        <time>2019-05-12T09:40:01Z</time>
      </trkpt>
      <trkpt lat="47.09412" lon="5.7984">
        <ele>270.8</ele>
        <time>2019-05-12T09:40:05Z</time>
      </trkpt>
      <trkpt lat="47.09409" lon="5.79834">
        <ele>270.9</ele>
        <time>2019-05-12T09:40:09Z</time>
      </trkpt>
      <trkpt lat="47.09406" lon="5.79829">
        <ele>271.1</ele>
        <time>2019-05-12T09:40:13Z</time>
      </trkpt>
      <trkpt lat="47.09403" lon="5.79824">
        <ele>271.2</ele>
        <time>2019-05-12T09:40:17Z</time>
      </trkpt>
      <trkpt lat="47.09399" lon="5.79819">
        <ele>271.2</ele>
        <time>2019-05-12T09:40:22Z</time>
      </trkpt>
      <trkpt lat="47.09395" lon="5.79812">
        <ele>271.2</ele>
        <time>2019-05-12T09:40:26Z</time>
      </trkpt>
      <trkpt lat="47.09393" lon="5.79806">
        <ele>271.3</ele>
        <time>2019-05-12T09:40:30Z</time>
      </trkpt>
      <trkpt lat="47.0939" lon="5.798">
        <ele>271.4</ele>
        <time>2019-05-12T09:40:35Z</time>
      </trkpt>
      <trkpt lat="47.09387" lon="5.79794">
        <ele>271.5</ele>
        <time>2019-05-12T09:40:40Z</time>
      </trkpt>
      <trkpt lat="47.09383" lon="5.79787">
        <ele>271.4</ele>
        <time>2019-05-12T09:40:44Z</time>
      </trkpt>
      <trkpt lat="47.0938" lon="5.79781">
        <ele>271.3</ele>
        <time>2019-05-12T09:40:49Z</time>
      </trkpt>
      <trkpt lat="47.09377" lon="5.79776">
        <ele>271.4</ele>
        <time>2019-05-12T09:40:53Z</time>
      </trkpt>
      <trkpt lat="47.09373" lon="5.79771">
        <ele>271.5</ele>
        <time>2019-05-12T09:40:58Z</time>
      </trkpt>
      <trkpt lat="47.09369" lon="5.79765">
        <ele>271.5</ele>
        <time>2019-05-12T09:41:02Z</time>
      </trkpt>
      <trkpt lat="47.09365" lon="5.7976">
        <ele>271.6</ele>
        <time>2019-05-12T09:41:06Z</time>
      </trkpt>
      <trkpt lat="47.09361" lon="5.79754">
        <ele>271.8</ele>
        <time>2019-05-12T09:41:10Z</time>
      </trkpt>
      <trkpt lat="47.09358" lon="5.79748">
        <ele>272.1</ele>
        <time>2019-05-12T09:41:15Z</time>
      </trkpt>
      <trkpt lat="47.09355" lon="5.79742">
        <ele>272.5</ele>
        <time>2019-05-12T09:41:19Z</time>
      </trkpt>
      <trkpt lat="47.09353" lon="5.79737">
        <ele>272.6</ele>
        <time>2019-05-12T09:41:23Z</time>
      </trkpt>
      <trkpt lat="47.0935" lon="5.79729">
        <ele>272.6</ele>
        <time>2019-05-12T09:41:27Z</time>
      </trkpt>
      <trkpt lat="47.09347" lon="5.79724">
        <ele>272.6</ele>
        <time>2019-05-12T09:41:30Z</time>
      </trkpt>
      <trkpt lat="47.09344" lon="5.79718">
        <ele>272.5</ele>
        <time>2019-05-12T09:41:34Z</time>
      </trkpt>
      <trkpt lat="47.09341" lon="5.79711">
        <ele>272.5</ele>
        <time>2019-05-12T09:41:39Z</time>
      </trkpt>
      <trkpt lat="47.09338" lon="5.79705">
        <ele>272.4</ele>
        <time>2019-05-12T09:41:43Z</time>
      </trkpt>
      <trkpt lat="47.09335" lon="5.79699">
        <ele>272.2</ele>
        <time>2019-05-12T09:41:48Z</time>
      </trkpt>
      <trkpt lat="47.09333" lon="5.79693">
        <ele>271.9</ele>
        <time>2019-05-12T09:41:52Z</time>
      </trkpt>
      <trkpt lat="47.0933" lon="5.79687">
        <ele>271.7</ele>
        <time>2019-05-12T09:41:56Z</time>
      </trkpt>
      <trkpt lat="47.09327" lon="5.7968">
        <ele>271.4</ele>
        <time>2019-05-12T09:42:01Z</time>
      </trkpt>
      <trkpt lat="47.09324" lon="5.79675">
        <ele>271.3</ele>
        <time>2019-05-12T09:42:04Z</time>
      </trkpt>
      <trkpt lat="47.09321" lon="5.79668">
        <ele>271.3</ele>
        <time>2019-05-12T09:42:08Z</time>
      </trkpt>
      <trkpt lat="47.09318" lon="5.79662">
        <ele>271.3</ele>
        <time>2019-05-12T09:42:13Z</time>
      </trkpt>
      <trkpt lat="47.09315" lon="5.79656">
        <ele>271.3</ele>
        <time>2019-05-12T09:42:17Z</time>
      </trkpt>
      <trkpt lat="47.09313" lon="5.79651">
        <ele>271.4</ele>
        <time>2019-05-12T09:42:21Z</time>
      </trkpt>
      <trkpt lat="47.09309" lon="5.79645">
        <ele>271.5</ele>
        <time>2019-05-12T09:42:25Z</time>
      </trkpt>
      <trkpt lat="47.09307" lon="5.79639">
        <ele>271.5</ele>
        <time>2019-05-12T09:42:29Z</time>
      </trkpt>
      <trkpt lat="47.09303" lon="5.79632">
        <ele>271.5</ele>
        <time>2019-05-12T09:42:33Z</time>
      </trkpt>
      <trkpt lat="47.09301" lon="5.79626">
        <ele>271.4</ele>
        <time>2019-05-12T09:42:37Z</time>
      </trkpt>
      <trkpt lat="47.09297" lon="5.7962">
        <ele>271.4</ele>
        <time>2019-05-12T09:42:42Z</time>
      </trkpt>
      <trkpt lat="47.09294" lon="5.79615">
        <ele>271.5</ele>
        <time>2019-05-12T09:42:46Z</time>
      </trkpt>
      <trkpt lat="47.09291" lon="5.79608">
        <ele>271.6</ele>
        <time>2019-05-12T09:42:50Z</time>
      </trkpt>
      <trkpt lat="47.09288" lon="5.79603">
        <ele>271.8</ele>
        <time>2019-05-12T09:42:54Z</time>
      </trkpt>
      <trkpt lat="47.09285" lon="5.79598">
        <ele>272</ele>
        <time>2019-05-12T09:42:58Z</time>
      </trkpt>
      <trkpt lat="47.09281" lon="5.79591">
        <ele>272.1</ele>
        <time>2019-05-12T09:43:02Z</time>
      </trkpt>
      <trkpt lat="47.09278" lon="5.79586">
        <ele>272.3</ele>
        <time>2019-05-12T09:43:06Z</time>
      </trkpt>
      <trkpt lat="47.09275" lon="5.79581">
        <ele>272.4</ele>
        <time>2019-05-12T09:43:10Z</time>
      </trkpt>
      <trkpt lat="47.09272" lon="5.79575">
        <ele>272.4</ele>
        <time>2019-05-12T09:43:14Z</time>
      </trkpt>
      <trkpt lat="47.09269" lon="5.79569">
        <ele>272.4</ele>
        <time>2019-05-12T09:43:18Z</time>
      </trkpt>
      <trkpt lat="47.09266" lon="5.79562">
        <ele>272.5</ele>
        <time>2019-05-12T09:43:23Z</time>
      </trkpt>
      <trkpt lat="47.09262" lon="5.79556">
        <ele>272.5</ele>
        <time>2019-05-12T09:43:27Z</time>
      </trkpt>
      <trkpt lat="47.09259" lon="5.79551">
        <ele>272.5</ele>
        <time>2019-05-12T09:43:32Z</time>
      </trkpt>
      <trkpt lat="47.09256" lon="5.79545">
        <ele>272.3</ele>
        <time>2019-05-12T09:43:37Z</time>
      </trkpt>
      <trkpt lat="47.09254" lon="5.7954">
        <ele>272.3</ele>
        <time>2019-05-12T09:43:40Z</time>
      </trkpt>
      <trkpt lat="47.09251" lon="5.79533">
        <ele>272.3</ele>
        <time>2019-05-12T09:43:44Z</time>
      </trkpt>
      <trkpt lat="47.09248" lon="5.79528">
        <ele>272.2</ele>
        <time>2019-05-12T09:43:48Z</time>
      </trkpt>
      <trkpt lat="47.09245" lon="5.79522">
        <ele>272.2</ele>
        <time>2019-05-12T09:43:52Z</time>
      </trkpt>
      <trkpt lat="47.09241" lon="5.79517">
        <ele>272.2</ele>
        <time>2019-05-12T09:43:57Z</time>
      </trkpt>
      <trkpt lat="47.09237" lon="5.79511">
        <ele>272.1</ele>
        <time>2019-05-12T09:44:01Z</time>
      </trkpt>
      <trkpt lat="47.09233" lon="5.79505">
        <ele>272.1</ele>
        <time>2019-05-12T09:44:05Z</time>
      </trkpt>
      <trkpt lat="47.0923" lon="5.79501">
        <ele>272.2</ele>
        <time>2019-05-12T09:44:09Z</time>
      </trkpt>
      <trkpt lat="47.09227" lon="5.79495">
        <ele>272.1</ele>
        <time>2019-05-12T09:44:13Z</time>
      </trkpt>
      <trkpt lat="47.09223" lon="5.7949">
        <ele>272.1</ele>
        <time>2019-05-12T09:44:17Z</time>
      </trkpt>
      <trkpt lat="47.09219" lon="5.79485">
        <ele>272</ele>
        <time>2019-05-12T09:44:21Z</time>
      </trkpt>
      <trkpt lat="47.09216" lon="5.7948">
        <ele>271.9</ele>
        <time>2019-05-12T09:44:25Z</time>
      </trkpt>
      <trkpt lat="47.09213" lon="5.79474">
        <ele>271.7</ele>
        <time>2019-05-12T09:44:30Z</time>
      </trkpt>
      <trkpt lat="47.0921" lon="5.79468">
        <ele>271.5</ele>
        <time>2019-05-12T09:44:34Z</time>
      </trkpt>
      <trkpt lat="47.09207" lon="5.79463">
        <ele>271.4</ele>
        <time>2019-05-12T09:44:38Z</time>
      </trkpt>
      <trkpt lat="47.09203" lon="5.79458">
        <ele>271</ele>
        <time>2019-05-12T09:44:42Z</time>
      </trkpt>
      <trkpt lat="47.092" lon="5.79453">
        <ele>270.8</ele>
        <time>2019-05-12T09:44:46Z</time>
      </trkpt>
      <trkpt lat="47.09196" lon="5.79448">
        <ele>270.4</ele>
        <time>2019-05-12T09:44:50Z</time>
      </trkpt>
      <trkpt lat="47.09192" lon="5.79442">
        <ele>270.1</ele>
        <time>2019-05-12T09:44:54Z</time>
      </trkpt>
      <trkpt lat="47.09189" lon="5.79438">
        <ele>270</ele>
        <time>2019-05-12T09:44:58Z</time>
      </trkpt>
      <trkpt lat="47.09185" lon="5.79434">
        <ele>270.2</ele>
        <time>2019-05-12T09:45:02Z</time>
      </trkpt>
      <trkpt lat="47.09181" lon="5.7943">
        <ele>270.4</ele>
        <time>2019-05-12T09:45:06Z</time>
      </trkpt>
      <trkpt lat="47.09177" lon="5.79426">
        <ele>270.6</ele>
        <time>2019-05-12T09:45:10Z</time>
      </trkpt>
      <trkpt lat="47.09174" lon="5.7942">
        <ele>270.7</ele>
        <time>2019-05-12T09:45:14Z</time>
      </trkpt>
      <trkpt lat="47.09171" lon="5.79415">
        <ele>270.6</ele>
        <time>2019-05-12T09:45:18Z</time>
      </trkpt>
      <trkpt lat="47.09167" lon="5.7941">
        <ele>270.7</ele>
        <time>2019-05-12T09:45:22Z</time>
      </trkpt>
      <trkpt lat="47.09164" lon="5.79405">
        <ele>270.6</ele>
        <time>2019-05-12T09:45:27Z</time>
      </trkpt>
      <trkpt lat="47.09161" lon="5.794">
        <ele>270.4</ele>
        <time>2019-05-12T09:45:32Z</time>
      </trkpt>
      <trkpt lat="47.09157" lon="5.79394">
        <ele>270.3</ele>
        <time>2019-05-12T09:45:36Z</time>
      </trkpt>
      <trkpt lat="47.09153" lon="5.79389">
        <ele>270.3</ele>
        <time>2019-05-12T09:45:40Z</time>
      </trkpt>
      <trkpt lat="47.09148" lon="5.79384">
        <ele>270.3</ele>
        <time>2019-05-12T09:45:44Z</time>
      </trkpt>
      <trkpt lat="47.09144" lon="5.7938">
        <ele>270.4</ele>
        <time>2019-05-12T09:45:48Z</time>
      </trkpt>
      <trkpt lat="47.0914" lon="5.79375">
        <ele>270.4</ele>
        <time>2019-05-12T09:45:52Z</time>
      </trkpt>
      <trkpt lat="47.09137" lon="5.7937">
        <ele>270.5</ele>
        <time>2019-05-12T09:45:57Z</time>
      </trkpt>
      <trkpt lat="47.09133" lon="5.79363">
        <ele>270.4</ele>
        <time>2019-05-12T09:46:03Z</time>
      </trkpt>
      <trkpt lat="47.0913" lon="5.79357">
        <ele>270.3</ele>
        <time>2019-05-12T09:46:08Z</time>
      </trkpt>
      <trkpt lat="47.09126" lon="5.79353">
        <ele>270.3</ele>
        <time>2019-05-12T09:46:13Z</time>
      </trkpt>
      <trkpt lat="47.09121" lon="5.79348">
        <ele>270.2</ele>
        <time>2019-05-12T09:46:17Z</time>
      </trkpt>
      <trkpt lat="47.09117" lon="5.79343">
        <ele>270.3</ele>
        <time>2019-05-12T09:46:21Z</time>
      </trkpt>
      <trkpt lat="47.09113" lon="5.79338">
        <ele>270.2</ele>
        <time>2019-05-12T09:46:25Z</time>
      </trkpt>
      <trkpt lat="47.09109" lon="5.79333">
        <ele>270</ele>
        <time>2019-05-12T09:46:30Z</time>
      </trkpt>
      <trkpt lat="47.09105" lon="5.79328">
        <ele>269.7</ele>
        <time>2019-05-12T09:46:34Z</time>
      </trkpt>
      <trkpt lat="47.09101" lon="5.79324">
        <ele>269.5</ele>
        <time>2019-05-12T09:46:38Z</time>
      </trkpt>
      <trkpt lat="47.09097" lon="5.7932">
        <ele>269.3</ele>
        <time>2019-05-12T09:46:43Z</time>
      </trkpt>
      <trkpt lat="47.09093" lon="5.79316">
        <ele>269.2</ele>
        <time>2019-05-12T09:46:47Z</time>
      </trkpt>
      <trkpt lat="47.09088" lon="5.79311">
        <ele>269.3</ele>
        <time>2019-05-12T09:46:51Z</time>
      </trkpt>
      <trkpt lat="47.09084" lon="5.79307">
        <ele>269.4</ele>
        <time>2019-05-12T09:46:55Z</time>
      </trkpt>
      <trkpt lat="47.0908" lon="5.79303">
        <ele>269.4</ele>
        <time>2019-05-12T09:47:00Z</time>
      </trkpt>
      <trkpt lat="47.09075" lon="5.79298">
        <ele>269.4</ele>
        <time>2019-05-12T09:47:04Z</time>
      </trkpt>
      <trkpt lat="47.09072" lon="5.79294">
        <ele>269.4</ele>
        <time>2019-05-12T09:47:08Z</time>
      </trkpt>
      <trkpt lat="47.09068" lon="5.79289">
        <ele>269.4</ele>
        <time>2019-05-12T09:47:12Z</time>
      </trkpt>
      <trkpt lat="47.09064" lon="5.79285">
        <ele>269.4</ele>
        <time>2019-05-12T09:47:16Z</time>
      </trkpt>
      <trkpt lat="47.09061" lon="5.79281">
        <ele>269.5</ele>
        <time>2019-05-12T09:47:20Z</time>
      </trkpt>
      <trkpt lat="47.09057" lon="5.79276">
        <ele>269.7</ele>
        <time>2019-05-12T09:47:24Z</time>
      </trkpt>
      <trkpt lat="47.09053" lon="5.79271">
        <ele>269.9</ele>
        <time>2019-05-12T09:47:28Z</time>
      </trkpt>
      <trkpt lat="47.09049" lon="5.79266">
        <ele>270.2</ele>
        <time>2019-05-12T09:47:33Z</time>
      </trkpt>
      <trkpt lat="47.09045" lon="5.79261">
        <ele>270.4</ele>
        <time>2019-05-12T09:47:37Z</time>
      </trkpt>
      <trkpt lat="47.09041" lon="5.79256">
        <ele>270.6</ele>
        <time>2019-05-12T09:47:42Z</time>
      </trkpt>
      <trkpt lat="47.09037" lon="5.79253">
        <ele>270.8</ele>
        <time>2019-05-12T09:47:46Z</time>
      </trkpt>
      <trkpt lat="47.09032" lon="5.7925">
        <ele>271</ele>
        <time>2019-05-12T09:47:50Z</time>
      </trkpt>
      <trkpt lat="47.09027" lon="5.79245">
        <ele>271.2</ele>
        <time>2019-05-12T09:47:54Z</time>
      </trkpt>
      <trkpt lat="47.09023" lon="5.7924">
        <ele>271.5</ele>
        <time>2019-05-12T09:47:58Z</time>
      </trkpt>
      <trkpt lat="47.09018" lon="5.79235">
        <ele>271.8</ele>
        <time>2019-05-12T09:48:03Z</time>
      </trkpt>
      <trkpt lat="47.09014" lon="5.7923">
        <ele>272</ele>
        <time>2019-05-12T09:48:07Z</time>
      </trkpt>
      <trkpt lat="47.09011" lon="5.79226">
        <ele>272.2</ele>
        <time>2019-05-12T09:48:11Z</time>
      </trkpt>
      <trkpt lat="47.09007" lon="5.79221">
        <ele>272.5</ele>
        <time>2019-05-12T09:48:16Z</time>
      </trkpt>
      <trkpt lat="47.09003" lon="5.79217">
        <ele>272.7</ele>
        <time>2019-05-12T09:48:21Z</time>
      </trkpt>
      <trkpt lat="47.08999" lon="5.79214">
        <ele>272.9</ele>
        <time>2019-05-12T09:48:25Z</time>
      </trkpt>
      <trkpt lat="47.08995" lon="5.7921">
        <ele>273.2</ele>
        <time>2019-05-12T09:48:29Z</time>
      </trkpt>
      <trkpt lat="47.08991" lon="5.79206">
        <ele>273.5</ele>
        <time>2019-05-12T09:48:33Z</time>
      </trkpt>
      <trkpt lat="47.08987" lon="5.79203">
        <ele>273.7</ele>
        <time>2019-05-12T09:48:37Z</time>
      </trkpt>
      <trkpt lat="47.08984" lon="5.79199">
        <ele>274.2</ele>
        <time>2019-05-12T09:48:45Z</time>
      </trkpt>
      <trkpt lat="47.08983" lon="5.79192">
        <ele>273.7</ele>
        <time>2019-05-12T09:49:32Z</time>
      </trkpt>
      <trkpt lat="47.08979" lon="5.79189">
        <ele>273.4</ele>
        <time>2019-05-12T09:49:53Z</time>
      </trkpt>
      <trkpt lat="47.08974" lon="5.79187">
        <ele>273.7</ele>
        <time>2019-05-12T09:49:59Z</time>
      </trkpt>
      <trkpt lat="47.08969" lon="5.79184">
        <ele>273.9</ele>
        <time>2019-05-12T09:50:06Z</time>
      </trkpt>
      <trkpt lat="47.08966" lon="5.79178">
        <ele>274.2</ele>
        <time>2019-05-12T09:50:10Z</time>
      </trkpt>
      <trkpt lat="47.08961" lon="5.79174">
        <ele>274.5</ele>
        <time>2019-05-12T09:50:14Z</time>
      </trkpt>
      <trkpt lat="47.08957" lon="5.79171">
        <ele>274.7</ele>
        <time>2019-05-12T09:50:18Z</time>
      </trkpt>
      <trkpt lat="47.08952" lon="5.79166">
        <ele>275</ele>
        <time>2019-05-12T09:50:23Z</time>
      </trkpt>
      <trkpt lat="47.08949" lon="5.79161">
        <ele>275.1</ele>
        <time>2019-05-12T09:50:27Z</time>
      </trkpt>
      <trkpt lat="47.08946" lon="5.79156">
        <ele>275.4</ele>
        <time>2019-05-12T09:50:31Z</time>
      </trkpt>
      <trkpt lat="47.08942" lon="5.7915">
        <ele>275.6</ele>
        <time>2019-05-12T09:50:36Z</time>
      </trkpt>
      <trkpt lat="47.08938" lon="5.79144">
        <ele>275.7</ele>
        <time>2019-05-12T09:50:40Z</time>
      </trkpt>
      <trkpt lat="47.08934" lon="5.79139">
        <ele>276.1</ele>
        <time>2019-05-12T09:50:45Z</time>
      </trkpt>
      <trkpt lat="47.0893" lon="5.79135">
        <ele>276.3</ele>
        <time>2019-05-12T09:50:48Z</time>
      </trkpt>
      <trkpt lat="47.08926" lon="5.7913">
        <ele>276.7</ele>
        <time>2019-05-12T09:50:53Z</time>
      </trkpt>
      <trkpt lat="47.08921" lon="5.79125">
        <ele>276.9</ele>
        <time>2019-05-12T09:50:57Z</time>
      </trkpt>
      <trkpt lat="47.08918" lon="5.79121">
        <ele>277</ele>
        <time>2019-05-12T09:51:01Z</time>
      </trkpt>
      <trkpt lat="47.08913" lon="5.79116">
        <ele>277.1</ele>
        <time>2019-05-12T09:51:05Z</time>
      </trkpt>
      <trkpt lat="47.0891" lon="5.79111">
        <ele>277.1</ele>
        <time>2019-05-12T09:51:09Z</time>
      </trkpt>
      <trkpt lat="47.08906" lon="5.79106">
        <ele>277.4</ele>
        <time>2019-05-12T09:51:13Z</time>
      </trkpt>
      <trkpt lat="47.08901" lon="5.79101">
        <ele>277.8</ele>
        <time>2019-05-12T09:51:18Z</time>
      </trkpt>
      <trkpt lat="47.08898" lon="5.79097">
        <ele>278</ele>
        <time>2019-05-12T09:51:22Z</time>
      </trkpt>
      <trkpt lat="47.08893" lon="5.79092">
        <ele>278.4</ele>
        <time>2019-05-12T09:51:26Z</time>
      </trkpt>
      <trkpt lat="47.08889" lon="5.79089">
        <ele>278.8</ele>
        <time>2019-05-12T09:51:31Z</time>
      </trkpt>
      <trkpt lat="47.08886" lon="5.79083">
        <ele>279.1</ele>
        <time>2019-05-12T09:51:35Z</time>
      </trkpt>
      <trkpt lat="47.08883" lon="5.79077">
        <ele>279.7</ele>
        <time>2019-05-12T09:51:40Z</time>
      </trkpt>
      <trkpt lat="47.0888" lon="5.79071">
        <ele>280.2</ele>
        <time>2019-05-12T09:51:44Z</time>
      </trkpt>
      <trkpt lat="47.08875" lon="5.79065">
        <ele>280.8</ele>
        <time>2019-05-12T09:51:49Z</time>
      </trkpt>
      <trkpt lat="47.08871" lon="5.79061">
        <ele>281.3</ele>
        <time>2019-05-12T09:51:54Z</time>
      </trkpt>
      <trkpt lat="47.08867" lon="5.79057">
        <ele>281.7</ele>
        <time>2019-05-12T09:51:58Z</time>
      </trkpt>
      <trkpt lat="47.08864" lon="5.79052">
        <ele>282.3</ele>
        <time>2019-05-12T09:52:03Z</time>
      </trkpt>
      <trkpt lat="47.08859" lon="5.79049">
        <ele>282.7</ele>
        <time>2019-05-12T09:52:08Z</time>
      </trkpt>
      <trkpt lat="47.08855" lon="5.79046">
        <ele>282.8</ele>
        <time>2019-05-12T09:52:12Z</time>
      </trkpt>
      <trkpt lat="47.0885" lon="5.79041">
        <ele>282.8</ele>
        <time>2019-05-12T09:52:17Z</time>
      </trkpt>
      <trkpt lat="47.08846" lon="5.79036">
        <ele>282.8</ele>
        <time>2019-05-12T09:52:21Z</time>
      </trkpt>
      <trkpt lat="47.08843" lon="5.79031">
        <ele>283</ele>
        <time>2019-05-12T09:52:25Z</time>
      </trkpt>
      <trkpt lat="47.0884" lon="5.79025">
        <ele>283.4</ele>
        <time>2019-05-12T09:52:29Z</time>
      </trkpt>
      <trkpt lat="47.08836" lon="5.7902">
        <ele>283.7</ele>
        <time>2019-05-12T09:52:33Z</time>
      </trkpt>
      <trkpt lat="47.08832" lon="5.79014">
        <ele>284</ele>
        <time>2019-05-12T09:52:37Z</time>
      </trkpt>
      <trkpt lat="47.08829" lon="5.79008">
        <ele>284.5</ele>
        <time>2019-05-12T09:52:41Z</time>
      </trkpt>
      <trkpt lat="47.08824" lon="5.79004">
        <ele>284.7</ele>
        <time>2019-05-12T09:52:46Z</time>
      </trkpt>
      <trkpt lat="47.0882" lon="5.78999">
        <ele>284.8</ele>
        <time>2019-05-12T09:52:50Z</time>
      </trkpt>
      <trkpt lat="47.08817" lon="5.78994">
        <ele>284.7</ele>
        <time>2019-05-12T09:52:54Z</time>
      </trkpt>
      <trkpt lat="47.08813" lon="5.78989">
        <ele>284.6</ele>
        <time>2019-05-12T09:52:59Z</time>
      </trkpt>
      <trkpt lat="47.08809" lon="5.78984">
        <ele>284.6</ele>
        <time>2019-05-12T09:53:03Z</time>
      </trkpt>
      <trkpt lat="47.08805" lon="5.78979">
        <ele>284.7</ele>
        <time>2019-05-12T09:53:07Z</time>
      </trkpt>
      <trkpt lat="47.08801" lon="5.78975">
        <ele>284.8</ele>
        <time>2019-05-12T09:53:11Z</time>
      </trkpt>
      <trkpt lat="47.08797" lon="5.78971">
        <ele>284.9</ele>
        <time>2019-05-12T09:53:15Z</time>
      </trkpt>
      <trkpt lat="47.08793" lon="5.78966">
        <ele>285.1</ele>
        <time>2019-05-12T09:53:19Z</time>
      </trkpt>
      <trkpt lat="47.0879" lon="5.78961">
        <ele>285.3</ele>
        <time>2019-05-12T09:53:23Z</time>
      </trkpt>
      <trkpt lat="47.08787" lon="5.78956">
        <ele>285.3</ele>
        <time>2019-05-12T09:53:26Z</time>
      </trkpt>
      <trkpt lat="47.08783" lon="5.78952">
        <ele>285.3</ele>
        <time>2019-05-12T09:53:30Z</time>
      </trkpt>
      <trkpt lat="47.08778" lon="5.78947">
        <ele>285.3</ele>
        <time>2019-05-12T09:53:34Z</time>
      </trkpt>
      <trkpt lat="47.08775" lon="5.78943">
        <ele>285.2</ele>
        <time>2019-05-12T09:53:38Z</time>
      </trkpt>
      <trkpt lat="47.08771" lon="5.78939">
        <ele>285.2</ele>
        <time>2019-05-12T09:53:42Z</time>
      </trkpt>
      <trkpt lat="47.08762" lon="5.7893">
        <ele>285.7</ele>
        <time>2019-05-12T09:53:50Z</time>
      </trkpt>
      <trkpt lat="47.08758" lon="5.78925">
        <ele>285.9</ele>
        <time>2019-05-12T09:53:54Z</time>
      </trkpt>
      <trkpt lat="47.08755" lon="5.7892">
        <ele>286.2</ele>
        <time>2019-05-12T09:53:58Z</time>
      </trkpt>
      <trkpt lat="47.08751" lon="5.78915">
        <ele>286.2</ele>
        <time>2019-05-12T09:54:04Z</time>
      </trkpt>
      <trkpt lat="47.08746" lon="5.78909">
        <ele>286.3</ele>
        <time>2019-05-12T09:54:08Z</time>
      </trkpt>
      <trkpt lat="47.08732" lon="5.78893">
        <ele>286.4</ele>
        <time>2019-05-12T09:54:21Z</time>
      </trkpt>
      <trkpt lat="47.08728" lon="5.78889">
        <ele>286.5</ele>
        <time>2019-05-12T09:54:25Z</time>
      </trkpt>
      <trkpt lat="47.08724" lon="5.78885">
        <ele>286.7</ele>
        <time>2019-05-12T09:54:29Z</time>
      </trkpt>
      <trkpt lat="47.0872" lon="5.78881">
        <ele>286.7</ele>
        <time>2019-05-12T09:54:33Z</time>
      </trkpt>
      <trkpt lat="47.08716" lon="5.78876">
        <ele>286.5</ele>
        <time>2019-05-12T09:54:38Z</time>
      </trkpt>
      <trkpt lat="47.08712" lon="5.78872">
        <ele>286.4</ele>
        <time>2019-05-12T09:54:42Z</time>
      </trkpt>
      <trkpt lat="47.08708" lon="5.78867">
        <ele>286.2</ele>
        <time>2019-05-12T09:54:48Z</time>
      </trkpt>
      <trkpt lat="47.08704" lon="5.78864">
        <ele>285.9</ele>
        <time>2019-05-12T09:54:52Z</time>
      </trkpt>
      <trkpt lat="47.08699" lon="5.78861">
        <ele>285.6</ele>
        <time>2019-05-12T09:54:56Z</time>
      </trkpt>
      <trkpt lat="47.08694" lon="5.78859">
        <ele>285.3</ele>
        <time>2019-05-12T09:55:00Z</time>
      </trkpt>
      <trkpt lat="47.0869" lon="5.78856">
        <ele>285.2</ele>
        <time>2019-05-12T09:55:04Z</time>
      </trkpt>
      <trkpt lat="47.08686" lon="5.78851">
        <ele>285</ele>
        <time>2019-05-12T09:55:09Z</time>
      </trkpt>
      <trkpt lat="47.08682" lon="5.78846">
        <ele>284.8</ele>
        <time>2019-05-12T09:55:13Z</time>
      </trkpt>
      <trkpt lat="47.08678" lon="5.78841">
        <ele>284.5</ele>
        <time>2019-05-12T09:55:18Z</time>
      </trkpt>
      <trkpt lat="47.08675" lon="5.78836">
        <ele>284.1</ele>
        <time>2019-05-12T09:55:23Z</time>
      </trkpt>
      <trkpt lat="47.08671" lon="5.78832">
        <ele>283.8</ele>
        <time>2019-05-12T09:55:27Z</time>
      </trkpt>
      <trkpt lat="47.08666" lon="5.78829">
        <ele>283.4</ele>
        <time>2019-05-12T09:55:31Z</time>
      </trkpt>
      <trkpt lat="47.08661" lon="5.78826">
        <ele>283.2</ele>
        <time>2019-05-12T09:55:36Z</time>
      </trkpt>
      <trkpt lat="47.08656" lon="5.78824">
        <ele>282.8</ele>
        <time>2019-05-12T09:55:40Z</time>
      </trkpt>
      <trkpt lat="47.08651" lon="5.78822">
        <ele>282.5</ele>
        <time>2019-05-12T09:55:44Z</time>
      </trkpt>
      <trkpt lat="47.08646" lon="5.78819">
        <ele>282.2</ele>
        <time>2019-05-12T09:55:48Z</time>
      </trkpt>
      <trkpt lat="47.08641" lon="5.78816">
        <ele>281.9</ele>
        <time>2019-05-12T09:55:52Z</time>
      </trkpt>
      <trkpt lat="47.08636" lon="5.78813">
        <ele>281.6</ele>
        <time>2019-05-12T09:55:56Z</time>
      </trkpt>
      <trkpt lat="47.08631" lon="5.78812">
        <ele>281.3</ele>
        <time>2019-05-12T09:56:00Z</time>
      </trkpt>
      <trkpt lat="47.08626" lon="5.78812">
        <ele>281</ele>
        <time>2019-05-12T09:56:04Z</time>
      </trkpt>
      <trkpt lat="47.08621" lon="5.78812">
        <ele>280.6</ele>
        <time>2019-05-12T09:56:08Z</time>
      </trkpt>
      <trkpt lat="47.08616" lon="5.78813">
        <ele>279.8</ele>
        <time>2019-05-12T09:56:12Z</time>
      </trkpt>
      <trkpt lat="47.0861" lon="5.78814">
        <ele>279</ele>
        <time>2019-05-12T09:56:16Z</time>
      </trkpt>
      <trkpt lat="47.08606" lon="5.78815">
        <ele>278.3</ele>
        <time>2019-05-12T09:56:19Z</time>
      </trkpt>
      <trkpt lat="47.08601" lon="5.78814">
        <ele>277.7</ele>
        <time>2019-05-12T09:56:23Z</time>
      </trkpt>
      <trkpt lat="47.08596" lon="5.78813">
        <ele>277.3</ele>
        <time>2019-05-12T09:56:27Z</time>
      </trkpt>
      <trkpt lat="47.08591" lon="5.78812">
        <ele>277</ele>
        <time>2019-05-12T09:56:31Z</time>
      </trkpt>
      <trkpt lat="47.08587" lon="5.7881">
        <ele>276.9</ele>
        <time>2019-05-12T09:56:35Z</time>
      </trkpt>
      <trkpt lat="47.08581" lon="5.78808">
        <ele>277.2</ele>
        <time>2019-05-12T09:56:38Z</time>
      </trkpt>
      <trkpt lat="47.08577" lon="5.78806">
        <ele>282.8</ele>
        <time>2019-05-12T09:57:04Z</time>
      </trkpt>
      <trkpt lat="47.08572" lon="5.78803">
        <ele>285.2</ele>
        <time>2019-05-12T09:57:17Z</time>
      </trkpt>
      <trkpt lat="47.08568" lon="5.78797">
        <ele>285.7</ele>
        <time>2019-05-12T09:57:20Z</time>
      </trkpt>
      <trkpt lat="47.08565" lon="5.78793">
        <ele>286.2</ele>
        <time>2019-05-12T09:57:23Z</time>
      </trkpt>
      <trkpt lat="47.08561" lon="5.78789">
        <ele>286.9</ele>
        <time>2019-05-12T09:57:27Z</time>
      </trkpt>
      <trkpt lat="47.08557" lon="5.78786">
        <ele>287.5</ele>
        <time>2019-05-12T09:57:32Z</time>
      </trkpt>
      <trkpt lat="47.08553" lon="5.78782">
        <ele>287.8</ele>
        <time>2019-05-12T09:57:40Z</time>
      </trkpt>
      <trkpt lat="47.0855" lon="5.78778">
        <ele>287.7</ele>
        <time>2019-05-12T09:57:45Z</time>
      </trkpt>
      <trkpt lat="47.08545" lon="5.78775">
        <ele>287.7</ele>
        <time>2019-05-12T09:57:50Z</time>
      </trkpt>
      <trkpt lat="47.08541" lon="5.78772">
        <ele>287.7</ele>
        <time>2019-05-12T09:57:55Z</time>
      </trkpt>
      <trkpt lat="47.08536" lon="5.78769">
        <ele>287.7</ele>
        <time>2019-05-12T09:57:59Z</time>
      </trkpt>
      <trkpt lat="47.08532" lon="5.78766">
        <ele>287.8</ele>
        <time>2019-05-12T09:58:03Z</time>
      </trkpt>
      <trkpt lat="47.08527" lon="5.78763">
        <ele>288.1</ele>
        <time>2019-05-12T09:58:09Z</time>
      </trkpt>
      <trkpt lat="47.08523" lon="5.78759">
        <ele>288.1</ele>
        <time>2019-05-12T09:58:13Z</time>
      </trkpt>
      <trkpt lat="47.08518" lon="5.78756">
        <ele>288.1</ele>
        <time>2019-05-12T09:58:17Z</time>
      </trkpt>
      <trkpt lat="47.08513" lon="5.78754">
        <ele>288.3</ele>
        <time>2019-05-12T09:58:21Z</time>
      </trkpt>
      <trkpt lat="47.08509" lon="5.78752">
        <ele>288.6</ele>
        <time>2019-05-12T09:58:25Z</time>
      </trkpt>
      <trkpt lat="47.08503" lon="5.78749">
        <ele>289</ele>
        <time>2019-05-12T09:58:30Z</time>
      </trkpt>
      <trkpt lat="47.08498" lon="5.78748">
        <ele>289.2</ele>
        <time>2019-05-12T09:58:35Z</time>
      </trkpt>
      <trkpt lat="47.08493" lon="5.78746">
        <ele>289.4</ele>
        <time>2019-05-12T09:58:39Z</time>
      </trkpt>
      <trkpt lat="47.08487" lon="5.78745">
        <ele>289.4</ele>
        <time>2019-05-12T09:58:43Z</time>
      </trkpt>
      <trkpt lat="47.08481" lon="5.78745">
        <ele>289.3</ele>
        <time>2019-05-12T09:58:47Z</time>
      </trkpt>
      <trkpt lat="47.08476" lon="5.78743">
        <ele>288.8</ele>
        <time>2019-05-12T09:58:52Z</time>
      </trkpt>
      <trkpt lat="47.08471" lon="5.78741">
        <ele>288.2</ele>
        <time>2019-05-12T09:58:56Z</time>
      </trkpt>
      <trkpt lat="47.08466" lon="5.78738">
        <ele>287.6</ele>
        <time>2019-05-12T09:59:00Z</time>
      </trkpt>
      <trkpt lat="47.08461" lon="5.78736">
        <ele>287.3</ele>
        <time>2019-05-12T09:59:03Z</time>
      </trkpt>
      <trkpt lat="47.08456" lon="5.78734">
        <ele>287.1</ele>
        <time>2019-05-12T09:59:06Z</time>
      </trkpt>
      <trkpt lat="47.08452" lon="5.78732">
        <ele>286.8</ele>
        <time>2019-05-12T09:59:10Z</time>
      </trkpt>
      <trkpt lat="47.08447" lon="5.78728">
        <ele>286.5</ele>
        <time>2019-05-12T09:59:14Z</time>
      </trkpt>
      <trkpt lat="47.08443" lon="5.78727">
        <ele>286.2</ele>
        <time>2019-05-12T09:59:18Z</time>
      </trkpt>
      <trkpt lat="47.08438" lon="5.78723">
        <ele>285.9</ele>
        <time>2019-05-12T09:59:23Z</time>
      </trkpt>
      <trkpt lat="47.08434" lon="5.78719">
        <ele>286</ele>
        <time>2019-05-12T09:59:28Z</time>
      </trkpt>
      <trkpt lat="47.08429" lon="5.78715">
        <ele>286.1</ele>
        <time>2019-05-12T09:59:32Z</time>
      </trkpt>
      <trkpt lat="47.08425" lon="5.78711">
        <ele>286</ele>
        <time>2019-05-12T09:59:38Z</time>
      </trkpt>
      <trkpt lat="47.08419" lon="5.78709">
        <ele>285.9</ele>
        <time>2019-05-12T09:59:43Z</time>
      </trkpt>
      <trkpt lat="47.08414" lon="5.78708">
        <ele>286.2</ele>
        <time>2019-05-12T09:59:49Z</time>
      </trkpt>
      <trkpt lat="47.08409" lon="5.78704">
        <ele>286.6</ele>
        <time>2019-05-12T09:59:54Z</time>
      </trkpt>
      <trkpt lat="47.08406" lon="5.78699">
        <ele>286.9</ele>
        <time>2019-05-12T09:59:57Z</time>
      </trkpt>
      <trkpt lat="47.08403" lon="5.78693">
        <ele>287.3</ele>
        <time>2019-05-12T10:00:00Z</time>
      </trkpt>
      <trkpt lat="47.08399" lon="5.78689">
        <ele>287.3</ele>
        <time>2019-05-12T10:00:05Z</time>
      </trkpt>
      <trkpt lat="47.08394" lon="5.78688">
        <ele>287</ele>
        <time>2019-05-12T10:00:14Z</time>
      </trkpt>
      <trkpt lat="47.08389" lon="5.78687">
        <ele>286.8</ele>
        <time>2019-05-12T10:00:18Z</time>
      </trkpt>
      <trkpt lat="47.08385" lon="5.78684">
        <ele>286.2</ele>
        <time>2019-05-12T10:00:24Z</time>
      </trkpt>
      <trkpt lat="47.0838" lon="5.78682">
        <ele>284.9</ele>
        <time>2019-05-12T10:00:31Z</time>
      </trkpt>
      <trkpt lat="47.08375" lon="5.78679">
        <ele>283.9</ele>
        <time>2019-05-12T10:00:34Z</time>
      </trkpt>
      <trkpt lat="47.0837" lon="5.78676">
        <ele>282.5</ele>
        <time>2019-05-12T10:00:38Z</time>
      </trkpt>
      <trkpt lat="47.08365" lon="5.78673">
        <ele>281.2</ele>
        <time>2019-05-12T10:00:42Z</time>
      </trkpt>
      <trkpt lat="47.08361" lon="5.7867">
        <ele>279.5</ele>
        <time>2019-05-12T10:00:49Z</time>
      </trkpt>
      <trkpt lat="47.08358" lon="5.78665">
        <ele>278.6</ele>
        <time>2019-05-12T10:00:54Z</time>
      </trkpt>
      <trkpt lat="47.08355" lon="5.7866">
        <ele>277.9</ele>
        <time>2019-05-12T10:00:58Z</time>
      </trkpt>
      <trkpt lat="47.08343" lon="5.78642">
        <ele>275.7</ele>
        <time>2019-05-12T10:01:07Z</time>
      </trkpt>
      <trkpt lat="47.0834" lon="5.78636">
        <ele>275.5</ele>
        <time>2019-05-12T10:01:12Z</time>
      </trkpt>
      <trkpt lat="47.08335" lon="5.78631">
        <ele>275.4</ele>
        <time>2019-05-12T10:01:18Z</time>
      </trkpt>
      <trkpt lat="47.08331" lon="5.78628">
        <ele>275.3</ele>
        <time>2019-05-12T10:01:24Z</time>
      </trkpt>
      <trkpt lat="47.08325" lon="5.7862">
        <ele>275.1</ele>
        <time>2019-05-12T10:01:30Z</time>
      </trkpt>
      <trkpt lat="47.0832" lon="5.78615">
        <ele>275.2</ele>
        <time>2019-05-12T10:01:32Z</time>
      </trkpt>
      <trkpt lat="47.08315" lon="5.78611">
        <ele>275.3</ele>
        <time>2019-05-12T10:01:35Z</time>
      </trkpt>
      <trkpt lat="47.08311" lon="5.78607">
        <ele>275.4</ele>
        <time>2019-05-12T10:01:39Z</time>
      </trkpt>
      <trkpt lat="47.08302" lon="5.78594">
        <ele>274.7</ele>
        <time>2019-05-12T10:01:56Z</time>
      </trkpt>
      <trkpt lat="47.08298" lon="5.78591">
        <ele>274.5</ele>
        <time>2019-05-12T10:01:59Z</time>
      </trkpt>
      <trkpt lat="47.08292" lon="5.78586">
        <ele>274.4</ele>
        <time>2019-05-12T10:02:02Z</time>
      </trkpt>
      <trkpt lat="47.08288" lon="5.78582">
        <ele>274.3</ele>
        <time>2019-05-12T10:02:05Z</time>
      </trkpt>
      <trkpt lat="47.08284" lon="5.78577">
        <ele>274.3</ele>
        <time>2019-05-12T10:02:07Z</time>
      </trkpt>
      <trkpt lat="47.08281" lon="5.78572">
        <ele>274.4</ele>
        <time>2019-05-12T10:02:13Z</time>
      </trkpt>
      <trkpt lat="47.08277" lon="5.78568">
        <ele>274.9</ele>
        <time>2019-05-12T10:02:25Z</time>
      </trkpt>
      <trkpt lat="47.08273" lon="5.78565">
        <ele>275.5</ele>
        <time>2019-05-12T10:02:31Z</time>
      </trkpt>
      <trkpt lat="47.08268" lon="5.78563">
        <ele>276</ele>
        <time>2019-05-12T10:02:35Z</time>
      </trkpt>
      <trkpt lat="47.0826" lon="5.78551">
        <ele>277.8</ele>
        <time>2019-05-12T10:02:55Z</time>
      </trkpt>
      <trkpt lat="47.08256" lon="5.78548">
        <ele>277.7</ele>
        <time>2019-05-12T10:02:59Z</time>
      </trkpt>
      <trkpt lat="47.08252" lon="5.78544">
        <ele>277</ele>
        <time>2019-05-12T10:03:06Z</time>
      </trkpt>
      <trkpt lat="47.08248" lon="5.7854">
        <ele>276.3</ele>
        <time>2019-05-12T10:03:11Z</time>
      </trkpt>
      <trkpt lat="47.08244" lon="5.78536">
        <ele>275.4</ele>
        <time>2019-05-12T10:03:17Z</time>
      </trkpt>
      <trkpt lat="47.0824" lon="5.78531">
        <ele>275</ele>
        <time>2019-05-12T10:03:21Z</time>
      </trkpt>
      <trkpt lat="47.08234" lon="5.78526">
        <ele>274.6</ele>
        <time>2019-05-12T10:03:25Z</time>
      </trkpt>
      <trkpt lat="47.0823" lon="5.78521">
        <ele>274.2</ele>
        <time>2019-05-12T10:03:29Z</time>
      </trkpt>
      <trkpt lat="47.08224" lon="5.78516">
        <ele>273.8</ele>
        <time>2019-05-12T10:03:33Z</time>
      </trkpt>
      <trkpt lat="47.08218" lon="5.78509">
        <ele>273.6</ele>
        <time>2019-05-12T10:03:35Z</time>
      </trkpt>
      <trkpt lat="47.08213" lon="5.78503">
        <ele>273.4</ele>
        <time>2019-05-12T10:03:38Z</time>
      </trkpt>
      <trkpt lat="47.08209" lon="5.785">
        <ele>273.1</ele>
        <time>2019-05-12T10:03:40Z</time>
      </trkpt>
      <trkpt lat="47.08204" lon="5.78497">
        <ele>272.5</ele>
        <time>2019-05-12T10:03:44Z</time>
      </trkpt>
      <trkpt lat="47.08201" lon="5.78493">
        <ele>272</ele>
        <time>2019-05-12T10:03:48Z</time>
      </trkpt>
      <trkpt lat="47.08196" lon="5.78489">
        <ele>271.7</ele>
        <time>2019-05-12T10:03:52Z</time>
      </trkpt>
      <trkpt lat="47.08193" lon="5.78485">
        <ele>271.7</ele>
        <time>2019-05-12T10:03:57Z</time>
      </trkpt>
      <trkpt lat="47.08189" lon="5.7848">
        <ele>272</ele>
        <time>2019-05-12T10:04:02Z</time>
      </trkpt>
      <trkpt lat="47.08184" lon="5.78475">
        <ele>272.5</ele>
        <time>2019-05-12T10:04:07Z</time>
      </trkpt>
      <trkpt lat="47.08179" lon="5.78471">
        <ele>272.9</ele>
        <time>2019-05-12T10:04:12Z</time>
      </trkpt>
      <trkpt lat="47.08175" lon="5.78467">
        <ele>273.4</ele>
        <time>2019-05-12T10:04:15Z</time>
      </trkpt>
      <trkpt lat="47.08171" lon="5.78463">
        <ele>274.5</ele>
        <time>2019-05-12T10:04:21Z</time>
      </trkpt>
      <trkpt lat="47.08167" lon="5.78458">
        <ele>275.3</ele>
        <time>2019-05-12T10:04:25Z</time>
      </trkpt>
      <trkpt lat="47.08163" lon="5.78452">
        <ele>276.4</ele>
        <time>2019-05-12T10:04:31Z</time>
      </trkpt>
      <trkpt lat="47.08159" lon="5.78446">
        <ele>276.6</ele>
        <time>2019-05-12T10:04:37Z</time>
      </trkpt>
      <trkpt lat="47.08148" lon="5.78429">
        <ele>275.7</ele>
        <time>2019-05-12T10:05:00Z</time>
      </trkpt>
      <trkpt lat="47.08144" lon="5.78424">
        <ele>275.5</ele>
        <time>2019-05-12T10:05:07Z</time>
      </trkpt>
      <trkpt lat="47.08118" lon="5.78396">
        <ele>275.9</ele>
        <time>2019-05-12T10:05:20Z</time>
      </trkpt>
      <trkpt lat="47.08114" lon="5.78391">
        <ele>275.8</ele>
        <time>2019-05-12T10:05:22Z</time>
      </trkpt>
      <trkpt lat="47.08108" lon="5.78385">
        <ele>275.5</ele>
        <time>2019-05-12T10:05:25Z</time>
      </trkpt>
      <trkpt lat="47.08103" lon="5.78379">
        <ele>275.2</ele>
        <time>2019-05-12T10:05:27Z</time>
      </trkpt>
      <trkpt lat="47.08099" lon="5.78375">
        <ele>274.9</ele>
        <time>2019-05-12T10:05:29Z</time>
      </trkpt>
      <trkpt lat="47.08095" lon="5.78369">
        <ele>274.4</ele>
        <time>2019-05-12T10:05:33Z</time>
      </trkpt>
      <trkpt lat="47.08088" lon="5.78364">
        <ele>274.1</ele>
        <time>2019-05-12T10:05:36Z</time>
      </trkpt>
      <trkpt lat="47.08084" lon="5.78361">
        <ele>273.8</ele>
        <time>2019-05-12T10:05:44Z</time>
      </trkpt>
      <trkpt lat="47.08078" lon="5.78352">
        <ele>274.1</ele>
        <time>2019-05-12T10:05:57Z</time>
      </trkpt>
      <trkpt lat="47.08073" lon="5.78347">
        <ele>274.1</ele>
        <time>2019-05-12T10:05:59Z</time>
      </trkpt>
      <trkpt lat="47.08069" lon="5.78341">
        <ele>274.2</ele>
        <time>2019-05-12T10:06:01Z</time>
      </trkpt>
      <trkpt lat="47.08065" lon="5.78337">
        <ele>274.4</ele>
        <time>2019-05-12T10:06:05Z</time>
      </trkpt>
      <trkpt lat="47.08061" lon="5.78331">
        <ele>274.8</ele>
        <time>2019-05-12T10:06:09Z</time>
      </trkpt>
      <trkpt lat="47.08057" lon="5.78327">
        <ele>275.1</ele>
        <time>2019-05-12T10:06:11Z</time>
      </trkpt>
      <trkpt lat="47.08051" lon="5.78322">
        <ele>275.4</ele>
        <time>2019-05-12T10:06:13Z</time>
      </trkpt>
      <trkpt lat="47.08035" lon="5.78307">
        <ele>278.7</ele>
        <time>2019-05-12T10:06:26Z</time>
      </trkpt>
      <trkpt lat="47.08027" lon="5.78299">
        <ele>279.7</ele>
        <time>2019-05-12T10:06:51Z</time>
      </trkpt>
      <trkpt lat="47.08026" lon="5.78292">
        <ele>279.1</ele>
        <time>2019-05-12T10:07:02Z</time>
      </trkpt>
      <trkpt lat="47.08022" lon="5.78287">
        <ele>277.6</ele>
        <time>2019-05-12T10:07:14Z</time>
      </trkpt>
      <trkpt lat="47.08007" lon="5.78275">
        <ele>275.9</ele>
        <time>2019-05-12T10:07:29Z</time>
      </trkpt>
      <trkpt lat="47.08003" lon="5.78271">
        <ele>275.8</ele>
        <time>2019-05-12T10:07:31Z</time>
      </trkpt>
      <trkpt lat="47.07987" lon="5.78254">
        <ele>275.2</ele>
        <time>2019-05-12T10:07:40Z</time>
      </trkpt>
      <trkpt lat="47.07982" lon="5.78248">
        <ele>275.1</ele>
        <time>2019-05-12T10:07:42Z</time>
      </trkpt>
      <trkpt lat="47.07966" lon="5.78228">
        <ele>274.4</ele>
        <time>2019-05-12T10:07:49Z</time>
      </trkpt>
      <trkpt lat="47.07962" lon="5.78225">
        <ele>274.3</ele>
        <time>2019-05-12T10:07:51Z</time>
      </trkpt>
      <trkpt lat="47.07957" lon="5.78222">
        <ele>274</ele>
        <time>2019-05-12T10:07:56Z</time>
      </trkpt>
      <trkpt lat="47.07952" lon="5.78217">
        <ele>273.7</ele>
        <time>2019-05-12T10:08:01Z</time>
      </trkpt>
      <trkpt lat="47.07947" lon="5.78213">
        <ele>273.5</ele>
        <time>2019-05-12T10:08:04Z</time>
      </trkpt>
      <trkpt lat="47.07938" lon="5.78204">
        <ele>272.2</ele>
        <time>2019-05-12T10:08:26Z</time>
      </trkpt>
      <trkpt lat="47.07925" lon="5.78191">
        <ele>270.9</ele>
        <time>2019-05-12T10:08:37Z</time>
      </trkpt>
      <trkpt lat="47.07921" lon="5.78186">
        <ele>270.5</ele>
        <time>2019-05-12T10:08:39Z</time>
      </trkpt>
      <trkpt lat="47.07917" lon="5.78182">
        <ele>270.2</ele>
        <time>2019-05-12T10:08:41Z</time>
      </trkpt>
      <trkpt lat="47.07913" lon="5.78175">
        <ele>269.3</ele>
        <time>2019-05-12T10:08:46Z</time>
      </trkpt>
      <trkpt lat="47.07907" lon="5.78173">
        <ele>268.9</ele>
        <time>2019-05-12T10:08:48Z</time>
      </trkpt>
      <trkpt lat="47.07904" lon="5.78168">
        <ele>268.6</ele>
        <time>2019-05-12T10:08:51Z</time>
      </trkpt>
      <trkpt lat="47.07891" lon="5.78162">
        <ele>266.9</ele>
        <time>2019-05-12T10:09:12Z</time>
      </trkpt>
      <trkpt lat="47.07881" lon="5.78159">
        <ele>268.8</ele>
        <time>2019-05-12T10:11:05Z</time>
      </trkpt>
      <trkpt lat="47.07871" lon="5.78162">
        <ele>272.2</ele>
        <time>2019-05-12T10:11:42Z</time>
      </trkpt>
      <trkpt lat="47.07867" lon="5.78167">
        <ele>272.9</ele>
        <time>2019-05-12T10:11:46Z</time>
      </trkpt>
      <trkpt lat="47.07862" lon="5.7817">
        <ele>274.2</ele>
        <time>2019-05-12T10:11:51Z</time>
      </trkpt>
      <trkpt lat="47.07858" lon="5.78173">
        <ele>275.6</ele>
        <time>2019-05-12T10:11:56Z</time>
      </trkpt>
      <trkpt lat="47.07855" lon="5.78178">
        <ele>276.7</ele>
        <time>2019-05-12T10:11:59Z</time>
      </trkpt>
      <trkpt lat="47.07851" lon="5.78182">
        <ele>278.1</ele>
        <time>2019-05-12T10:12:03Z</time>
      </trkpt>
      <trkpt lat="47.07847" lon="5.78187">
        <ele>279.1</ele>
        <time>2019-05-12T10:12:06Z</time>
      </trkpt>
      <trkpt lat="47.07839" lon="5.78199">
        <ele>282.1</ele>
        <time>2019-05-12T10:12:16Z</time>
      </trkpt>
      <trkpt lat="47.07833" lon="5.78203">
        <ele>282.5</ele>
        <time>2019-05-12T10:12:21Z</time>
      </trkpt>
      <trkpt lat="47.07828" lon="5.78206">
        <ele>282.7</ele>
        <time>2019-05-12T10:12:25Z</time>
      </trkpt>
      <trkpt lat="47.07823" lon="5.78207">
        <ele>283.1</ele>
        <time>2019-05-12T10:12:33Z</time>
      </trkpt>
      <trkpt lat="47.07817" lon="5.78209">
        <ele>283.6</ele>
        <time>2019-05-12T10:12:36Z</time>
      </trkpt>
      <trkpt lat="47.07812" lon="5.78211">
        <ele>284.1</ele>
        <time>2019-05-12T10:12:39Z</time>
      </trkpt>
      <trkpt lat="47.07807" lon="5.78213">
        <ele>284.5</ele>
        <time>2019-05-12T10:12:41Z</time>
      </trkpt>
      <trkpt lat="47.07802" lon="5.78214">
        <ele>285.1</ele>
        <time>2019-05-12T10:12:44Z</time>
      </trkpt>
      <trkpt lat="47.07797" lon="5.78213">
        <ele>285.8</ele>
        <time>2019-05-12T10:12:48Z</time>
      </trkpt>
      <trkpt lat="47.07792" lon="5.78213">
        <ele>286.9</ele>
        <time>2019-05-12T10:12:53Z</time>
      </trkpt>
      <trkpt lat="47.07787" lon="5.78214">
        <ele>288.3</ele>
        <time>2019-05-12T10:12:58Z</time>
      </trkpt>
      <trkpt lat="47.07782" lon="5.78215">
        <ele>289.7</ele>
        <time>2019-05-12T10:13:03Z</time>
      </trkpt>
      <trkpt lat="47.07777" lon="5.78215">
        <ele>291.1</ele>
        <time>2019-05-12T10:13:07Z</time>
      </trkpt>
      <trkpt lat="47.07773" lon="5.78215">
        <ele>292.8</ele>
        <time>2019-05-12T10:13:13Z</time>
      </trkpt>
      <trkpt lat="47.07768" lon="5.78216">
        <ele>294</ele>
        <time>2019-05-12T10:13:18Z</time>
      </trkpt>
      <trkpt lat="47.07763" lon="5.78217">
        <ele>295.1</ele>
        <time>2019-05-12T10:13:23Z</time>
      </trkpt>
      <trkpt lat="47.07758" lon="5.78218">
        <ele>295.8</ele>
        <time>2019-05-12T10:13:27Z</time>
      </trkpt>
      <trkpt lat="47.07753" lon="5.7822">
        <ele>296.5</ele>
        <time>2019-05-12T10:13:30Z</time>
      </trkpt>
      <trkpt lat="47.07748" lon="5.78221">
        <ele>297.4</ele>
        <time>2019-05-12T10:13:33Z</time>
      </trkpt>
      <trkpt lat="47.07743" lon="5.78222">
        <ele>298.3</ele>
        <time>2019-05-12T10:13:36Z</time>
      </trkpt>
      <trkpt lat="47.07738" lon="5.78224">
        <ele>299.4</ele>
        <time>2019-05-12T10:13:39Z</time>
      </trkpt>
      <trkpt lat="47.07734" lon="5.78224">
        <ele>300.5</ele>
        <time>2019-05-12T10:13:42Z</time>
      </trkpt>
      <trkpt lat="47.07728" lon="5.78225">
        <ele>301.9</ele>
        <time>2019-05-12T10:13:46Z</time>
      </trkpt>
      <trkpt lat="47.07723" lon="5.78227">
        <ele>303.6</ele>
        <time>2019-05-12T10:13:51Z</time>
      </trkpt>
      <trkpt lat="47.07718" lon="5.78226">
        <ele>305.8</ele>
        <time>2019-05-12T10:13:59Z</time>
      </trkpt>
      <trkpt lat="47.07713" lon="5.78225">
        <ele>307</ele>
        <time>2019-05-12T10:14:05Z</time>
      </trkpt>
      <trkpt lat="47.0771" lon="5.7822">
        <ele>307.7</ele>
        <time>2019-05-12T10:14:13Z</time>
      </trkpt>
      <trkpt lat="47.07708" lon="5.78214">
        <ele>307</ele>
        <time>2019-05-12T10:14:20Z</time>
      </trkpt>
      <trkpt lat="47.07703" lon="5.78213">
        <ele>306.7</ele>
        <time>2019-05-12T10:14:24Z</time>
      </trkpt>
      <trkpt lat="47.07697" lon="5.78213">
        <ele>306.5</ele>
        <time>2019-05-12T10:14:28Z</time>
      </trkpt>
      <trkpt lat="47.07692" lon="5.78211">
        <ele>306.5</ele>
        <time>2019-05-12T10:14:32Z</time>
      </trkpt>
      <trkpt lat="47.07687" lon="5.7821">
        <ele>307</ele>
        <time>2019-05-12T10:14:37Z</time>
      </trkpt>
      <trkpt lat="47.07682" lon="5.7821">
        <ele>307.3</ele>
        <time>2019-05-12T10:14:41Z</time>
      </trkpt>
      <trkpt lat="47.07676" lon="5.78211">
        <ele>307.6</ele>
        <time>2019-05-12T10:14:44Z</time>
      </trkpt>
      <trkpt lat="47.07671" lon="5.78213">
        <ele>307.8</ele>
        <time>2019-05-12T10:14:47Z</time>
      </trkpt>
      <trkpt lat="47.07666" lon="5.78213">
        <ele>308.2</ele>
        <time>2019-05-12T10:14:52Z</time>
      </trkpt>
      <trkpt lat="47.07661" lon="5.78213">
        <ele>308.5</ele>
        <time>2019-05-12T10:14:57Z</time>
      </trkpt>
      <trkpt lat="47.07656" lon="5.78213">
        <ele>308.6</ele>
        <time>2019-05-12T10:15:01Z</time>
      </trkpt>
      <trkpt lat="47.07651" lon="5.78214">
        <ele>308.3</ele>
        <time>2019-05-12T10:15:07Z</time>
      </trkpt>
      <trkpt lat="47.07646" lon="5.78214">
        <ele>308.1</ele>
        <time>2019-05-12T10:15:11Z</time>
      </trkpt>
      <trkpt lat="47.07641" lon="5.78214">
        <ele>308</ele>
        <time>2019-05-12T10:15:14Z</time>
      </trkpt>
      <trkpt lat="47.07635" lon="5.78214">
        <ele>307.9</ele>
        <time>2019-05-12T10:15:17Z</time>
      </trkpt>
      <trkpt lat="47.0763" lon="5.78214">
        <ele>307.6</ele>
        <time>2019-05-12T10:15:22Z</time>
      </trkpt>
      <trkpt lat="47.07625" lon="5.78214">
        <ele>307.5</ele>
        <time>2019-05-12T10:15:26Z</time>
      </trkpt>
      <trkpt lat="47.0762" lon="5.78214">
        <ele>307.5</ele>
        <time>2019-05-12T10:15:31Z</time>
      </trkpt>
      <trkpt lat="47.07616" lon="5.78211">
        <ele>307.6</ele>
        <time>2019-05-12T10:15:36Z</time>
      </trkpt>
      <trkpt lat="47.0761" lon="5.78209">
        <ele>307.7</ele>
        <time>2019-05-12T10:15:40Z</time>
      </trkpt>
      <trkpt lat="47.07606" lon="5.78209">
        <ele>307.8</ele>
        <time>2019-05-12T10:15:44Z</time>
      </trkpt>
      <trkpt lat="47.076" lon="5.78209">
        <ele>308.1</ele>
        <time>2019-05-12T10:15:49Z</time>
      </trkpt>
      <trkpt lat="47.07596" lon="5.78205">
        <ele>308.1</ele>
        <time>2019-05-12T10:15:53Z</time>
      </trkpt>
      <trkpt lat="47.07591" lon="5.78202">
        <ele>307.8</ele>
        <time>2019-05-12T10:15:57Z</time>
      </trkpt>
      <trkpt lat="47.07585" lon="5.78202">
        <ele>307.1</ele>
        <time>2019-05-12T10:16:01Z</time>
      </trkpt>
      <trkpt lat="47.0758" lon="5.782">
        <ele>306.3</ele>
        <time>2019-05-12T10:16:06Z</time>
      </trkpt>
      <trkpt lat="47.07576" lon="5.78198">
        <ele>305.6</ele>
        <time>2019-05-12T10:16:10Z</time>
      </trkpt>
      <trkpt lat="47.07571" lon="5.78196">
        <ele>305</ele>
        <time>2019-05-12T10:16:13Z</time>
      </trkpt>
      <trkpt lat="47.07567" lon="5.78193">
        <ele>304</ele>
        <time>2019-05-12T10:16:18Z</time>
      </trkpt>
      <trkpt lat="47.07562" lon="5.78191">
        <ele>303.2</ele>
        <time>2019-05-12T10:16:22Z</time>
      </trkpt>
      <trkpt lat="47.07557" lon="5.7819">
        <ele>302.4</ele>
        <time>2019-05-12T10:16:27Z</time>
      </trkpt>
      <trkpt lat="47.07552" lon="5.78186">
        <ele>301.3</ele>
        <time>2019-05-12T10:16:32Z</time>
      </trkpt>
      <trkpt lat="47.07547" lon="5.78185">
        <ele>300.1</ele>
        <time>2019-05-12T10:16:36Z</time>
      </trkpt>
      <trkpt lat="47.07542" lon="5.78183">
        <ele>296.9</ele>
        <time>2019-05-12T10:16:45Z</time>
      </trkpt>
      <trkpt lat="47.07537" lon="5.78182">
        <ele>294.9</ele>
        <time>2019-05-12T10:16:50Z</time>
      </trkpt>
      <trkpt lat="47.07532" lon="5.78182">
        <ele>292</ele>
        <time>2019-05-12T10:16:56Z</time>
      </trkpt>
      <trkpt lat="47.07528" lon="5.78183">
        <ele>287.7</ele>
        <time>2019-05-12T10:17:04Z</time>
      </trkpt>
      <trkpt lat="47.07523" lon="5.78183">
        <ele>282.2</ele>
        <time>2019-05-12T10:17:13Z</time>
      </trkpt>
      <trkpt lat="47.07517" lon="5.78181">
        <ele>278.1</ele>
        <time>2019-05-12T10:17:19Z</time>
      </trkpt>
      <trkpt lat="47.07513" lon="5.7818">
        <ele>275.8</ele>
        <time>2019-05-12T10:17:22Z</time>
      </trkpt>
      <trkpt lat="47.07508" lon="5.78177">
        <ele>273.6</ele>
        <time>2019-05-12T10:17:25Z</time>
      </trkpt>
      <trkpt lat="47.07503" lon="5.78175">
        <ele>271.5</ele>
        <time>2019-05-12T10:17:28Z</time>
      </trkpt>
      <trkpt lat="47.07498" lon="5.78173">
        <ele>268.8</ele>
        <time>2019-05-12T10:17:32Z</time>
      </trkpt>
      <trkpt lat="47.07493" lon="5.7817">
        <ele>266.3</ele>
        <time>2019-05-12T10:17:36Z</time>
      </trkpt>
      <trkpt lat="47.07489" lon="5.78167">
        <ele>265</ele>
        <time>2019-05-12T10:17:39Z</time>
      </trkpt>
      <trkpt lat="47.07484" lon="5.78164">
        <ele>264.6</ele>
        <time>2019-05-12T10:17:42Z</time>
      </trkpt>
      <trkpt lat="47.07477" lon="5.7816">
        <ele>264.7</ele>
        <time>2019-05-12T10:17:45Z</time>
      </trkpt>
      <trkpt lat="47.07473" lon="5.78159">
        <ele>265</ele>
        <time>2019-05-12T10:17:47Z</time>
      </trkpt>
      <trkpt lat="47.07468" lon="5.78157">
        <ele>265.7</ele>
        <time>2019-05-12T10:17:50Z</time>
      </trkpt>
      <trkpt lat="47.07463" lon="5.78155">
        <ele>266.2</ele>
        <time>2019-05-12T10:17:52Z</time>
      </trkpt>
      <trkpt lat="47.07457" lon="5.78152">
        <ele>267</ele>
        <time>2019-05-12T10:17:55Z</time>
      </trkpt>
      <trkpt lat="47.07453" lon="5.78151">
        <ele>268</ele>
        <time>2019-05-12T10:17:58Z</time>
      </trkpt>
      <trkpt lat="47.07448" lon="5.78149">
        <ele>269.9</ele>
        <time>2019-05-12T10:18:03Z</time>
      </trkpt>
      <trkpt lat="47.07444" lon="5.78148">
        <ele>271.4</ele>
        <time>2019-05-12T10:18:07Z</time>
      </trkpt>
      <trkpt lat="47.07438" lon="5.78149">
        <ele>273.2</ele>
        <time>2019-05-12T10:18:12Z</time>
      </trkpt>
      <trkpt lat="47.07434" lon="5.78148">
        <ele>274.4</ele>
        <time>2019-05-12T10:18:15Z</time>
      </trkpt>
      <trkpt lat="47.07429" lon="5.78147">
        <ele>276.1</ele>
        <time>2019-05-12T10:18:19Z</time>
      </trkpt>
      <trkpt lat="47.07424" lon="5.78145">
        <ele>277.6</ele>
        <time>2019-05-12T10:18:23Z</time>
      </trkpt>
      <trkpt lat="47.07419" lon="5.78144">
        <ele>279.1</ele>
        <time>2019-05-12T10:18:27Z</time>
      </trkpt>
      <trkpt lat="47.07414" lon="5.78145">
        <ele>280.4</ele>
        <time>2019-05-12T10:18:32Z</time>
      </trkpt>
      <trkpt lat="47.07409" lon="5.78147">
        <ele>281.1</ele>
        <time>2019-05-12T10:18:35Z</time>
      </trkpt>
      <trkpt lat="47.07405" lon="5.78146">
        <ele>282.1</ele>
        <time>2019-05-12T10:18:42Z</time>
      </trkpt>
      <trkpt lat="47.074" lon="5.78146">
        <ele>282.6</ele>
        <time>2019-05-12T10:18:48Z</time>
      </trkpt>
      <trkpt lat="47.07395" lon="5.78147">
        <ele>282.8</ele>
        <time>2019-05-12T10:18:53Z</time>
      </trkpt>
      <trkpt lat="47.07389" lon="5.78148">
        <ele>282.7</ele>
        <time>2019-05-12T10:18:58Z</time>
      </trkpt>
      <trkpt lat="47.07385" lon="5.78149">
        <ele>282.4</ele>
        <time>2019-05-12T10:19:03Z</time>
      </trkpt>
      <trkpt lat="47.0738" lon="5.78151">
        <ele>282.3</ele>
        <time>2019-05-12T10:19:06Z</time>
      </trkpt>
      <trkpt lat="47.07375" lon="5.78153">
        <ele>282</ele>
        <time>2019-05-12T10:19:10Z</time>
      </trkpt>
      <trkpt lat="47.07371" lon="5.78155">
        <ele>281.4</ele>
        <time>2019-05-12T10:19:15Z</time>
      </trkpt>
      <trkpt lat="47.07365" lon="5.78156">
        <ele>280.6</ele>
        <time>2019-05-12T10:19:20Z</time>
      </trkpt>
      <trkpt lat="47.0736" lon="5.78157">
        <ele>279.5</ele>
        <time>2019-05-12T10:19:25Z</time>
      </trkpt>
      <trkpt lat="47.07355" lon="5.78157">
        <ele>277.7</ele>
        <time>2019-05-12T10:19:32Z</time>
      </trkpt>
      <trkpt lat="47.07351" lon="5.78156">
        <ele>276.2</ele>
        <time>2019-05-12T10:19:38Z</time>
      </trkpt>
      <trkpt lat="47.07346" lon="5.78157">
        <ele>274.9</ele>
        <time>2019-05-12T10:19:43Z</time>
      </trkpt>
      <trkpt lat="47.07342" lon="5.7816">
        <ele>273.4</ele>
        <time>2019-05-12T10:19:48Z</time>
      </trkpt>
      <trkpt lat="47.07337" lon="5.78165">
        <ele>271.1</ele>
        <time>2019-05-12T10:19:54Z</time>
      </trkpt>
      <trkpt lat="47.07332" lon="5.78167">
        <ele>269.3</ele>
        <time>2019-05-12T10:19:58Z</time>
      </trkpt>
      <trkpt lat="47.07326" lon="5.78169">
        <ele>268</ele>
        <time>2019-05-12T10:20:01Z</time>
      </trkpt>
      <trkpt lat="47.07321" lon="5.7817">
        <ele>266.8</ele>
        <time>2019-05-12T10:20:04Z</time>
      </trkpt>
      <trkpt lat="47.07316" lon="5.7817">
        <ele>265.3</ele>
        <time>2019-05-12T10:20:08Z</time>
      </trkpt>
      <trkpt lat="47.07309" lon="5.78171">
        <ele>264.2</ele>
        <time>2019-05-12T10:20:11Z</time>
      </trkpt>
      <trkpt lat="47.07305" lon="5.78173">
        <ele>263.3</ele>
        <time>2019-05-12T10:20:14Z</time>
      </trkpt>
      <trkpt lat="47.07299" lon="5.78173">
        <ele>262.6</ele>
        <time>2019-05-12T10:20:17Z</time>
      </trkpt>
      <trkpt lat="47.07294" lon="5.78172">
        <ele>262</ele>
        <time>2019-05-12T10:20:21Z</time>
      </trkpt>
      <trkpt lat="47.07284" lon="5.78176">
        <ele>262.6</ele>
        <time>2019-05-12T10:20:30Z</time>
      </trkpt>
      <trkpt lat="47.07279" lon="5.78183">
        <ele>263.1</ele>
        <time>2019-05-12T10:20:34Z</time>
      </trkpt>
      <trkpt lat="47.07275" lon="5.78186">
        <ele>264.1</ele>
        <time>2019-05-12T10:20:37Z</time>
      </trkpt>
      <trkpt lat="47.0727" lon="5.78187">
        <ele>265.5</ele>
        <time>2019-05-12T10:20:40Z</time>
      </trkpt>
      <trkpt lat="47.07265" lon="5.78189">
        <ele>266.9</ele>
        <time>2019-05-12T10:20:43Z</time>
      </trkpt>
      <trkpt lat="47.07257" lon="5.78193">
        <ele>271.9</ele>
        <time>2019-05-12T10:20:55Z</time>
      </trkpt>
      <trkpt lat="47.0725" lon="5.78193">
        <ele>277.8</ele>
        <time>2019-05-12T10:21:35Z</time>
      </trkpt>
      <trkpt lat="47.07245" lon="5.78195">
        <ele>282.2</ele>
        <time>2019-05-12T10:22:39Z</time>
      </trkpt>
      <trkpt lat="47.07254" lon="5.7819">
        <ele>281.6</ele>
        <time>2019-05-12T10:22:56Z</time>
      </trkpt>
      <trkpt lat="47.07249" lon="5.78176">
        <ele>296.6</ele>
        <time>2019-05-12T11:08:21Z</time>
      </trkpt>
      <trkpt lat="47.07245" lon="5.78184">
        <ele>278.5</ele>
        <time>2019-05-12T11:14:10Z</time>
      </trkpt>
      <trkpt lat="47.07243" lon="5.7819">
        <ele>278.4</ele>
        <time>2019-05-12T11:14:14Z</time>
      </trkpt>
      <trkpt lat="47.07245" lon="5.78185">
        <ele>278.4</ele>
        <time>2019-05-12T11:15:22Z</time>
      </trkpt>
      <trkpt lat="47.07242" lon="5.78187">
        <ele>273.4</ele>
        <time>2019-05-12T11:16:45Z</time>
      </trkpt>
      <trkpt lat="47.07237" lon="5.78182">
        <ele>267.9</ele>
        <time>2019-05-12T11:17:30Z</time>
      </trkpt>
      <trkpt lat="47.07232" lon="5.78183">
        <ele>268.1</ele>
        <time>2019-05-12T11:17:35Z</time>
      </trkpt>
      <trkpt lat="47.07227" lon="5.78187">
        <ele>268.7</ele>
        <time>2019-05-12T11:17:41Z</time>
      </trkpt>
      <trkpt lat="47.07223" lon="5.7819">
        <ele>269.8</ele>
        <time>2019-05-12T11:17:47Z</time>
      </trkpt>
      <trkpt lat="47.07218" lon="5.78191">
        <ele>272</ele>
        <time>2019-05-12T11:17:55Z</time>
      </trkpt>
      <trkpt lat="47.07214" lon="5.78193">
        <ele>273.2</ele>
        <time>2019-05-12T11:17:59Z</time>
      </trkpt>
      <trkpt lat="47.0721" lon="5.78195">
        <ele>274.9</ele>
        <time>2019-05-12T11:18:04Z</time>
      </trkpt>
      <trkpt lat="47.07206" lon="5.78198">
        <ele>276</ele>
        <time>2019-05-12T11:18:08Z</time>
      </trkpt>
      <trkpt lat="47.07202" lon="5.78203">
        <ele>277</ele>
        <time>2019-05-12T11:18:12Z</time>
      </trkpt>
      <trkpt lat="47.07197" lon="5.78206">
        <ele>278.1</ele>
        <time>2019-05-12T11:18:17Z</time>
      </trkpt>
      <trkpt lat="47.07192" lon="5.78207">
        <ele>279</ele>
        <time>2019-05-12T11:18:20Z</time>
      </trkpt>
      <trkpt lat="47.07186" lon="5.78206">
        <ele>280.4</ele>
        <time>2019-05-12T11:18:24Z</time>
      </trkpt>
      <trkpt lat="47.07181" lon="5.78206">
        <ele>282</ele>
        <time>2019-05-12T11:18:28Z</time>
      </trkpt>
      <trkpt lat="47.07177" lon="5.78207">
        <ele>283.8</ele>
        <time>2019-05-12T11:18:33Z</time>
      </trkpt>
      <trkpt lat="47.07172" lon="5.78207">
        <ele>285.3</ele>
        <time>2019-05-12T11:18:38Z</time>
      </trkpt>
      <trkpt lat="47.07167" lon="5.78208">
        <ele>286.4</ele>
        <time>2019-05-12T11:18:45Z</time>
      </trkpt>
      <trkpt lat="47.07162" lon="5.78209">
        <ele>286.6</ele>
        <time>2019-05-12T11:18:50Z</time>
      </trkpt>
      <trkpt lat="47.07157" lon="5.78208">
        <ele>285.8</ele>
        <time>2019-05-12T11:18:56Z</time>
      </trkpt>
      <trkpt lat="47.07151" lon="5.78207">
        <ele>284.3</ele>
        <time>2019-05-12T11:19:02Z</time>
      </trkpt>
      <trkpt lat="47.07146" lon="5.78208">
        <ele>282.8</ele>
        <time>2019-05-12T11:19:07Z</time>
      </trkpt>
      <trkpt lat="47.07141" lon="5.78211">
        <ele>280.8</ele>
        <time>2019-05-12T11:19:13Z</time>
      </trkpt>
      <trkpt lat="47.07136" lon="5.78213">
        <ele>279.3</ele>
        <time>2019-05-12T11:19:19Z</time>
      </trkpt>
      <trkpt lat="47.0713" lon="5.78215">
        <ele>278.8</ele>
        <time>2019-05-12T11:19:23Z</time>
      </trkpt>
      <trkpt lat="47.07125" lon="5.78215">
        <ele>278.6</ele>
        <time>2019-05-12T11:19:28Z</time>
      </trkpt>
      <trkpt lat="47.0712" lon="5.78216">
        <ele>278.6</ele>
        <time>2019-05-12T11:19:31Z</time>
      </trkpt>
      <trkpt lat="47.07115" lon="5.78217">
        <ele>278.6</ele>
        <time>2019-05-12T11:19:35Z</time>
      </trkpt>
      <trkpt lat="47.0711" lon="5.78218">
        <ele>277.8</ele>
        <time>2019-05-12T11:19:41Z</time>
      </trkpt>
      <trkpt lat="47.07105" lon="5.78218">
        <ele>276.2</ele>
        <time>2019-05-12T11:19:48Z</time>
      </trkpt>
      <trkpt lat="47.07101" lon="5.78217">
        <ele>275.2</ele>
        <time>2019-05-12T11:19:53Z</time>
      </trkpt>
      <trkpt lat="47.07096" lon="5.78215">
        <ele>274.5</ele>
        <time>2019-05-12T11:19:58Z</time>
      </trkpt>
      <trkpt lat="47.07091" lon="5.78215">
        <ele>274.1</ele>
        <time>2019-05-12T11:20:02Z</time>
      </trkpt>
      <trkpt lat="47.07086" lon="5.78214">
        <ele>273.7</ele>
        <time>2019-05-12T11:20:06Z</time>
      </trkpt>
      <trkpt lat="47.07081" lon="5.78213">
        <ele>272.7</ele>
        <time>2019-05-12T11:20:12Z</time>
      </trkpt>
      <trkpt lat="47.07076" lon="5.78214">
        <ele>271.5</ele>
        <time>2019-05-12T11:20:17Z</time>
      </trkpt>
      <trkpt lat="47.07071" lon="5.78214">
        <ele>270</ele>
        <time>2019-05-12T11:20:23Z</time>
      </trkpt>
      <trkpt lat="47.07065" lon="5.78214">
        <ele>268.7</ele>
        <time>2019-05-12T11:20:28Z</time>
      </trkpt>
      <trkpt lat="47.0706" lon="5.78213">
        <ele>268</ele>
        <time>2019-05-12T11:20:32Z</time>
      </trkpt>
      <trkpt lat="47.07056" lon="5.78212">
        <ele>267.8</ele>
        <time>2019-05-12T11:20:36Z</time>
      </trkpt>
      <trkpt lat="47.07051" lon="5.78214">
        <ele>268.3</ele>
        <time>2019-05-12T11:20:41Z</time>
      </trkpt>
      <trkpt lat="47.07046" lon="5.78214">
        <ele>269.7</ele>
        <time>2019-05-12T11:20:46Z</time>
      </trkpt>
      <trkpt lat="47.07041" lon="5.78216">
        <ele>271.3</ele>
        <time>2019-05-12T11:20:50Z</time>
      </trkpt>
      <trkpt lat="47.07036" lon="5.78219">
        <ele>272.6</ele>
        <time>2019-05-12T11:20:53Z</time>
      </trkpt>
      <trkpt lat="47.0703" lon="5.78221">
        <ele>274.2</ele>
        <time>2019-05-12T11:20:57Z</time>
      </trkpt>
      <trkpt lat="47.07025" lon="5.7822">
        <ele>276</ele>
        <time>2019-05-12T11:21:03Z</time>
      </trkpt>
      <trkpt lat="47.0702" lon="5.7822">
        <ele>277</ele>
        <time>2019-05-12T11:21:10Z</time>
      </trkpt>
      <trkpt lat="47.07015" lon="5.7822">
        <ele>277.7</ele>
        <time>2019-05-12T11:21:15Z</time>
      </trkpt>
      <trkpt lat="47.0701" lon="5.7822">
        <ele>278.5</ele>
        <time>2019-05-12T11:21:21Z</time>
      </trkpt>
      <trkpt lat="47.07005" lon="5.78223">
        <ele>278.9</ele>
        <time>2019-05-12T11:21:25Z</time>
      </trkpt>
      <trkpt lat="47.07001" lon="5.78225">
        <ele>279.1</ele>
        <time>2019-05-12T11:21:32Z</time>
      </trkpt>
      <trkpt lat="47.06996" lon="5.78228">
        <ele>279.1</ele>
        <time>2019-05-12T11:21:36Z</time>
      </trkpt>
      <trkpt lat="47.06992" lon="5.7823">
        <ele>279.4</ele>
        <time>2019-05-12T11:21:43Z</time>
      </trkpt>
      <trkpt lat="47.06987" lon="5.78234">
        <ele>279.7</ele>
        <time>2019-05-12T11:21:50Z</time>
      </trkpt>
      <trkpt lat="47.06982" lon="5.78238">
        <ele>279.9</ele>
        <time>2019-05-12T11:21:54Z</time>
      </trkpt>
      <trkpt lat="47.06978" lon="5.78243">
        <ele>280.4</ele>
        <time>2019-05-12T11:21:57Z</time>
      </trkpt>
      <trkpt lat="47.06974" lon="5.78246">
        <ele>280.7</ele>
        <time>2019-05-12T11:21:59Z</time>
      </trkpt>
      <trkpt lat="47.06969" lon="5.78251">
        <ele>281.2</ele>
        <time>2019-05-12T11:22:02Z</time>
      </trkpt>
      <trkpt lat="47.06966" lon="5.78257">
        <ele>281.9</ele>
        <time>2019-05-12T11:22:06Z</time>
      </trkpt>
      <trkpt lat="47.06963" lon="5.78262">
        <ele>283.2</ele>
        <time>2019-05-12T11:22:11Z</time>
      </trkpt>
      <trkpt lat="47.06958" lon="5.78265">
        <ele>285.4</ele>
        <time>2019-05-12T11:22:18Z</time>
      </trkpt>
      <trkpt lat="47.06954" lon="5.78268">
        <ele>287.2</ele>
        <time>2019-05-12T11:22:27Z</time>
      </trkpt>
      <trkpt lat="47.06944" lon="5.78269">
        <ele>288.3</ele>
        <time>2019-05-12T11:22:36Z</time>
      </trkpt>
      <trkpt lat="47.06939" lon="5.7827">
        <ele>288.3</ele>
        <time>2019-05-12T11:22:41Z</time>
      </trkpt>
      <trkpt lat="47.06934" lon="5.78271">
        <ele>288.5</ele>
        <time>2019-05-12T11:22:45Z</time>
      </trkpt>
      <trkpt lat="47.06929" lon="5.78273">
        <ele>288.7</ele>
        <time>2019-05-12T11:22:48Z</time>
      </trkpt>
      <trkpt lat="47.06925" lon="5.78275">
        <ele>289.1</ele>
        <time>2019-05-12T11:22:52Z</time>
      </trkpt>
      <trkpt lat="47.0692" lon="5.78279">
        <ele>289.7</ele>
        <time>2019-05-12T11:22:56Z</time>
      </trkpt>
      <trkpt lat="47.06916" lon="5.78282">
        <ele>290.5</ele>
        <time>2019-05-12T11:23:00Z</time>
      </trkpt>
      <trkpt lat="47.06911" lon="5.78285">
        <ele>291.3</ele>
        <time>2019-05-12T11:23:04Z</time>
      </trkpt>
      <trkpt lat="47.06907" lon="5.78287">
        <ele>291.9</ele>
        <time>2019-05-12T11:23:07Z</time>
      </trkpt>
      <trkpt lat="47.06902" lon="5.7829">
        <ele>292.6</ele>
        <time>2019-05-12T11:23:11Z</time>
      </trkpt>
      <trkpt lat="47.06896" lon="5.78291">
        <ele>293.1</ele>
        <time>2019-05-12T11:23:15Z</time>
      </trkpt>
      <trkpt lat="47.06892" lon="5.78294">
        <ele>293.2</ele>
        <time>2019-05-12T11:23:20Z</time>
      </trkpt>
      <trkpt lat="47.06888" lon="5.78298">
        <ele>293.1</ele>
        <time>2019-05-12T11:23:24Z</time>
      </trkpt>
      <trkpt lat="47.06883" lon="5.78302">
        <ele>292.9</ele>
        <time>2019-05-12T11:23:33Z</time>
      </trkpt>
      <trkpt lat="47.06879" lon="5.78307">
        <ele>292.8</ele>
        <time>2019-05-12T11:23:37Z</time>
      </trkpt>
      <trkpt lat="47.06875" lon="5.78311">
        <ele>292.4</ele>
        <time>2019-05-12T11:23:42Z</time>
      </trkpt>
      <trkpt lat="47.06871" lon="5.78315">
        <ele>291.6</ele>
        <time>2019-05-12T11:23:48Z</time>
      </trkpt>
      <trkpt lat="47.06868" lon="5.7832">
        <ele>290.6</ele>
        <time>2019-05-12T11:23:54Z</time>
      </trkpt>
      <trkpt lat="47.06865" lon="5.78326">
        <ele>290</ele>
        <time>2019-05-12T11:23:58Z</time>
      </trkpt>
      <trkpt lat="47.06861" lon="5.78333">
        <ele>289.6</ele>
        <time>2019-05-12T11:24:02Z</time>
      </trkpt>
      <trkpt lat="47.06859" lon="5.78339">
        <ele>289.5</ele>
        <time>2019-05-12T11:24:06Z</time>
      </trkpt>
      <trkpt lat="47.06855" lon="5.78344">
        <ele>289.3</ele>
        <time>2019-05-12T11:24:11Z</time>
      </trkpt>
      <trkpt lat="47.0685" lon="5.78351">
        <ele>289.1</ele>
        <time>2019-05-12T11:24:14Z</time>
      </trkpt>
      <trkpt lat="47.06846" lon="5.78356">
        <ele>288.9</ele>
        <time>2019-05-12T11:24:17Z</time>
      </trkpt>
      <trkpt lat="47.06843" lon="5.78363">
        <ele>288.7</ele>
        <time>2019-05-12T11:24:21Z</time>
      </trkpt>
      <trkpt lat="47.06841" lon="5.7837">
        <ele>288.7</ele>
        <time>2019-05-12T11:24:25Z</time>
      </trkpt>
      <trkpt lat="47.06838" lon="5.78377">
        <ele>288.9</ele>
        <time>2019-05-12T11:24:30Z</time>
      </trkpt>
      <trkpt lat="47.06835" lon="5.78382">
        <ele>289.3</ele>
        <time>2019-05-12T11:24:34Z</time>
      </trkpt>
      <trkpt lat="47.06833" lon="5.78389">
        <ele>289.8</ele>
        <time>2019-05-12T11:24:40Z</time>
      </trkpt>
      <trkpt lat="47.06833" lon="5.78398">
        <ele>290.5</ele>
        <time>2019-05-12T11:24:44Z</time>
      </trkpt>
      <trkpt lat="47.06832" lon="5.78405">
        <ele>291</ele>
        <time>2019-05-12T11:24:47Z</time>
      </trkpt>
      <trkpt lat="47.0683" lon="5.78412">
        <ele>291.4</ele>
        <time>2019-05-12T11:24:49Z</time>
      </trkpt>
      <trkpt lat="47.06829" lon="5.78419">
        <ele>292.4</ele>
        <time>2019-05-12T11:24:55Z</time>
      </trkpt>
      <trkpt lat="47.06826" lon="5.78425">
        <ele>293.1</ele>
        <time>2019-05-12T11:25:01Z</time>
      </trkpt>
      <trkpt lat="47.06823" lon="5.78431">
        <ele>293.6</ele>
        <time>2019-05-12T11:25:05Z</time>
      </trkpt>
      <trkpt lat="47.06819" lon="5.78437">
        <ele>294</ele>
        <time>2019-05-12T11:25:08Z</time>
      </trkpt>
      <trkpt lat="47.06816" lon="5.78442">
        <ele>294.3</ele>
        <time>2019-05-12T11:25:12Z</time>
      </trkpt>
      <trkpt lat="47.06813" lon="5.78447">
        <ele>294.5</ele>
        <time>2019-05-12T11:25:17Z</time>
      </trkpt>
      <trkpt lat="47.06808" lon="5.78452">
        <ele>294.7</ele>
        <time>2019-05-12T11:25:21Z</time>
      </trkpt>
      <trkpt lat="47.06804" lon="5.78456">
        <ele>294.9</ele>
        <time>2019-05-12T11:25:25Z</time>
      </trkpt>
      <trkpt lat="47.06799" lon="5.78459">
        <ele>295.1</ele>
        <time>2019-05-12T11:25:30Z</time>
      </trkpt>
      <trkpt lat="47.06795" lon="5.78465">
        <ele>295.4</ele>
        <time>2019-05-12T11:25:34Z</time>
      </trkpt>
      <trkpt lat="47.06791" lon="5.7847">
        <ele>295.6</ele>
        <time>2019-05-12T11:25:38Z</time>
      </trkpt>
      <trkpt lat="47.06787" lon="5.78474">
        <ele>295.7</ele>
        <time>2019-05-12T11:25:42Z</time>
      </trkpt>
      <trkpt lat="47.06783" lon="5.78478">
        <ele>295.7</ele>
        <time>2019-05-12T11:25:47Z</time>
      </trkpt>
      <trkpt lat="47.06778" lon="5.78481">
        <ele>295.4</ele>
        <time>2019-05-12T11:25:51Z</time>
      </trkpt>
      <trkpt lat="47.06774" lon="5.78485">
        <ele>294.9</ele>
        <time>2019-05-12T11:25:55Z</time>
      </trkpt>
      <trkpt lat="47.0677" lon="5.7849">
        <ele>294.2</ele>
        <time>2019-05-12T11:25:59Z</time>
      </trkpt>
      <trkpt lat="47.06766" lon="5.78493">
        <ele>293.2</ele>
        <time>2019-05-12T11:26:04Z</time>
      </trkpt>
      <trkpt lat="47.06761" lon="5.78497">
        <ele>292.1</ele>
        <time>2019-05-12T11:26:09Z</time>
      </trkpt>
      <trkpt lat="47.06757" lon="5.78499">
        <ele>291.1</ele>
        <time>2019-05-12T11:26:14Z</time>
      </trkpt>
      <trkpt lat="47.06752" lon="5.78504">
        <ele>290.3</ele>
        <time>2019-05-12T11:26:18Z</time>
      </trkpt>
      <trkpt lat="47.06749" lon="5.78508">
        <ele>289.5</ele>
        <time>2019-05-12T11:26:23Z</time>
      </trkpt>
      <trkpt lat="47.06744" lon="5.78511">
        <ele>288.5</ele>
        <time>2019-05-12T11:26:28Z</time>
      </trkpt>
      <trkpt lat="47.06741" lon="5.78515">
        <ele>287.9</ele>
        <time>2019-05-12T11:26:31Z</time>
      </trkpt>
      <trkpt lat="47.06737" lon="5.7852">
        <ele>287.2</ele>
        <time>2019-05-12T11:26:34Z</time>
      </trkpt>
      <trkpt lat="47.06732" lon="5.78524">
        <ele>286.1</ele>
        <time>2019-05-12T11:26:39Z</time>
      </trkpt>
      <trkpt lat="47.06728" lon="5.78527">
        <ele>284.9</ele>
        <time>2019-05-12T11:26:44Z</time>
      </trkpt>
      <trkpt lat="47.06724" lon="5.7853">
        <ele>283.6</ele>
        <time>2019-05-12T11:26:49Z</time>
      </trkpt>
      <trkpt lat="47.0672" lon="5.78532">
        <ele>282.3</ele>
        <time>2019-05-12T11:26:55Z</time>
      </trkpt>
      <trkpt lat="47.06715" lon="5.78534">
        <ele>280.9</ele>
        <time>2019-05-12T11:27:01Z</time>
      </trkpt>
      <trkpt lat="47.0671" lon="5.78538">
        <ele>280.4</ele>
        <time>2019-05-12T11:27:04Z</time>
      </trkpt>
      <trkpt lat="47.06706" lon="5.78543">
        <ele>280.2</ele>
        <time>2019-05-12T11:27:07Z</time>
      </trkpt>
      <trkpt lat="47.06702" lon="5.78548">
        <ele>280</ele>
        <time>2019-05-12T11:27:11Z</time>
      </trkpt>
      <trkpt lat="47.06697" lon="5.78553">
        <ele>280</ele>
        <time>2019-05-12T11:27:17Z</time>
      </trkpt>
      <trkpt lat="47.06693" lon="5.78558">
        <ele>279.9</ele>
        <time>2019-05-12T11:27:21Z</time>
      </trkpt>
      <trkpt lat="47.06689" lon="5.78558">
        <ele>280.1</ele>
        <time>2019-05-12T11:27:42Z</time>
      </trkpt>
      <trkpt lat="47.06679" lon="5.78554">
        <ele>289.9</ele>
        <time>2019-05-12T11:30:43Z</time>
      </trkpt>
      <trkpt lat="47.06674" lon="5.78558">
        <ele>288.8</ele>
        <time>2019-05-12T11:30:47Z</time>
      </trkpt>
      <trkpt lat="47.0667" lon="5.78561">
        <ele>287.8</ele>
        <time>2019-05-12T11:30:51Z</time>
      </trkpt>
      <trkpt lat="47.06665" lon="5.78567">
        <ele>287.5</ele>
        <time>2019-05-12T11:30:54Z</time>
      </trkpt>
      <trkpt lat="47.06661" lon="5.78571">
        <ele>287.4</ele>
        <time>2019-05-12T11:30:58Z</time>
      </trkpt>
      <trkpt lat="47.06656" lon="5.78576">
        <ele>288</ele>
        <time>2019-05-12T11:31:03Z</time>
      </trkpt>
      <trkpt lat="47.06652" lon="5.7858">
        <ele>288.9</ele>
        <time>2019-05-12T11:31:07Z</time>
      </trkpt>
      <trkpt lat="47.06647" lon="5.78584">
        <ele>290.1</ele>
        <time>2019-05-12T11:31:12Z</time>
      </trkpt>
      <trkpt lat="47.06642" lon="5.78586">
        <ele>291.7</ele>
        <time>2019-05-12T11:31:18Z</time>
      </trkpt>
      <trkpt lat="47.06638" lon="5.78589">
        <ele>293.3</ele>
        <time>2019-05-12T11:31:23Z</time>
      </trkpt>
      <trkpt lat="47.06633" lon="5.78592">
        <ele>295.1</ele>
        <time>2019-05-12T11:31:28Z</time>
      </trkpt>
      <trkpt lat="47.06629" lon="5.78597">
        <ele>296.1</ele>
        <time>2019-05-12T11:31:31Z</time>
      </trkpt>
      <trkpt lat="47.06625" lon="5.78603">
        <ele>297.3</ele>
        <time>2019-05-12T11:31:34Z</time>
      </trkpt>
      <trkpt lat="47.06617" lon="5.7861">
        <ele>302</ele>
        <time>2019-05-12T11:31:44Z</time>
      </trkpt>
      <trkpt lat="47.06612" lon="5.78611">
        <ele>302.5</ele>
        <time>2019-05-12T11:31:47Z</time>
      </trkpt>
      <trkpt lat="47.06606" lon="5.78613">
        <ele>302.8</ele>
        <time>2019-05-12T11:31:50Z</time>
      </trkpt>
      <trkpt lat="47.06601" lon="5.78614">
        <ele>303</ele>
        <time>2019-05-12T11:31:53Z</time>
      </trkpt>
      <trkpt lat="47.06597" lon="5.78617">
        <ele>303.2</ele>
        <time>2019-05-12T11:31:56Z</time>
      </trkpt>
      <trkpt lat="47.06592" lon="5.78618">
        <ele>303.2</ele>
        <time>2019-05-12T11:31:59Z</time>
      </trkpt>
      <trkpt lat="47.06587" lon="5.78619">
        <ele>303</ele>
        <time>2019-05-12T11:32:03Z</time>
      </trkpt>
      <trkpt lat="47.06582" lon="5.7862">
        <ele>302.6</ele>
        <time>2019-05-12T11:32:07Z</time>
      </trkpt>
      <trkpt lat="47.06577" lon="5.78622">
        <ele>302</ele>
        <time>2019-05-12T11:32:11Z</time>
      </trkpt>
      <trkpt lat="47.06572" lon="5.78623">
        <ele>301.5</ele>
        <time>2019-05-12T11:32:14Z</time>
      </trkpt>
      <trkpt lat="47.06567" lon="5.78625">
        <ele>300.7</ele>
        <time>2019-05-12T11:32:18Z</time>
      </trkpt>
      <trkpt lat="47.06562" lon="5.78627">
        <ele>300</ele>
        <time>2019-05-12T11:32:21Z</time>
      </trkpt>
      <trkpt lat="47.06557" lon="5.78629">
        <ele>299.2</ele>
        <time>2019-05-12T11:32:25Z</time>
      </trkpt>
      <trkpt lat="47.06551" lon="5.78631">
        <ele>298.5</ele>
        <time>2019-05-12T11:32:29Z</time>
      </trkpt>
      <trkpt lat="47.06545" lon="5.78633">
        <ele>298.1</ele>
        <time>2019-05-12T11:32:32Z</time>
      </trkpt>
      <trkpt lat="47.0654" lon="5.78635">
        <ele>297.8</ele>
        <time>2019-05-12T11:32:35Z</time>
      </trkpt>
      <trkpt lat="47.06535" lon="5.78636">
        <ele>297.4</ele>
        <time>2019-05-12T11:32:39Z</time>
      </trkpt>
      <trkpt lat="47.06529" lon="5.78634">
        <ele>297</ele>
        <time>2019-05-12T11:32:43Z</time>
      </trkpt>
      <trkpt lat="47.06525" lon="5.78632">
        <ele>296.1</ele>
        <time>2019-05-12T11:32:47Z</time>
      </trkpt>
      <trkpt lat="47.06519" lon="5.78632">
        <ele>294.8</ele>
        <time>2019-05-12T11:32:52Z</time>
      </trkpt>
      <trkpt lat="47.06514" lon="5.78632">
        <ele>294</ele>
        <time>2019-05-12T11:32:55Z</time>
      </trkpt>
      <trkpt lat="47.0651" lon="5.78632">
        <ele>293.2</ele>
        <time>2019-05-12T11:32:58Z</time>
      </trkpt>
      <trkpt lat="47.06505" lon="5.78633">
        <ele>292.2</ele>
        <time>2019-05-12T11:33:02Z</time>
      </trkpt>
      <trkpt lat="47.065" lon="5.78635">
        <ele>290.9</ele>
        <time>2019-05-12T11:33:07Z</time>
      </trkpt>
      <trkpt lat="47.06495" lon="5.78639">
        <ele>289.9</ele>
        <time>2019-05-12T11:33:11Z</time>
      </trkpt>
      <trkpt lat="47.06491" lon="5.78643">
        <ele>289.1</ele>
        <time>2019-05-12T11:33:15Z</time>
      </trkpt>
      <trkpt lat="47.06487" lon="5.78647">
        <ele>288.6</ele>
        <time>2019-05-12T11:33:19Z</time>
      </trkpt>
      <trkpt lat="47.06483" lon="5.78652">
        <ele>288.4</ele>
        <time>2019-05-12T11:33:23Z</time>
      </trkpt>
      <trkpt lat="47.06478" lon="5.78656">
        <ele>288.9</ele>
        <time>2019-05-12T11:33:28Z</time>
      </trkpt>
      <trkpt lat="47.06475" lon="5.78661">
        <ele>289.7</ele>
        <time>2019-05-12T11:33:32Z</time>
      </trkpt>
      <trkpt lat="47.06471" lon="5.78666">
        <ele>290.4</ele>
        <time>2019-05-12T11:33:35Z</time>
      </trkpt>
      <trkpt lat="47.06467" lon="5.78669">
        <ele>291.6</ele>
        <time>2019-05-12T11:33:39Z</time>
      </trkpt>
      <trkpt lat="47.06463" lon="5.78674">
        <ele>292.7</ele>
        <time>2019-05-12T11:33:43Z</time>
      </trkpt>
      <trkpt lat="47.06458" lon="5.78678">
        <ele>293.9</ele>
        <time>2019-05-12T11:33:47Z</time>
      </trkpt>
      <trkpt lat="47.06454" lon="5.7868">
        <ele>295</ele>
        <time>2019-05-12T11:33:51Z</time>
      </trkpt>
      <trkpt lat="47.06449" lon="5.78683">
        <ele>295.7</ele>
        <time>2019-05-12T11:33:54Z</time>
      </trkpt>
      <trkpt lat="47.06445" lon="5.78685">
        <ele>296.3</ele>
        <time>2019-05-12T11:33:57Z</time>
      </trkpt>
      <trkpt lat="47.0644" lon="5.78686">
        <ele>296.9</ele>
        <time>2019-05-12T11:34:00Z</time>
      </trkpt>
      <trkpt lat="47.06435" lon="5.78688">
        <ele>297.3</ele>
        <time>2019-05-12T11:34:04Z</time>
      </trkpt>
      <trkpt lat="47.06431" lon="5.78692">
        <ele>297.6</ele>
        <time>2019-05-12T11:34:08Z</time>
      </trkpt>
      <trkpt lat="47.06427" lon="5.78694">
        <ele>297.9</ele>
        <time>2019-05-12T11:34:12Z</time>
      </trkpt>
      <trkpt lat="47.06421" lon="5.78697">
        <ele>298.2</ele>
        <time>2019-05-12T11:34:16Z</time>
      </trkpt>
      <trkpt lat="47.06416" lon="5.787">
        <ele>298.4</ele>
        <time>2019-05-12T11:34:20Z</time>
      </trkpt>
      <trkpt lat="47.06411" lon="5.78704">
        <ele>298.7</ele>
        <time>2019-05-12T11:34:24Z</time>
      </trkpt>
      <trkpt lat="47.06406" lon="5.78707">
        <ele>299</ele>
        <time>2019-05-12T11:34:28Z</time>
      </trkpt>
      <trkpt lat="47.06402" lon="5.7871">
        <ele>299.3</ele>
        <time>2019-05-12T11:34:35Z</time>
      </trkpt>
      <trkpt lat="47.06398" lon="5.78713">
        <ele>299.3</ele>
        <time>2019-05-12T11:34:41Z</time>
      </trkpt>
      <trkpt lat="47.06393" lon="5.78715">
        <ele>299.3</ele>
        <time>2019-05-12T11:34:45Z</time>
      </trkpt>
      <trkpt lat="47.06389" lon="5.78719">
        <ele>299.5</ele>
        <time>2019-05-12T11:34:49Z</time>
      </trkpt>
      <trkpt lat="47.06384" lon="5.78724">
        <ele>299.8</ele>
        <time>2019-05-12T11:34:54Z</time>
      </trkpt>
      <trkpt lat="47.0638" lon="5.78728">
        <ele>300.1</ele>
        <time>2019-05-12T11:34:58Z</time>
      </trkpt>
      <trkpt lat="47.06376" lon="5.78732">
        <ele>300.5</ele>
        <time>2019-05-12T11:35:03Z</time>
      </trkpt>
      <trkpt lat="47.06371" lon="5.78736">
        <ele>300.9</ele>
        <time>2019-05-12T11:35:08Z</time>
      </trkpt>
      <trkpt lat="47.06368" lon="5.78741">
        <ele>301.1</ele>
        <time>2019-05-12T11:35:11Z</time>
      </trkpt>
      <trkpt lat="47.06364" lon="5.78744">
        <ele>301.4</ele>
        <time>2019-05-12T11:35:15Z</time>
      </trkpt>
      <trkpt lat="47.0636" lon="5.78747">
        <ele>301.6</ele>
        <time>2019-05-12T11:35:20Z</time>
      </trkpt>
      <trkpt lat="47.06355" lon="5.78751">
        <ele>301.7</ele>
        <time>2019-05-12T11:35:24Z</time>
      </trkpt>
      <trkpt lat="47.0635" lon="5.78755">
        <ele>301.7</ele>
        <time>2019-05-12T11:35:29Z</time>
      </trkpt>
      <trkpt lat="47.06346" lon="5.78759">
        <ele>301.7</ele>
        <time>2019-05-12T11:35:33Z</time>
      </trkpt>
      <trkpt lat="47.06342" lon="5.78765">
        <ele>301.7</ele>
        <time>2019-05-12T11:35:38Z</time>
      </trkpt>
      <trkpt lat="47.06338" lon="5.7877">
        <ele>301.7</ele>
        <time>2019-05-12T11:35:42Z</time>
      </trkpt>
      <trkpt lat="47.06335" lon="5.78775">
        <ele>301.6</ele>
        <time>2019-05-12T11:35:45Z</time>
      </trkpt>
      <trkpt lat="47.06331" lon="5.7878">
        <ele>301.5</ele>
        <time>2019-05-12T11:35:48Z</time>
      </trkpt>
      <trkpt lat="47.06328" lon="5.78784">
        <ele>301.5</ele>
        <time>2019-05-12T11:35:51Z</time>
      </trkpt>
      <trkpt lat="47.06325" lon="5.78789">
        <ele>301.5</ele>
        <time>2019-05-12T11:35:54Z</time>
      </trkpt>
      <trkpt lat="47.06321" lon="5.78795">
        <ele>301.4</ele>
        <time>2019-05-12T11:35:59Z</time>
      </trkpt>
      <trkpt lat="47.06318" lon="5.78801">
        <ele>301.2</ele>
        <time>2019-05-12T11:36:05Z</time>
      </trkpt>
      <trkpt lat="47.06315" lon="5.78806">
        <ele>300.9</ele>
        <time>2019-05-12T11:36:12Z</time>
      </trkpt>
      <trkpt lat="47.06311" lon="5.78812">
        <ele>300.4</ele>
        <time>2019-05-12T11:36:17Z</time>
      </trkpt>
      <trkpt lat="47.06307" lon="5.78817">
        <ele>300</ele>
        <time>2019-05-12T11:36:21Z</time>
      </trkpt>
      <trkpt lat="47.06303" lon="5.78822">
        <ele>299.6</ele>
        <time>2019-05-12T11:36:26Z</time>
      </trkpt>
      <trkpt lat="47.06299" lon="5.78828">
        <ele>299.3</ele>
        <time>2019-05-12T11:36:30Z</time>
      </trkpt>
      <trkpt lat="47.06296" lon="5.78832">
        <ele>298.9</ele>
        <time>2019-05-12T11:36:34Z</time>
      </trkpt>
      <trkpt lat="47.06292" lon="5.78836">
        <ele>298.6</ele>
        <time>2019-05-12T11:36:38Z</time>
      </trkpt>
      <trkpt lat="47.06289" lon="5.78841">
        <ele>298.3</ele>
        <time>2019-05-12T11:36:42Z</time>
      </trkpt>
      <trkpt lat="47.06286" lon="5.78846">
        <ele>298.1</ele>
        <time>2019-05-12T11:36:46Z</time>
      </trkpt>
      <trkpt lat="47.06283" lon="5.78852">
        <ele>298</ele>
        <time>2019-05-12T11:36:50Z</time>
      </trkpt>
      <trkpt lat="47.0628" lon="5.78857">
        <ele>298</ele>
        <time>2019-05-12T11:36:55Z</time>
      </trkpt>
      <trkpt lat="47.06276" lon="5.78862">
        <ele>298.2</ele>
        <time>2019-05-12T11:36:59Z</time>
      </trkpt>
      <trkpt lat="47.06271" lon="5.78864">
        <ele>298.1</ele>
        <time>2019-05-12T11:37:04Z</time>
      </trkpt>
      <trkpt lat="47.06267" lon="5.78868">
        <ele>297.9</ele>
        <time>2019-05-12T11:37:08Z</time>
      </trkpt>
      <trkpt lat="47.06263" lon="5.78871">
        <ele>297.5</ele>
        <time>2019-05-12T11:37:13Z</time>
      </trkpt>
      <trkpt lat="47.06257" lon="5.78874">
        <ele>297.1</ele>
        <time>2019-05-12T11:37:17Z</time>
      </trkpt>
      <trkpt lat="47.06252" lon="5.78876">
        <ele>296.5</ele>
        <time>2019-05-12T11:37:22Z</time>
      </trkpt>
      <trkpt lat="47.06247" lon="5.78876">
        <ele>295.8</ele>
        <time>2019-05-12T11:37:27Z</time>
      </trkpt>
      <trkpt lat="47.06241" lon="5.78875">
        <ele>295</ele>
        <time>2019-05-12T11:37:32Z</time>
      </trkpt>
      <trkpt lat="47.06236" lon="5.78874">
        <ele>294.2</ele>
        <time>2019-05-12T11:37:36Z</time>
      </trkpt>
      <trkpt lat="47.06231" lon="5.78875">
        <ele>293.7</ele>
        <time>2019-05-12T11:37:39Z</time>
      </trkpt>
      <trkpt lat="47.06226" lon="5.78874">
        <ele>292.5</ele>
        <time>2019-05-12T11:37:45Z</time>
      </trkpt>
      <trkpt lat="47.06221" lon="5.78875">
        <ele>292</ele>
        <time>2019-05-12T11:37:49Z</time>
      </trkpt>
      <trkpt lat="47.06216" lon="5.78878">
        <ele>291.7</ele>
        <time>2019-05-12T11:37:52Z</time>
      </trkpt>
      <trkpt lat="47.06211" lon="5.7888">
        <ele>291.5</ele>
        <time>2019-05-12T11:37:56Z</time>
      </trkpt>
      <trkpt lat="47.06207" lon="5.78884">
        <ele>291.5</ele>
        <time>2019-05-12T11:37:59Z</time>
      </trkpt>
      <trkpt lat="47.06202" lon="5.78889">
        <ele>291.8</ele>
        <time>2019-05-12T11:38:03Z</time>
      </trkpt>
      <trkpt lat="47.06198" lon="5.78892">
        <ele>292.2</ele>
        <time>2019-05-12T11:38:06Z</time>
      </trkpt>
      <trkpt lat="47.06194" lon="5.78897">
        <ele>292.8</ele>
        <time>2019-05-12T11:38:09Z</time>
      </trkpt>
      <trkpt lat="47.06191" lon="5.78902">
        <ele>293.8</ele>
        <time>2019-05-12T11:38:13Z</time>
      </trkpt>
      <trkpt lat="47.06187" lon="5.78907">
        <ele>295.1</ele>
        <time>2019-05-12T11:38:18Z</time>
      </trkpt>
      <trkpt lat="47.06184" lon="5.78911">
        <ele>296.3</ele>
        <time>2019-05-12T11:38:22Z</time>
      </trkpt>
      <trkpt lat="47.0618" lon="5.78917">
        <ele>297.7</ele>
        <time>2019-05-12T11:38:26Z</time>
      </trkpt>
      <trkpt lat="47.06177" lon="5.78922">
        <ele>299</ele>
        <time>2019-05-12T11:38:29Z</time>
      </trkpt>
      <trkpt lat="47.06173" lon="5.78928">
        <ele>300.3</ele>
        <time>2019-05-12T11:38:32Z</time>
      </trkpt>
      <trkpt lat="47.06169" lon="5.78933">
        <ele>301.6</ele>
        <time>2019-05-12T11:38:35Z</time>
      </trkpt>
      <trkpt lat="47.06165" lon="5.78938">
        <ele>303.5</ele>
        <time>2019-05-12T11:38:40Z</time>
      </trkpt>
      <trkpt lat="47.0616" lon="5.78941">
        <ele>305.2</ele>
        <time>2019-05-12T11:38:45Z</time>
      </trkpt>
      <trkpt lat="47.06155" lon="5.78942">
        <ele>306.6</ele>
        <time>2019-05-12T11:38:50Z</time>
      </trkpt>
      <trkpt lat="47.0615" lon="5.78942">
        <ele>307.3</ele>
        <time>2019-05-12T11:38:55Z</time>
      </trkpt>
      <trkpt lat="47.06144" lon="5.78944">
        <ele>307.5</ele>
        <time>2019-05-12T11:39:00Z</time>
      </trkpt>
      <trkpt lat="47.06139" lon="5.78948">
        <ele>307.5</ele>
        <time>2019-05-12T11:39:05Z</time>
      </trkpt>
      <trkpt lat="47.06135" lon="5.78952">
        <ele>307.7</ele>
        <time>2019-05-12T11:39:09Z</time>
      </trkpt>
      <trkpt lat="47.06131" lon="5.78956">
        <ele>308.2</ele>
        <time>2019-05-12T11:39:13Z</time>
      </trkpt>
      <trkpt lat="47.06128" lon="5.78963">
        <ele>308.9</ele>
        <time>2019-05-12T11:39:18Z</time>
      </trkpt>
      <trkpt lat="47.06124" lon="5.78967">
        <ele>309.5</ele>
        <time>2019-05-12T11:39:22Z</time>
      </trkpt>
      <trkpt lat="47.0612" lon="5.78971">
        <ele>310.1</ele>
        <time>2019-05-12T11:39:28Z</time>
      </trkpt>
      <trkpt lat="47.06116" lon="5.78973">
        <ele>310.3</ele>
        <time>2019-05-12T11:39:34Z</time>
      </trkpt>
      <trkpt lat="47.06112" lon="5.78977">
        <ele>310.5</ele>
        <time>2019-05-12T11:39:42Z</time>
      </trkpt>
      <trkpt lat="47.06108" lon="5.78981">
        <ele>310.5</ele>
        <time>2019-05-12T11:39:48Z</time>
      </trkpt>
      <trkpt lat="47.06104" lon="5.78985">
        <ele>310.4</ele>
        <time>2019-05-12T11:39:55Z</time>
      </trkpt>
      <trkpt lat="47.06101" lon="5.78991">
        <ele>310.2</ele>
        <time>2019-05-12T11:40:00Z</time>
      </trkpt>
      <trkpt lat="47.06098" lon="5.78996">
        <ele>310.1</ele>
        <time>2019-05-12T11:40:03Z</time>
      </trkpt>
      <trkpt lat="47.06095" lon="5.79002">
        <ele>310.1</ele>
        <time>2019-05-12T11:40:07Z</time>
      </trkpt>
      <trkpt lat="47.06091" lon="5.79008">
        <ele>309.9</ele>
        <time>2019-05-12T11:40:11Z</time>
      </trkpt>
      <trkpt lat="47.06087" lon="5.79014">
        <ele>309.5</ele>
        <time>2019-05-12T11:40:15Z</time>
      </trkpt>
      <trkpt lat="47.06084" lon="5.79021">
        <ele>308.8</ele>
        <time>2019-05-12T11:40:20Z</time>
      </trkpt>
      <trkpt lat="47.06081" lon="5.79028">
        <ele>308.1</ele>
        <time>2019-05-12T11:40:25Z</time>
      </trkpt>
      <trkpt lat="47.06079" lon="5.79035">
        <ele>307.5</ele>
        <time>2019-05-12T11:40:30Z</time>
      </trkpt>
      <trkpt lat="47.06077" lon="5.79041">
        <ele>307</ele>
        <time>2019-05-12T11:40:34Z</time>
      </trkpt>
      <trkpt lat="47.06074" lon="5.79047">
        <ele>306.6</ele>
        <time>2019-05-12T11:40:41Z</time>
      </trkpt>
      <trkpt lat="47.06071" lon="5.79053">
        <ele>306.3</ele>
        <time>2019-05-12T11:40:46Z</time>
      </trkpt>
      <trkpt lat="47.06067" lon="5.79058">
        <ele>306.2</ele>
        <time>2019-05-12T11:40:49Z</time>
      </trkpt>
      <trkpt lat="47.06063" lon="5.79062">
        <ele>305.9</ele>
        <time>2019-05-12T11:40:53Z</time>
      </trkpt>
      <trkpt lat="47.06059" lon="5.79066">
        <ele>305.7</ele>
        <time>2019-05-12T11:40:56Z</time>
      </trkpt>
      <trkpt lat="47.06055" lon="5.79071">
        <ele>305.1</ele>
        <time>2019-05-12T11:41:00Z</time>
      </trkpt>
      <trkpt lat="47.06051" lon="5.79076">
        <ele>304.3</ele>
        <time>2019-05-12T11:41:04Z</time>
      </trkpt>
      <trkpt lat="47.06046" lon="5.7908">
        <ele>303.4</ele>
        <time>2019-05-12T11:41:08Z</time>
      </trkpt>
      <trkpt lat="47.06042" lon="5.79084">
        <ele>302.7</ele>
        <time>2019-05-12T11:41:12Z</time>
      </trkpt>
      <trkpt lat="47.06039" lon="5.79089">
        <ele>302.4</ele>
        <time>2019-05-12T11:41:17Z</time>
      </trkpt>
      <trkpt lat="47.06035" lon="5.79094">
        <ele>302.3</ele>
        <time>2019-05-12T11:41:21Z</time>
      </trkpt>
      <trkpt lat="47.06031" lon="5.79098">
        <ele>302</ele>
        <time>2019-05-12T11:41:26Z</time>
      </trkpt>
      <trkpt lat="47.06027" lon="5.79104">
        <ele>301.6</ele>
        <time>2019-05-12T11:41:30Z</time>
      </trkpt>
      <trkpt lat="47.06023" lon="5.79108">
        <ele>301.5</ele>
        <time>2019-05-12T11:41:34Z</time>
      </trkpt>
      <trkpt lat="47.06019" lon="5.79115">
        <ele>301.5</ele>
        <time>2019-05-12T11:41:39Z</time>
      </trkpt>
      <trkpt lat="47.06016" lon="5.79121">
        <ele>301.8</ele>
        <time>2019-05-12T11:41:42Z</time>
      </trkpt>
      <trkpt lat="47.06012" lon="5.79129">
        <ele>302.1</ele>
        <time>2019-05-12T11:41:45Z</time>
      </trkpt>
      <trkpt lat="47.06009" lon="5.79134">
        <ele>302.8</ele>
        <time>2019-05-12T11:41:50Z</time>
      </trkpt>
      <trkpt lat="47.06005" lon="5.79139">
        <ele>303.4</ele>
        <time>2019-05-12T11:41:54Z</time>
      </trkpt>
      <trkpt lat="47.06001" lon="5.79145">
        <ele>304.2</ele>
        <time>2019-05-12T11:41:58Z</time>
      </trkpt>
      <trkpt lat="47.05999" lon="5.7915">
        <ele>305.4</ele>
        <time>2019-05-12T11:42:03Z</time>
      </trkpt>
      <trkpt lat="47.05995" lon="5.79156">
        <ele>306.6</ele>
        <time>2019-05-12T11:42:07Z</time>
      </trkpt>
      <trkpt lat="47.05992" lon="5.79163">
        <ele>307.8</ele>
        <time>2019-05-12T11:42:11Z</time>
      </trkpt>
      <trkpt lat="47.05989" lon="5.79169">
        <ele>309.3</ele>
        <time>2019-05-12T11:42:16Z</time>
      </trkpt>
      <trkpt lat="47.05987" lon="5.79175">
        <ele>310.7</ele>
        <time>2019-05-12T11:42:21Z</time>
      </trkpt>
      <trkpt lat="47.05984" lon="5.79181">
        <ele>312.1</ele>
        <time>2019-05-12T11:42:26Z</time>
      </trkpt>
      <trkpt lat="47.0598" lon="5.79186">
        <ele>313.5</ele>
        <time>2019-05-12T11:42:34Z</time>
      </trkpt>
      <trkpt lat="47.05947" lon="5.79229">
        <ele>303.1</ele>
        <time>2019-05-12T11:49:13Z</time>
      </trkpt>
      <trkpt lat="47.05945" lon="5.79235">
        <ele>303.4</ele>
        <time>2019-05-12T11:49:16Z</time>
      </trkpt>
      <trkpt lat="47.05945" lon="5.79243">
        <ele>304</ele>
        <time>2019-05-12T11:49:19Z</time>
      </trkpt>
      <trkpt lat="47.05944" lon="5.79251">
        <ele>304.6</ele>
        <time>2019-05-12T11:49:22Z</time>
      </trkpt>
      <trkpt lat="47.05944" lon="5.79259">
        <ele>305.4</ele>
        <time>2019-05-12T11:49:25Z</time>
      </trkpt>
      <trkpt lat="47.05944" lon="5.79265">
        <ele>306.3</ele>
        <time>2019-05-12T11:49:29Z</time>
      </trkpt>
      <trkpt lat="47.05943" lon="5.79272">
        <ele>307.1</ele>
        <time>2019-05-12T11:49:33Z</time>
      </trkpt>
      <trkpt lat="47.05943" lon="5.7928">
        <ele>308.7</ele>
        <time>2019-05-12T11:49:40Z</time>
      </trkpt>
      <trkpt lat="47.05942" lon="5.79286">
        <ele>310.6</ele>
        <time>2019-05-12T11:49:47Z</time>
      </trkpt>
      <trkpt lat="47.0594" lon="5.79292">
        <ele>312</ele>
        <time>2019-05-12T11:49:53Z</time>
      </trkpt>
      <trkpt lat="47.05938" lon="5.79299">
        <ele>312.4</ele>
        <time>2019-05-12T11:49:56Z</time>
      </trkpt>
      <trkpt lat="47.05935" lon="5.79305">
        <ele>312.8</ele>
        <time>2019-05-12T11:50:01Z</time>
      </trkpt>
      <trkpt lat="47.05932" lon="5.79311">
        <ele>312.9</ele>
        <time>2019-05-12T11:50:04Z</time>
      </trkpt>
      <trkpt lat="47.0593" lon="5.79318">
        <ele>313.3</ele>
        <time>2019-05-12T11:50:08Z</time>
      </trkpt>
      <trkpt lat="47.05929" lon="5.79326">
        <ele>314.1</ele>
        <time>2019-05-12T11:50:12Z</time>
      </trkpt>
      <trkpt lat="47.05925" lon="5.79322">
        <ele>314</ele>
        <time>2019-05-12T11:50:29Z</time>
      </trkpt>
      <trkpt lat="47.05928" lon="5.79326">
        <ele>307.8</ele>
        <time>2019-05-12T11:50:58Z</time>
      </trkpt>
      <trkpt lat="47.05933" lon="5.79329">
        <ele>306.4</ele>
        <time>2019-05-12T11:51:04Z</time>
      </trkpt>
      <trkpt lat="47.05938" lon="5.79329">
        <ele>305.5</ele>
        <time>2019-05-12T11:51:12Z</time>
      </trkpt>
      <trkpt lat="47.05944" lon="5.79329">
        <ele>305.8</ele>
        <time>2019-05-12T11:51:18Z</time>
      </trkpt>
      <trkpt lat="47.05949" lon="5.79328">
        <ele>306.1</ele>
        <time>2019-05-12T11:51:21Z</time>
      </trkpt>
      <trkpt lat="47.05954" lon="5.79327">
        <ele>306.9</ele>
        <time>2019-05-12T11:51:28Z</time>
      </trkpt>
      <trkpt lat="47.05959" lon="5.79329">
        <ele>307.4</ele>
        <time>2019-05-12T11:51:32Z</time>
      </trkpt>
      <trkpt lat="47.05965" lon="5.79328">
        <ele>308.1</ele>
        <time>2019-05-12T11:51:37Z</time>
      </trkpt>
      <trkpt lat="47.0597" lon="5.79327">
        <ele>308.3</ele>
        <time>2019-05-12T11:51:40Z</time>
      </trkpt>
      <trkpt lat="47.05975" lon="5.79327">
        <ele>308.4</ele>
        <time>2019-05-12T11:51:44Z</time>
      </trkpt>
      <trkpt lat="47.05979" lon="5.79326">
        <ele>308.4</ele>
        <time>2019-05-12T11:51:49Z</time>
      </trkpt>
      <trkpt lat="47.05987" lon="5.79327">
        <ele>308</ele>
        <time>2019-05-12T11:52:00Z</time>
      </trkpt>
      <trkpt lat="47.05992" lon="5.79328">
        <ele>307.5</ele>
        <time>2019-05-12T11:52:04Z</time>
      </trkpt>
      <trkpt lat="47.05997" lon="5.79327">
        <ele>306.7</ele>
        <time>2019-05-12T11:52:09Z</time>
      </trkpt>
      <trkpt lat="47.06001" lon="5.79327">
        <ele>306</ele>
        <time>2019-05-12T11:52:13Z</time>
      </trkpt>
      <trkpt lat="47.06006" lon="5.79326">
        <ele>305</ele>
        <time>2019-05-12T11:52:17Z</time>
      </trkpt>
      <trkpt lat="47.06011" lon="5.79326">
        <ele>303.9</ele>
        <time>2019-05-12T11:52:22Z</time>
      </trkpt>
      <trkpt lat="47.06016" lon="5.79325">
        <ele>303.2</ele>
        <time>2019-05-12T11:52:26Z</time>
      </trkpt>
      <trkpt lat="47.06021" lon="5.79323">
        <ele>302.7</ele>
        <time>2019-05-12T11:52:31Z</time>
      </trkpt>
      <trkpt lat="47.06026" lon="5.79321">
        <ele>302.5</ele>
        <time>2019-05-12T11:52:35Z</time>
      </trkpt>
      <trkpt lat="47.0603" lon="5.7932">
        <ele>302.3</ele>
        <time>2019-05-12T11:52:39Z</time>
      </trkpt>
      <trkpt lat="47.06036" lon="5.7932">
        <ele>302.1</ele>
        <time>2019-05-12T11:52:44Z</time>
      </trkpt>
      <trkpt lat="47.06041" lon="5.7932">
        <ele>302</ele>
        <time>2019-05-12T11:52:48Z</time>
      </trkpt>
      <trkpt lat="47.06046" lon="5.7932">
        <ele>302.1</ele>
        <time>2019-05-12T11:52:53Z</time>
      </trkpt>
      <trkpt lat="47.06051" lon="5.79323">
        <ele>302.1</ele>
        <time>2019-05-12T11:52:58Z</time>
      </trkpt>
      <trkpt lat="47.06055" lon="5.79322">
        <ele>302.4</ele>
        <time>2019-05-12T11:53:01Z</time>
      </trkpt>
      <trkpt lat="47.06061" lon="5.79321">
        <ele>303.6</ele>
        <time>2019-05-12T11:53:12Z</time>
      </trkpt>
      <trkpt lat="47.06065" lon="5.7932">
        <ele>304.2</ele>
        <time>2019-05-12T11:53:16Z</time>
      </trkpt>
      <trkpt lat="47.0607" lon="5.79319">
        <ele>304.7</ele>
        <time>2019-05-12T11:53:20Z</time>
      </trkpt>
      <trkpt lat="47.06085" lon="5.79311">
        <ele>306.5</ele>
        <time>2019-05-12T11:53:33Z</time>
      </trkpt>
      <trkpt lat="47.06096" lon="5.79299">
        <ele>307.3</ele>
        <time>2019-05-12T11:53:45Z</time>
      </trkpt>
      <trkpt lat="47.06101" lon="5.79297">
        <ele>307.9</ele>
        <time>2019-05-12T11:53:49Z</time>
      </trkpt>
      <trkpt lat="47.06106" lon="5.79295">
        <ele>308.6</ele>
        <time>2019-05-12T11:53:53Z</time>
      </trkpt>
      <trkpt lat="47.06111" lon="5.79294">
        <ele>309.3</ele>
        <time>2019-05-12T11:53:57Z</time>
      </trkpt>
      <trkpt lat="47.06116" lon="5.79292">
        <ele>310.2</ele>
        <time>2019-05-12T11:54:01Z</time>
      </trkpt>
      <trkpt lat="47.0612" lon="5.79289">
        <ele>311.1</ele>
        <time>2019-05-12T11:54:06Z</time>
      </trkpt>
      <trkpt lat="47.06124" lon="5.79284">
        <ele>311.8</ele>
        <time>2019-05-12T11:54:10Z</time>
      </trkpt>
      <trkpt lat="47.06128" lon="5.7928">
        <ele>312.6</ele>
        <time>2019-05-12T11:54:15Z</time>
      </trkpt>
      <trkpt lat="47.06133" lon="5.79279">
        <ele>313.5</ele>
        <time>2019-05-12T11:54:22Z</time>
      </trkpt>
      <trkpt lat="47.06138" lon="5.79279">
        <ele>313.7</ele>
        <time>2019-05-12T11:54:27Z</time>
      </trkpt>
      <trkpt lat="47.0615" lon="5.79277">
        <ele>313.3</ele>
        <time>2019-05-12T11:54:42Z</time>
      </trkpt>
      <trkpt lat="47.06155" lon="5.79275">
        <ele>313.1</ele>
        <time>2019-05-12T11:54:48Z</time>
      </trkpt>
      <trkpt lat="47.06166" lon="5.79269">
        <ele>312.3</ele>
        <time>2019-05-12T11:55:02Z</time>
      </trkpt>
      <trkpt lat="47.06171" lon="5.79268">
        <ele>312.2</ele>
        <time>2019-05-12T11:55:05Z</time>
      </trkpt>
      <trkpt lat="47.06185" lon="5.79256">
        <ele>312.1</ele>
        <time>2019-05-12T11:55:23Z</time>
      </trkpt>
      <trkpt lat="47.0619" lon="5.79254">
        <ele>311.7</ele>
        <time>2019-05-12T11:55:29Z</time>
      </trkpt>
      <trkpt lat="47.06192" lon="5.79248">
        <ele>311.6</ele>
        <time>2019-05-12T11:55:36Z</time>
      </trkpt>
      <trkpt lat="47.06192" lon="5.79241">
        <ele>311.5</ele>
        <time>2019-05-12T11:55:39Z</time>
      </trkpt>
      <trkpt lat="47.06195" lon="5.79235">
        <ele>311.7</ele>
        <time>2019-05-12T11:55:47Z</time>
      </trkpt>
      <trkpt lat="47.062" lon="5.79231">
        <ele>312.5</ele>
        <time>2019-05-12T11:55:57Z</time>
      </trkpt>
      <trkpt lat="47.06204" lon="5.79229">
        <ele>312.7</ele>
        <time>2019-05-12T11:56:01Z</time>
      </trkpt>
      <trkpt lat="47.06209" lon="5.79226">
        <ele>312.8</ele>
        <time>2019-05-12T11:56:06Z</time>
      </trkpt>
      <trkpt lat="47.06214" lon="5.79225">
        <ele>312.8</ele>
        <time>2019-05-12T11:56:15Z</time>
      </trkpt>
      <trkpt lat="47.06227" lon="5.79228">
        <ele>317.1</ele>
        <time>2019-05-12T11:58:50Z</time>
      </trkpt>
      <trkpt lat="47.06231" lon="5.79234">
        <ele>318</ele>
        <time>2019-05-12T11:58:56Z</time>
      </trkpt>
      <trkpt lat="47.06236" lon="5.79239">
        <ele>319</ele>
        <time>2019-05-12T11:59:00Z</time>
      </trkpt>
      <trkpt lat="47.0624" lon="5.79242">
        <ele>319.8</ele>
        <time>2019-05-12T11:59:03Z</time>
      </trkpt>
      <trkpt lat="47.06245" lon="5.79243">
        <ele>320.4</ele>
        <time>2019-05-12T11:59:05Z</time>
      </trkpt>
      <trkpt lat="47.06249" lon="5.79245">
        <ele>322</ele>
        <time>2019-05-12T11:59:10Z</time>
      </trkpt>
      <trkpt lat="47.06254" lon="5.79249">
        <ele>324.5</ele>
        <time>2019-05-12T11:59:18Z</time>
      </trkpt>
      <trkpt lat="47.06259" lon="5.79253">
        <ele>326.2</ele>
        <time>2019-05-12T11:59:23Z</time>
      </trkpt>
      <trkpt lat="47.06264" lon="5.79256">
        <ele>327.2</ele>
        <time>2019-05-12T11:59:26Z</time>
      </trkpt>
      <trkpt lat="47.06269" lon="5.79258">
        <ele>328.1</ele>
        <time>2019-05-12T11:59:29Z</time>
      </trkpt>
      <trkpt lat="47.06273" lon="5.7926">
        <ele>329.2</ele>
        <time>2019-05-12T11:59:33Z</time>
      </trkpt>
      <trkpt lat="47.06278" lon="5.79264">
        <ele>331.1</ele>
        <time>2019-05-12T11:59:41Z</time>
      </trkpt>
      <trkpt lat="47.06285" lon="5.79273">
        <ele>333.3</ele>
        <time>2019-05-12T12:00:00Z</time>
      </trkpt>
      <trkpt lat="47.0629" lon="5.79276">
        <ele>333.6</ele>
        <time>2019-05-12T12:00:05Z</time>
      </trkpt>
      <trkpt lat="47.06294" lon="5.79278">
        <ele>333.8</ele>
        <time>2019-05-12T12:00:10Z</time>
      </trkpt>
      <trkpt lat="47.06298" lon="5.79282">
        <ele>334.1</ele>
        <time>2019-05-12T12:00:19Z</time>
      </trkpt>
      <trkpt lat="47.06302" lon="5.79286">
        <ele>334.3</ele>
        <time>2019-05-12T12:00:26Z</time>
      </trkpt>
      <trkpt lat="47.06306" lon="5.7929">
        <ele>334.6</ele>
        <time>2019-05-12T12:00:36Z</time>
      </trkpt>
      <trkpt lat="47.06312" lon="5.79291">
        <ele>334.6</ele>
        <time>2019-05-12T12:00:41Z</time>
      </trkpt>
      <trkpt lat="47.06316" lon="5.79292">
        <ele>334.5</ele>
        <time>2019-05-12T12:00:45Z</time>
      </trkpt>
      <trkpt lat="47.06321" lon="5.79295">
        <ele>334.2</ele>
        <time>2019-05-12T12:00:49Z</time>
      </trkpt>
      <trkpt lat="47.06325" lon="5.79298">
        <ele>333.8</ele>
        <time>2019-05-12T12:00:54Z</time>
      </trkpt>
      <trkpt lat="47.0633" lon="5.793">
        <ele>333.5</ele>
        <time>2019-05-12T12:00:58Z</time>
      </trkpt>
      <trkpt lat="47.06335" lon="5.79303">
        <ele>332.8</ele>
        <time>2019-05-12T12:01:03Z</time>
      </trkpt>
      <trkpt lat="47.06338" lon="5.79308">
        <ele>332.2</ele>
        <time>2019-05-12T12:01:09Z</time>
      </trkpt>
      <trkpt lat="47.06342" lon="5.79312">
        <ele>331.8</ele>
        <time>2019-05-12T12:01:15Z</time>
      </trkpt>
      <trkpt lat="47.06347" lon="5.79313">
        <ele>331.5</ele>
        <time>2019-05-12T12:01:22Z</time>
      </trkpt>
      <trkpt lat="47.06352" lon="5.79314">
        <ele>331.5</ele>
        <time>2019-05-12T12:01:25Z</time>
      </trkpt>
      <trkpt lat="47.06357" lon="5.79316">
        <ele>331.5</ele>
        <time>2019-05-12T12:01:29Z</time>
      </trkpt>
      <trkpt lat="47.06361" lon="5.79318">
        <ele>331.5</ele>
        <time>2019-05-12T12:01:36Z</time>
      </trkpt>
      <trkpt lat="47.06367" lon="5.7932">
        <ele>331.6</ele>
        <time>2019-05-12T12:01:40Z</time>
      </trkpt>
      <trkpt lat="47.06371" lon="5.79322">
        <ele>331.9</ele>
        <time>2019-05-12T12:01:43Z</time>
      </trkpt>
      <trkpt lat="47.0638" lon="5.7933">
        <ele>333.3</ele>
        <time>2019-05-12T12:01:55Z</time>
      </trkpt>
      <trkpt lat="47.06384" lon="5.79334">
        <ele>333.8</ele>
        <time>2019-05-12T12:02:02Z</time>
      </trkpt>
      <trkpt lat="47.06389" lon="5.79337">
        <ele>335</ele>
        <time>2019-05-12T12:02:10Z</time>
      </trkpt>
      <trkpt lat="47.06394" lon="5.79339">
        <ele>335.8</ele>
        <time>2019-05-12T12:02:15Z</time>
      </trkpt>
      <trkpt lat="47.06399" lon="5.79342">
        <ele>336.7</ele>
        <time>2019-05-12T12:02:21Z</time>
      </trkpt>
      <trkpt lat="47.06402" lon="5.79347">
        <ele>337</ele>
        <time>2019-05-12T12:02:24Z</time>
      </trkpt>
      <trkpt lat="47.06406" lon="5.79351">
        <ele>337.3</ele>
        <time>2019-05-12T12:02:29Z</time>
      </trkpt>
      <trkpt lat="47.0641" lon="5.79356">
        <ele>337.5</ele>
        <time>2019-05-12T12:02:37Z</time>
      </trkpt>
      <trkpt lat="47.06414" lon="5.7936">
        <ele>337.7</ele>
        <time>2019-05-12T12:02:41Z</time>
      </trkpt>
      <trkpt lat="47.06418" lon="5.79364">
        <ele>337.8</ele>
        <time>2019-05-12T12:02:45Z</time>
      </trkpt>
      <trkpt lat="47.06422" lon="5.79366">
        <ele>338</ele>
        <time>2019-05-12T12:02:51Z</time>
      </trkpt>
      <trkpt lat="47.06427" lon="5.79367">
        <ele>338.6</ele>
        <time>2019-05-12T12:02:58Z</time>
      </trkpt>
      <trkpt lat="47.06432" lon="5.79369">
        <ele>339.3</ele>
        <time>2019-05-12T12:03:04Z</time>
      </trkpt>
      <trkpt lat="47.06437" lon="5.79371">
        <ele>339.7</ele>
        <time>2019-05-12T12:03:08Z</time>
      </trkpt>
      <trkpt lat="47.06441" lon="5.79376">
        <ele>340.2</ele>
        <time>2019-05-12T12:03:13Z</time>
      </trkpt>
      <trkpt lat="47.06445" lon="5.7938">
        <ele>340.7</ele>
        <time>2019-05-12T12:03:17Z</time>
      </trkpt>
      <trkpt lat="47.06449" lon="5.79382">
        <ele>341.3</ele>
        <time>2019-05-12T12:03:22Z</time>
      </trkpt>
      <trkpt lat="47.06454" lon="5.79384">
        <ele>342.2</ele>
        <time>2019-05-12T12:03:27Z</time>
      </trkpt>
      <trkpt lat="47.06459" lon="5.79387">
        <ele>343.4</ele>
        <time>2019-05-12T12:03:32Z</time>
      </trkpt>
      <trkpt lat="47.06464" lon="5.7939">
        <ele>344.6</ele>
        <time>2019-05-12T12:03:36Z</time>
      </trkpt>
      <trkpt lat="47.06468" lon="5.79393">
        <ele>346.3</ele>
        <time>2019-05-12T12:03:42Z</time>
      </trkpt>
      <trkpt lat="47.06473" lon="5.79393">
        <ele>347.4</ele>
        <time>2019-05-12T12:03:46Z</time>
      </trkpt>
      <trkpt lat="47.06478" lon="5.79393">
        <ele>348.4</ele>
        <time>2019-05-12T12:03:51Z</time>
      </trkpt>
      <trkpt lat="47.06483" lon="5.79394">
        <ele>349.1</ele>
        <time>2019-05-12T12:03:56Z</time>
      </trkpt>
      <trkpt lat="47.06487" lon="5.79397">
        <ele>349.8</ele>
        <time>2019-05-12T12:04:03Z</time>
      </trkpt>
      <trkpt lat="47.0649" lon="5.79402">
        <ele>350.4</ele>
        <time>2019-05-12T12:04:08Z</time>
      </trkpt>
      <trkpt lat="47.06494" lon="5.79406">
        <ele>351</ele>
        <time>2019-05-12T12:04:13Z</time>
      </trkpt>
      <trkpt lat="47.06497" lon="5.79412">
        <ele>351.5</ele>
        <time>2019-05-12T12:04:19Z</time>
      </trkpt>
      <trkpt lat="47.065" lon="5.79417">
        <ele>352</ele>
        <time>2019-05-12T12:04:26Z</time>
      </trkpt>
      <trkpt lat="47.06503" lon="5.79422">
        <ele>352.6</ele>
        <time>2019-05-12T12:04:33Z</time>
      </trkpt>
      <trkpt lat="47.06507" lon="5.79428">
        <ele>353.3</ele>
        <time>2019-05-12T12:04:37Z</time>
      </trkpt>
      <trkpt lat="47.06512" lon="5.79433">
        <ele>353.8</ele>
        <time>2019-05-12T12:04:40Z</time>
      </trkpt>
      <trkpt lat="47.06516" lon="5.79437">
        <ele>354.6</ele>
        <time>2019-05-12T12:04:44Z</time>
      </trkpt>
      <trkpt lat="47.06519" lon="5.79443">
        <ele>355.8</ele>
        <time>2019-05-12T12:04:49Z</time>
      </trkpt>
      <trkpt lat="47.06522" lon="5.79449">
        <ele>356.7</ele>
        <time>2019-05-12T12:04:53Z</time>
      </trkpt>
      <trkpt lat="47.06525" lon="5.79455">
        <ele>357.8</ele>
        <time>2019-05-12T12:04:58Z</time>
      </trkpt>
      <trkpt lat="47.06529" lon="5.79459">
        <ele>359.1</ele>
        <time>2019-05-12T12:05:04Z</time>
      </trkpt>
      <trkpt lat="47.06532" lon="5.79464">
        <ele>360</ele>
        <time>2019-05-12T12:05:08Z</time>
      </trkpt>
      <trkpt lat="47.06536" lon="5.79468">
        <ele>360.7</ele>
        <time>2019-05-12T12:05:11Z</time>
      </trkpt>
      <trkpt lat="47.06542" lon="5.7947">
        <ele>361.6</ele>
        <time>2019-05-12T12:05:16Z</time>
      </trkpt>
      <trkpt lat="47.06547" lon="5.79471">
        <ele>362.2</ele>
        <time>2019-05-12T12:05:20Z</time>
      </trkpt>
      <trkpt lat="47.06552" lon="5.79472">
        <ele>362.8</ele>
        <time>2019-05-12T12:05:25Z</time>
      </trkpt>
      <trkpt lat="47.06556" lon="5.79476">
        <ele>363.5</ele>
        <time>2019-05-12T12:05:31Z</time>
      </trkpt>
      <trkpt lat="47.0656" lon="5.79481">
        <ele>364.2</ele>
        <time>2019-05-12T12:05:39Z</time>
      </trkpt>
      <trkpt lat="47.06564" lon="5.79484">
        <ele>364.8</ele>
        <time>2019-05-12T12:05:46Z</time>
      </trkpt>
      <trkpt lat="47.06567" lon="5.7949">
        <ele>365.1</ele>
        <time>2019-05-12T12:05:50Z</time>
      </trkpt>
      <trkpt lat="47.06571" lon="5.79494">
        <ele>365.3</ele>
        <time>2019-05-12T12:05:55Z</time>
      </trkpt>
      <trkpt lat="47.06575" lon="5.79498">
        <ele>365.6</ele>
        <time>2019-05-12T12:06:00Z</time>
      </trkpt>
      <trkpt lat="47.06584" lon="5.79504">
        <ele>366.1</ele>
        <time>2019-05-12T12:06:10Z</time>
      </trkpt>
      <trkpt lat="47.06588" lon="5.79508">
        <ele>366.2</ele>
        <time>2019-05-12T12:06:13Z</time>
      </trkpt>
      <trkpt lat="47.06592" lon="5.79512">
        <ele>366.4</ele>
        <time>2019-05-12T12:06:17Z</time>
      </trkpt>
      <trkpt lat="47.06596" lon="5.79516">
        <ele>366.7</ele>
        <time>2019-05-12T12:06:21Z</time>
      </trkpt>
      <trkpt lat="47.066" lon="5.79518">
        <ele>366.8</ele>
        <time>2019-05-12T12:06:26Z</time>
      </trkpt>
      <trkpt lat="47.06605" lon="5.7952">
        <ele>367</ele>
        <time>2019-05-12T12:06:31Z</time>
      </trkpt>
      <trkpt lat="47.0661" lon="5.79523">
        <ele>367.2</ele>
        <time>2019-05-12T12:06:36Z</time>
      </trkpt>
      <trkpt lat="47.06615" lon="5.79523">
        <ele>367.6</ele>
        <time>2019-05-12T12:06:43Z</time>
      </trkpt>
      <trkpt lat="47.0662" lon="5.79521">
        <ele>368.1</ele>
        <time>2019-05-12T12:06:51Z</time>
      </trkpt>
      <trkpt lat="47.06624" lon="5.79521">
        <ele>368.3</ele>
        <time>2019-05-12T12:06:56Z</time>
      </trkpt>
      <trkpt lat="47.06629" lon="5.79522">
        <ele>368.5</ele>
        <time>2019-05-12T12:07:01Z</time>
      </trkpt>
      <trkpt lat="47.06634" lon="5.79523">
        <ele>368.8</ele>
        <time>2019-05-12T12:07:05Z</time>
      </trkpt>
      <trkpt lat="47.06639" lon="5.79524">
        <ele>369.1</ele>
        <time>2019-05-12T12:07:11Z</time>
      </trkpt>
      <trkpt lat="47.06644" lon="5.79524">
        <ele>369</ele>
        <time>2019-05-12T12:07:19Z</time>
      </trkpt>
      <trkpt lat="47.06649" lon="5.79527">
        <ele>368.8</ele>
        <time>2019-05-12T12:07:24Z</time>
      </trkpt>
      <trkpt lat="47.06654" lon="5.79526">
        <ele>368.5</ele>
        <time>2019-05-12T12:07:28Z</time>
      </trkpt>
      <trkpt lat="47.06659" lon="5.79528">
        <ele>368.4</ele>
        <time>2019-05-12T12:07:34Z</time>
      </trkpt>
      <trkpt lat="47.06663" lon="5.79533">
        <ele>368.4</ele>
        <time>2019-05-12T12:07:39Z</time>
      </trkpt>
      <trkpt lat="47.06667" lon="5.79537">
        <ele>368.3</ele>
        <time>2019-05-12T12:07:45Z</time>
      </trkpt>
      <trkpt lat="47.06673" lon="5.79538">
        <ele>368.4</ele>
        <time>2019-05-12T12:07:48Z</time>
      </trkpt>
      <trkpt lat="47.06687" lon="5.79544">
        <ele>371.5</ele>
        <time>2019-05-12T12:08:04Z</time>
      </trkpt>
      <trkpt lat="47.06691" lon="5.79548">
        <ele>372.4</ele>
        <time>2019-05-12T12:08:10Z</time>
      </trkpt>
      <trkpt lat="47.06715" lon="5.79561">
        <ele>376.3</ele>
        <time>2019-05-12T12:08:35Z</time>
      </trkpt>
      <trkpt lat="47.0672" lon="5.79562">
        <ele>376.7</ele>
        <time>2019-05-12T12:08:38Z</time>
      </trkpt>
      <trkpt lat="47.06728" lon="5.7956">
        <ele>378.6</ele>
        <time>2019-05-12T12:08:49Z</time>
      </trkpt>
      <trkpt lat="47.06733" lon="5.79559">
        <ele>379.3</ele>
        <time>2019-05-12T12:08:54Z</time>
      </trkpt>
      <trkpt lat="47.0674" lon="5.79562">
        <ele>382</ele>
        <time>2019-05-12T12:09:05Z</time>
      </trkpt>
      <trkpt lat="47.06753" lon="5.79567">
        <ele>383.9</ele>
        <time>2019-05-12T12:09:18Z</time>
      </trkpt>
      <trkpt lat="47.06769" lon="5.79573">
        <ele>385.7</ele>
        <time>2019-05-12T12:09:37Z</time>
      </trkpt>
      <trkpt lat="47.0678" lon="5.7957">
        <ele>387.3</ele>
        <time>2019-05-12T12:09:51Z</time>
      </trkpt>
      <trkpt lat="47.068" lon="5.79576">
        <ele>388.4</ele>
        <time>2019-05-12T12:10:21Z</time>
      </trkpt>
      <trkpt lat="47.06805" lon="5.79577">
        <ele>389.2</ele>
        <time>2019-05-12T12:10:31Z</time>
      </trkpt>
      <trkpt lat="47.0681" lon="5.79579">
        <ele>389.5</ele>
        <time>2019-05-12T12:10:35Z</time>
      </trkpt>
      <trkpt lat="47.06819" lon="5.79587">
        <ele>390.8</ele>
        <time>2019-05-12T12:10:51Z</time>
      </trkpt>
      <trkpt lat="47.06824" lon="5.79587">
        <ele>391.7</ele>
        <time>2019-05-12T12:10:56Z</time>
      </trkpt>
      <trkpt lat="47.06829" lon="5.79588">
        <ele>392.7</ele>
        <time>2019-05-12T12:11:01Z</time>
      </trkpt>
      <trkpt lat="47.06834" lon="5.79592">
        <ele>393.6</ele>
        <time>2019-05-12T12:11:07Z</time>
      </trkpt>
      <trkpt lat="47.06839" lon="5.79594">
        <ele>394.2</ele>
        <time>2019-05-12T12:11:13Z</time>
      </trkpt>
      <trkpt lat="47.06844" lon="5.79596">
        <ele>394.5</ele>
        <time>2019-05-12T12:11:18Z</time>
      </trkpt>
      <trkpt lat="47.06849" lon="5.79598">
        <ele>395</ele>
        <time>2019-05-12T12:11:27Z</time>
      </trkpt>
      <trkpt lat="47.06854" lon="5.79599">
        <ele>395.6</ele>
        <time>2019-05-12T12:11:33Z</time>
      </trkpt>
      <trkpt lat="47.06859" lon="5.79598">
        <ele>396.7</ele>
        <time>2019-05-12T12:11:45Z</time>
      </trkpt>
      <trkpt lat="47.06865" lon="5.79595">
        <ele>396.8</ele>
        <time>2019-05-12T12:11:47Z</time>
      </trkpt>
      <trkpt lat="47.0687" lon="5.79593">
        <ele>396.9</ele>
        <time>2019-05-12T12:11:51Z</time>
      </trkpt>
      <trkpt lat="47.06876" lon="5.79593">
        <ele>396.8</ele>
        <time>2019-05-12T12:11:56Z</time>
      </trkpt>
      <trkpt lat="47.06881" lon="5.79592">
        <ele>396.7</ele>
        <time>2019-05-12T12:11:58Z</time>
      </trkpt>
      <trkpt lat="47.06886" lon="5.79591">
        <ele>396.7</ele>
        <time>2019-05-12T12:12:02Z</time>
      </trkpt>
      <trkpt lat="47.06889" lon="5.79595">
        <ele>396.9</ele>
        <time>2019-05-12T12:12:08Z</time>
      </trkpt>
      <trkpt lat="47.06895" lon="5.79598">
        <ele>397.2</ele>
        <time>2019-05-12T12:12:13Z</time>
      </trkpt>
      <trkpt lat="47.069" lon="5.79598">
        <ele>397.3</ele>
        <time>2019-05-12T12:12:17Z</time>
      </trkpt>
      <trkpt lat="47.06904" lon="5.79597">
        <ele>396.9</ele>
        <time>2019-05-12T12:12:23Z</time>
      </trkpt>
      <trkpt lat="47.06912" lon="5.79597">
        <ele>401.2</ele>
        <time>2019-05-12T12:14:24Z</time>
      </trkpt>
      <trkpt lat="47.06922" lon="5.79593">
        <ele>400.5</ele>
        <time>2019-05-12T12:15:31Z</time>
      </trkpt>
      <trkpt lat="47.06927" lon="5.79593">
        <ele>401.6</ele>
        <time>2019-05-12T12:15:43Z</time>
      </trkpt>
      <trkpt lat="47.06932" lon="5.79596">
        <ele>402</ele>
        <time>2019-05-12T12:15:46Z</time>
      </trkpt>
      <trkpt lat="47.06938" lon="5.79599">
        <ele>402.5</ele>
        <time>2019-05-12T12:15:49Z</time>
      </trkpt>
      <trkpt lat="47.0695" lon="5.79608">
        <ele>405.7</ele>
        <time>2019-05-12T12:16:00Z</time>
      </trkpt>
      <trkpt lat="47.06955" lon="5.7961">
        <ele>406.2</ele>
        <time>2019-05-12T12:16:05Z</time>
      </trkpt>
      <trkpt lat="47.06959" lon="5.79613">
        <ele>406.5</ele>
        <time>2019-05-12T12:16:11Z</time>
      </trkpt>
      <trkpt lat="47.06962" lon="5.79617">
        <ele>407.3</ele>
        <time>2019-05-12T12:16:21Z</time>
      </trkpt>
      <trkpt lat="47.0696" lon="5.79623">
        <ele>409.3</ele>
        <time>2019-05-12T12:16:44Z</time>
      </trkpt>
      <trkpt lat="47.06963" lon="5.79614">
        <ele>412</ele>
        <time>2019-05-12T12:17:51Z</time>
      </trkpt>
      <trkpt lat="47.06972" lon="5.7962">
        <ele>415.3</ele>
        <time>2019-05-12T12:18:56Z</time>
      </trkpt>
      <trkpt lat="47.06977" lon="5.7962">
        <ele>415.6</ele>
        <time>2019-05-12T12:19:01Z</time>
      </trkpt>
      <trkpt lat="47.06982" lon="5.79621">
        <ele>415.8</ele>
        <time>2019-05-12T12:19:04Z</time>
      </trkpt>
      <trkpt lat="47.06987" lon="5.7962">
        <ele>416.2</ele>
        <time>2019-05-12T12:19:08Z</time>
      </trkpt>
      <trkpt lat="47.06992" lon="5.79619">
        <ele>417</ele>
        <time>2019-05-12T12:19:13Z</time>
      </trkpt>
      <trkpt lat="47.06998" lon="5.79618">
        <ele>417.6</ele>
        <time>2019-05-12T12:19:16Z</time>
      </trkpt>
      <trkpt lat="47.07002" lon="5.79616">
        <ele>418.2</ele>
        <time>2019-05-12T12:19:19Z</time>
      </trkpt>
      <trkpt lat="47.07008" lon="5.79615">
        <ele>419.2</ele>
        <time>2019-05-12T12:19:24Z</time>
      </trkpt>
      <trkpt lat="47.07013" lon="5.79615">
        <ele>419.9</ele>
        <time>2019-05-12T12:19:28Z</time>
      </trkpt>
      <trkpt lat="47.07017" lon="5.79617">
        <ele>420.7</ele>
        <time>2019-05-12T12:19:35Z</time>
      </trkpt>
      <trkpt lat="47.07022" lon="5.79617">
        <ele>421.1</ele>
        <time>2019-05-12T12:19:41Z</time>
      </trkpt>
      <trkpt lat="47.07027" lon="5.79618">
        <ele>420.9</ele>
        <time>2019-05-12T12:19:49Z</time>
      </trkpt>
      <trkpt lat="47.07032" lon="5.79617">
        <ele>420.5</ele>
        <time>2019-05-12T12:19:55Z</time>
      </trkpt>
      <trkpt lat="47.07036" lon="5.79614">
        <ele>420.1</ele>
        <time>2019-05-12T12:19:59Z</time>
      </trkpt>
      <trkpt lat="47.07041" lon="5.79612">
        <ele>419.7</ele>
        <time>2019-05-12T12:20:04Z</time>
      </trkpt>
      <trkpt lat="47.07045" lon="5.7961">
        <ele>419.4</ele>
        <time>2019-05-12T12:20:09Z</time>
      </trkpt>
      <trkpt lat="47.07053" lon="5.7961">
        <ele>418.1</ele>
        <time>2019-05-12T12:20:22Z</time>
      </trkpt>
      <trkpt lat="47.07058" lon="5.79609">
        <ele>416.8</ele>
        <time>2019-05-12T12:20:30Z</time>
      </trkpt>
      <trkpt lat="47.07063" lon="5.79611">
        <ele>415.7</ele>
        <time>2019-05-12T12:20:38Z</time>
      </trkpt>
      <trkpt lat="47.07067" lon="5.79613">
        <ele>415.1</ele>
        <time>2019-05-12T12:20:46Z</time>
      </trkpt>
      <trkpt lat="47.07073" lon="5.79613">
        <ele>414.7</ele>
        <time>2019-05-12T12:20:50Z</time>
      </trkpt>
      <trkpt lat="47.07084" lon="5.79617">
        <ele>416.9</ele>
        <time>2019-05-12T12:21:26Z</time>
      </trkpt>
      <trkpt lat="47.07089" lon="5.79616">
        <ele>422.1</ele>
        <time>2019-05-12T12:22:05Z</time>
      </trkpt>
      <trkpt lat="47.07102" lon="5.79609">
        <ele>424.4</ele>
        <time>2019-05-12T12:22:35Z</time>
      </trkpt>
      <trkpt lat="47.07104" lon="5.79615">
        <ele>427.7</ele>
        <time>2019-05-12T12:23:20Z</time>
      </trkpt>
      <trkpt lat="47.07106" lon="5.79622">
        <ele>428</ele>
        <time>2019-05-12T12:23:23Z</time>
      </trkpt>
      <trkpt lat="47.07109" lon="5.7963">
        <ele>428.2</ele>
        <time>2019-05-12T12:23:25Z</time>
      </trkpt>
      <trkpt lat="47.07111" lon="5.79637">
        <ele>428.3</ele>
        <time>2019-05-12T12:23:27Z</time>
      </trkpt>
      <trkpt lat="47.07114" lon="5.79643">
        <ele>428.5</ele>
        <time>2019-05-12T12:23:31Z</time>
      </trkpt>
      <trkpt lat="47.07119" lon="5.79647">
        <ele>428.7</ele>
        <time>2019-05-12T12:23:37Z</time>
      </trkpt>
      <trkpt lat="47.07122" lon="5.79651">
        <ele>429.2</ele>
        <time>2019-05-12T12:23:44Z</time>
      </trkpt>
      <trkpt lat="47.07127" lon="5.7965">
        <ele>430</ele>
        <time>2019-05-12T12:23:52Z</time>
      </trkpt>
      <trkpt lat="47.07132" lon="5.79648">
        <ele>430.5</ele>
        <time>2019-05-12T12:23:57Z</time>
      </trkpt>
      <trkpt lat="47.07136" lon="5.79644">
        <ele>430.8</ele>
        <time>2019-05-12T12:24:06Z</time>
      </trkpt>
      <trkpt lat="47.0714" lon="5.79647">
        <ele>430.9</ele>
        <time>2019-05-12T12:24:21Z</time>
      </trkpt>
      <trkpt lat="47.07153" lon="5.79648">
        <ele>430.8</ele>
        <time>2019-05-12T12:24:38Z</time>
      </trkpt>
      <trkpt lat="47.07158" lon="5.7965">
        <ele>430.6</ele>
        <time>2019-05-12T12:24:43Z</time>
      </trkpt>
      <trkpt lat="47.07195" lon="5.79656">
        <ele>431.4</ele>
        <time>2019-05-12T12:25:12Z</time>
      </trkpt>
      <trkpt lat="47.072" lon="5.79659">
        <ele>432.3</ele>
        <time>2019-05-12T12:25:16Z</time>
      </trkpt>
      <trkpt lat="47.07205" lon="5.79659">
        <ele>432.9</ele>
        <time>2019-05-12T12:25:19Z</time>
      </trkpt>
      <trkpt lat="47.07212" lon="5.79661">
        <ele>434</ele>
        <time>2019-05-12T12:25:24Z</time>
      </trkpt>
      <trkpt lat="47.0722" lon="5.79662">
        <ele>436.4</ele>
        <time>2019-05-12T12:25:34Z</time>
      </trkpt>
      <trkpt lat="47.07224" lon="5.79663">
        <ele>437.2</ele>
        <time>2019-05-12T12:25:40Z</time>
      </trkpt>
      <trkpt lat="47.07232" lon="5.79669">
        <ele>438.5</ele>
        <time>2019-05-12T12:25:57Z</time>
      </trkpt>
      <trkpt lat="47.07239" lon="5.79671">
        <ele>438.9</ele>
        <time>2019-05-12T12:26:02Z</time>
      </trkpt>
      <trkpt lat="47.07243" lon="5.79674">
        <ele>439.3</ele>
        <time>2019-05-12T12:26:07Z</time>
      </trkpt>
      <trkpt lat="47.07275" lon="5.797">
        <ele>443.2</ele>
        <time>2019-05-12T12:26:44Z</time>
      </trkpt>
      <trkpt lat="47.07281" lon="5.79701">
        <ele>443.3</ele>
        <time>2019-05-12T12:26:49Z</time>
      </trkpt>
      <trkpt lat="47.07285" lon="5.79701">
        <ele>443.2</ele>
        <time>2019-05-12T12:26:53Z</time>
      </trkpt>
      <trkpt lat="47.07306" lon="5.79722">
        <ele>445.1</ele>
        <time>2019-05-12T12:27:33Z</time>
      </trkpt>
      <trkpt lat="47.07344" lon="5.79737">
        <ele>448.2</ele>
        <time>2019-05-12T12:28:05Z</time>
      </trkpt>
      <trkpt lat="47.0735" lon="5.79738">
        <ele>448.3</ele>
        <time>2019-05-12T12:28:09Z</time>
      </trkpt>
      <trkpt lat="47.07355" lon="5.79739">
        <ele>448.8</ele>
        <time>2019-05-12T12:28:19Z</time>
      </trkpt>
      <trkpt lat="47.0736" lon="5.79738">
        <ele>449.1</ele>
        <time>2019-05-12T12:28:30Z</time>
      </trkpt>
      <trkpt lat="47.07365" lon="5.79736">
        <ele>449.1</ele>
        <time>2019-05-12T12:28:35Z</time>
      </trkpt>
      <trkpt lat="47.0737" lon="5.79734">
        <ele>449.1</ele>
        <time>2019-05-12T12:28:37Z</time>
      </trkpt>
      <trkpt lat="47.07376" lon="5.79734">
        <ele>448.9</ele>
        <time>2019-05-12T12:28:46Z</time>
      </trkpt>
      <trkpt lat="47.07381" lon="5.79736">
        <ele>448.9</ele>
        <time>2019-05-12T12:28:49Z</time>
      </trkpt>
      <trkpt lat="47.074" lon="5.7974">
        <ele>448.9</ele>
        <time>2019-05-12T12:28:59Z</time>
      </trkpt>
      <trkpt lat="47.07404" lon="5.79741">
        <ele>449.2</ele>
        <time>2019-05-12T12:29:05Z</time>
      </trkpt>
      <trkpt lat="47.07412" lon="5.79744">
        <ele>450.9</ele>
        <time>2019-05-12T12:29:21Z</time>
      </trkpt>
      <trkpt lat="47.07426" lon="5.79755">
        <ele>450.5</ele>
        <time>2019-05-12T12:29:32Z</time>
      </trkpt>
      <trkpt lat="47.07431" lon="5.79758">
        <ele>450.5</ele>
        <time>2019-05-12T12:29:35Z</time>
      </trkpt>
      <trkpt lat="47.07436" lon="5.79759">
        <ele>450.5</ele>
        <time>2019-05-12T12:29:41Z</time>
      </trkpt>
      <trkpt lat="47.07442" lon="5.79761">
        <ele>450.5</ele>
        <time>2019-05-12T12:29:46Z</time>
      </trkpt>
      <trkpt lat="47.07448" lon="5.79764">
        <ele>450.5</ele>
        <time>2019-05-12T12:29:52Z</time>
      </trkpt>
      <trkpt lat="47.07461" lon="5.79773">
        <ele>450</ele>
        <time>2019-05-12T12:30:13Z</time>
      </trkpt>
      <trkpt lat="47.07484" lon="5.79795">
        <ele>460.7</ele>
        <time>2019-05-12T12:34:09Z</time>
      </trkpt>
      <trkpt lat="47.07493" lon="5.79806">
        <ele>462.3</ele>
        <time>2019-05-12T12:34:23Z</time>
      </trkpt>
      <trkpt lat="47.07541" lon="5.79862">
        <ele>464.8</ele>
        <time>2019-05-12T12:35:48Z</time>
      </trkpt>
      <trkpt lat="47.07559" lon="5.79872">
        <ele>464.4</ele>
        <time>2019-05-12T12:36:06Z</time>
      </trkpt>
      <trkpt lat="47.07568" lon="5.79877">
        <ele>464.5</ele>
        <time>2019-05-12T12:36:08Z</time>
      </trkpt>
      <trkpt lat="47.07572" lon="5.7988">
        <ele>464.4</ele>
        <time>2019-05-12T12:36:11Z</time>
      </trkpt>
      <trkpt lat="47.07575" lon="5.79888">
        <ele>464.1</ele>
        <time>2019-05-12T12:36:17Z</time>
      </trkpt>
      <trkpt lat="47.0758" lon="5.79893">
        <ele>463.9</ele>
        <time>2019-05-12T12:36:19Z</time>
      </trkpt>
      <trkpt lat="47.07583" lon="5.79898">
        <ele>463.7</ele>
        <time>2019-05-12T12:36:25Z</time>
      </trkpt>
      <trkpt lat="47.07588" lon="5.79903">
        <ele>463.7</ele>
        <time>2019-05-12T12:36:28Z</time>
      </trkpt>
      <trkpt lat="47.07593" lon="5.79905">
        <ele>463.8</ele>
        <time>2019-05-12T12:36:33Z</time>
      </trkpt>
      <trkpt lat="47.07611" lon="5.7991">
        <ele>464.8</ele>
        <time>2019-05-12T12:36:58Z</time>
      </trkpt>
      <trkpt lat="47.07614" lon="5.79915">
        <ele>465.5</ele>
        <time>2019-05-12T12:37:06Z</time>
      </trkpt>
      <trkpt lat="47.07616" lon="5.79921">
        <ele>466.1</ele>
        <time>2019-05-12T12:37:12Z</time>
      </trkpt>
      <trkpt lat="47.07617" lon="5.79928">
        <ele>466.4</ele>
        <time>2019-05-12T12:37:19Z</time>
      </trkpt>
      <trkpt lat="47.07624" lon="5.79949">
        <ele>467.5</ele>
        <time>2019-05-12T12:37:43Z</time>
      </trkpt>
      <trkpt lat="47.07626" lon="5.79955">
        <ele>466.7</ele>
        <time>2019-05-12T12:37:53Z</time>
      </trkpt>
      <trkpt lat="47.07632" lon="5.79958">
        <ele>465.8</ele>
        <time>2019-05-12T12:38:01Z</time>
      </trkpt>
      <trkpt lat="47.0764" lon="5.7997">
        <ele>462.6</ele>
        <time>2019-05-12T12:38:14Z</time>
      </trkpt>
      <trkpt lat="47.07644" lon="5.79975">
        <ele>462</ele>
        <time>2019-05-12T12:38:16Z</time>
      </trkpt>
      <trkpt lat="47.07654" lon="5.79986">
        <ele>458.4</ele>
        <time>2019-05-12T12:38:27Z</time>
      </trkpt>
      <trkpt lat="47.07658" lon="5.79993">
        <ele>457.4</ele>
        <time>2019-05-12T12:38:34Z</time>
      </trkpt>
      <trkpt lat="47.07662" lon="5.79999">
        <ele>457.1</ele>
        <time>2019-05-12T12:38:36Z</time>
      </trkpt>
      <trkpt lat="47.07666" lon="5.80003">
        <ele>456.5</ele>
        <time>2019-05-12T12:38:39Z</time>
      </trkpt>
      <trkpt lat="47.07668" lon="5.80009">
        <ele>456</ele>
        <time>2019-05-12T12:38:42Z</time>
      </trkpt>
      <trkpt lat="47.07671" lon="5.80015">
        <ele>455.2</ele>
        <time>2019-05-12T12:38:48Z</time>
      </trkpt>
      <trkpt lat="47.07673" lon="5.80022">
        <ele>454.7</ele>
        <time>2019-05-12T12:38:53Z</time>
      </trkpt>
      <trkpt lat="47.07684" lon="5.80037">
        <ele>452.9</ele>
        <time>2019-05-12T12:39:10Z</time>
      </trkpt>
      <trkpt lat="47.07689" lon="5.80039">
        <ele>452.9</ele>
        <time>2019-05-12T12:39:14Z</time>
      </trkpt>
      <trkpt lat="47.07693" lon="5.80041">
        <ele>453.9</ele>
        <time>2019-05-12T12:39:39Z</time>
      </trkpt>
      <trkpt lat="47.077" lon="5.8004">
        <ele>453.9</ele>
        <time>2019-05-12T12:39:42Z</time>
      </trkpt>
      <trkpt lat="47.07704" lon="5.80041">
        <ele>454.2</ele>
        <time>2019-05-12T12:39:57Z</time>
      </trkpt>
      <trkpt lat="47.07712" lon="5.80072">
        <ele>467.7</ele>
        <time>2019-05-12T12:48:53Z</time>
      </trkpt>
      <trkpt lat="47.07716" lon="5.80076">
        <ele>467.8</ele>
        <time>2019-05-12T12:48:58Z</time>
      </trkpt>
      <trkpt lat="47.07719" lon="5.80086">
        <ele>466.7</ele>
        <time>2019-05-12T12:49:20Z</time>
      </trkpt>
      <trkpt lat="47.07725" lon="5.80099">
        <ele>464.6</ele>
        <time>2019-05-12T12:49:47Z</time>
      </trkpt>
      <trkpt lat="47.07729" lon="5.80102">
        <ele>464.5</ele>
        <time>2019-05-12T12:49:50Z</time>
      </trkpt>
      <trkpt lat="47.07732" lon="5.80108">
        <ele>464.1</ele>
        <time>2019-05-12T12:49:56Z</time>
      </trkpt>
      <trkpt lat="47.07734" lon="5.80115">
        <ele>463.9</ele>
        <time>2019-05-12T12:49:59Z</time>
      </trkpt>
      <trkpt lat="47.07736" lon="5.80122">
        <ele>463.3</ele>
        <time>2019-05-12T12:50:05Z</time>
      </trkpt>
      <trkpt lat="47.0774" lon="5.80126">
        <ele>462.5</ele>
        <time>2019-05-12T12:50:12Z</time>
      </trkpt>
      <trkpt lat="47.07741" lon="5.80133">
        <ele>461</ele>
        <time>2019-05-12T12:50:21Z</time>
      </trkpt>
      <trkpt lat="47.07743" lon="5.80141">
        <ele>459.1</ele>
        <time>2019-05-12T12:50:28Z</time>
      </trkpt>
      <trkpt lat="47.07747" lon="5.80146">
        <ele>457.8</ele>
        <time>2019-05-12T12:50:32Z</time>
      </trkpt>
      <trkpt lat="47.0775" lon="5.80151">
        <ele>456.5</ele>
        <time>2019-05-12T12:50:37Z</time>
      </trkpt>
      <trkpt lat="47.07754" lon="5.80155">
        <ele>455.4</ele>
        <time>2019-05-12T12:50:42Z</time>
      </trkpt>
      <trkpt lat="47.07759" lon="5.80159">
        <ele>453.6</ele>
        <time>2019-05-12T12:50:50Z</time>
      </trkpt>
      <trkpt lat="47.07763" lon="5.80164">
        <ele>452.7</ele>
        <time>2019-05-12T12:50:54Z</time>
      </trkpt>
      <trkpt lat="47.07764" lon="5.80171">
        <ele>451.9</ele>
        <time>2019-05-12T12:50:57Z</time>
      </trkpt>
      <trkpt lat="47.07767" lon="5.80177">
        <ele>451.2</ele>
        <time>2019-05-12T12:51:00Z</time>
      </trkpt>
      <trkpt lat="47.07769" lon="5.80184">
        <ele>450.7</ele>
        <time>2019-05-12T12:51:02Z</time>
      </trkpt>
      <trkpt lat="47.0777" lon="5.8019">
        <ele>449.3</ele>
        <time>2019-05-12T12:51:07Z</time>
      </trkpt>
      <trkpt lat="47.07774" lon="5.80197">
        <ele>446.6</ele>
        <time>2019-05-12T12:51:20Z</time>
      </trkpt>
      <trkpt lat="47.07779" lon="5.80202">
        <ele>446.2</ele>
        <time>2019-05-12T12:51:24Z</time>
      </trkpt>
      <trkpt lat="47.07783" lon="5.80209">
        <ele>445.8</ele>
        <time>2019-05-12T12:51:29Z</time>
      </trkpt>
      <trkpt lat="47.07785" lon="5.80216">
        <ele>445.6</ele>
        <time>2019-05-12T12:51:32Z</time>
      </trkpt>
      <trkpt lat="47.07788" lon="5.80222">
        <ele>445</ele>
        <time>2019-05-12T12:51:42Z</time>
      </trkpt>
      <trkpt lat="47.07793" lon="5.80225">
        <ele>444.9</ele>
        <time>2019-05-12T12:51:47Z</time>
      </trkpt>
      <trkpt lat="47.07798" lon="5.8023">
        <ele>444.7</ele>
        <time>2019-05-12T12:51:51Z</time>
      </trkpt>
      <trkpt lat="47.07801" lon="5.80237">
        <ele>444.6</ele>
        <time>2019-05-12T12:51:54Z</time>
      </trkpt>
      <trkpt lat="47.07805" lon="5.80241">
        <ele>444.5</ele>
        <time>2019-05-12T12:51:56Z</time>
      </trkpt>
      <trkpt lat="47.07808" lon="5.80247">
        <ele>444.1</ele>
        <time>2019-05-12T12:52:02Z</time>
      </trkpt>
      <trkpt lat="47.07819" lon="5.80263">
        <ele>443.4</ele>
        <time>2019-05-12T12:52:22Z</time>
      </trkpt>
      <trkpt lat="47.07823" lon="5.80267">
        <ele>443.3</ele>
        <time>2019-05-12T12:52:26Z</time>
      </trkpt>
      <trkpt lat="47.07825" lon="5.80273">
        <ele>442.2</ele>
        <time>2019-05-12T12:52:35Z</time>
      </trkpt>
      <trkpt lat="47.07829" lon="5.80283">
        <ele>441.3</ele>
        <time>2019-05-12T12:52:41Z</time>
      </trkpt>
      <trkpt lat="47.07832" lon="5.8029">
        <ele>441.1</ele>
        <time>2019-05-12T12:52:43Z</time>
      </trkpt>
      <trkpt lat="47.07835" lon="5.80296">
        <ele>440.5</ele>
        <time>2019-05-12T12:52:50Z</time>
      </trkpt>
      <trkpt lat="47.0784" lon="5.80304">
        <ele>439.9</ele>
        <time>2019-05-12T12:52:55Z</time>
      </trkpt>
      <trkpt lat="47.07843" lon="5.80309">
        <ele>439.4</ele>
        <time>2019-05-12T12:53:00Z</time>
      </trkpt>
      <trkpt lat="47.07844" lon="5.80315">
        <ele>439</ele>
        <time>2019-05-12T12:53:05Z</time>
      </trkpt>
      <trkpt lat="47.07844" lon="5.80323">
        <ele>438.6</ele>
        <time>2019-05-12T12:53:09Z</time>
      </trkpt>
      <trkpt lat="47.07846" lon="5.80332">
        <ele>438.2</ele>
        <time>2019-05-12T12:53:12Z</time>
      </trkpt>
      <trkpt lat="47.07847" lon="5.8034">
        <ele>437.9</ele>
        <time>2019-05-12T12:53:14Z</time>
      </trkpt>
      <trkpt lat="47.07848" lon="5.80347">
        <ele>437.3</ele>
        <time>2019-05-12T12:53:17Z</time>
      </trkpt>
      <trkpt lat="47.07848" lon="5.80353">
        <ele>436.2</ele>
        <time>2019-05-12T12:53:22Z</time>
      </trkpt>
      <trkpt lat="47.07849" lon="5.8036">
        <ele>435</ele>
        <time>2019-05-12T12:53:27Z</time>
      </trkpt>
      <trkpt lat="47.07856" lon="5.80362">
        <ele>431.2</ele>
        <time>2019-05-12T12:53:42Z</time>
      </trkpt>
      <trkpt lat="47.07866" lon="5.80358">
        <ele>431.5</ele>
        <time>2019-05-12T12:53:58Z</time>
      </trkpt>
      <trkpt lat="47.07878" lon="5.80353">
        <ele>432.2</ele>
        <time>2019-05-12T12:54:13Z</time>
      </trkpt>
      <trkpt lat="47.0791" lon="5.80346">
        <ele>435.3</ele>
        <time>2019-05-12T12:55:04Z</time>
      </trkpt>
      <trkpt lat="47.07915" lon="5.80344">
        <ele>435.5</ele>
        <time>2019-05-12T12:55:12Z</time>
      </trkpt>
      <trkpt lat="47.07922" lon="5.80342">
        <ele>435</ele>
        <time>2019-05-12T12:55:43Z</time>
      </trkpt>
      <trkpt lat="47.07937" lon="5.80353">
        <ele>433.1</ele>
        <time>2019-05-12T12:57:12Z</time>
      </trkpt>
      <trkpt lat="47.07951" lon="5.80362">
        <ele>434.9</ele>
        <time>2019-05-12T12:57:42Z</time>
      </trkpt>
      <trkpt lat="47.07952" lon="5.80375">
        <ele>432.7</ele>
        <time>2019-05-12T12:58:15Z</time>
      </trkpt>
      <trkpt lat="47.07956" lon="5.80381">
        <ele>432.8</ele>
        <time>2019-05-12T12:58:18Z</time>
      </trkpt>
      <trkpt lat="47.0796" lon="5.80385">
        <ele>433</ele>
        <time>2019-05-12T12:58:21Z</time>
      </trkpt>
      <trkpt lat="47.07962" lon="5.80391">
        <ele>433.6</ele>
        <time>2019-05-12T12:58:29Z</time>
      </trkpt>
      <trkpt lat="47.07964" lon="5.80397">
        <ele>433.7</ele>
        <time>2019-05-12T12:58:37Z</time>
      </trkpt>
      <trkpt lat="47.07967" lon="5.80403">
        <ele>433.9</ele>
        <time>2019-05-12T12:58:41Z</time>
      </trkpt>
      <trkpt lat="47.07969" lon="5.80411">
        <ele>434.4</ele>
        <time>2019-05-12T12:58:48Z</time>
      </trkpt>
      <trkpt lat="47.07973" lon="5.80415">
        <ele>434.6</ele>
        <time>2019-05-12T12:58:52Z</time>
      </trkpt>
      <trkpt lat="47.07978" lon="5.80418">
        <ele>435.1</ele>
        <time>2019-05-12T12:59:00Z</time>
      </trkpt>
      <trkpt lat="47.07984" lon="5.80416">
        <ele>435.3</ele>
        <time>2019-05-12T12:59:02Z</time>
      </trkpt>
      <trkpt lat="47.07988" lon="5.80415">
        <ele>435.5</ele>
        <time>2019-05-12T12:59:07Z</time>
      </trkpt>
      <trkpt lat="47.07993" lon="5.80414">
        <ele>436.1</ele>
        <time>2019-05-12T12:59:17Z</time>
      </trkpt>
      <trkpt lat="47.07996" lon="5.8041">
        <ele>445.2</ele>
        <time>2019-05-12T13:00:40Z</time>
      </trkpt>
      <trkpt lat="47.08" lon="5.80406">
        <ele>445.4</ele>
        <time>2019-05-12T13:00:43Z</time>
      </trkpt>
      <trkpt lat="47.08006" lon="5.804">
        <ele>445.8</ele>
        <time>2019-05-12T13:00:48Z</time>
      </trkpt>
      <trkpt lat="47.0801" lon="5.80397">
        <ele>446</ele>
        <time>2019-05-12T13:00:50Z</time>
      </trkpt>
      <trkpt lat="47.08015" lon="5.80394">
        <ele>446.5</ele>
        <time>2019-05-12T13:00:55Z</time>
      </trkpt>
      <trkpt lat="47.08019" lon="5.80392">
        <ele>446.8</ele>
        <time>2019-05-12T13:01:06Z</time>
      </trkpt>
      <trkpt lat="47.08024" lon="5.80392">
        <ele>446.4</ele>
        <time>2019-05-12T13:01:11Z</time>
      </trkpt>
      <trkpt lat="47.08028" lon="5.8039">
        <ele>445.6</ele>
        <time>2019-05-12T13:01:17Z</time>
      </trkpt>
      <trkpt lat="47.08033" lon="5.80387">
        <ele>445.2</ele>
        <time>2019-05-12T13:01:23Z</time>
      </trkpt>
      <trkpt lat="47.08047" lon="5.80376">
        <ele>445.6</ele>
        <time>2019-05-12T13:01:41Z</time>
      </trkpt>
      <trkpt lat="47.08051" lon="5.80373">
        <ele>445.1</ele>
        <time>2019-05-12T13:01:54Z</time>
      </trkpt>
      <trkpt lat="47.08053" lon="5.80367">
        <ele>445.2</ele>
        <time>2019-05-12T13:02:00Z</time>
      </trkpt>
      <trkpt lat="47.08056" lon="5.8036">
        <ele>445.6</ele>
        <time>2019-05-12T13:02:06Z</time>
      </trkpt>
      <trkpt lat="47.0806" lon="5.80353">
        <ele>445.6</ele>
        <time>2019-05-12T13:02:09Z</time>
      </trkpt>
      <trkpt lat="47.08065" lon="5.80343">
        <ele>445.4</ele>
        <time>2019-05-12T13:02:11Z</time>
      </trkpt>
      <trkpt lat="47.08069" lon="5.80338">
        <ele>445</ele>
        <time>2019-05-12T13:02:13Z</time>
      </trkpt>
      <trkpt lat="47.08074" lon="5.80333">
        <ele>444.2</ele>
        <time>2019-05-12T13:02:16Z</time>
      </trkpt>
      <trkpt lat="47.08078" lon="5.80329">
        <ele>442.5</ele>
        <time>2019-05-12T13:02:23Z</time>
      </trkpt>
      <trkpt lat="47.08082" lon="5.80325">
        <ele>440.4</ele>
        <time>2019-05-12T13:02:30Z</time>
      </trkpt>
      <trkpt lat="47.08086" lon="5.80321">
        <ele>438.1</ele>
        <time>2019-05-12T13:02:36Z</time>
      </trkpt>
      <trkpt lat="47.08091" lon="5.80317">
        <ele>436.3</ele>
        <time>2019-05-12T13:02:41Z</time>
      </trkpt>
      <trkpt lat="47.08095" lon="5.80313">
        <ele>433.9</ele>
        <time>2019-05-12T13:02:49Z</time>
      </trkpt>
      <trkpt lat="47.08098" lon="5.80309">
        <ele>432.7</ele>
        <time>2019-05-12T13:02:56Z</time>
      </trkpt>
      <trkpt lat="47.08106" lon="5.80316">
        <ele>432.4</ele>
        <time>2019-05-12T13:03:12Z</time>
      </trkpt>
      <trkpt lat="47.0811" lon="5.80322">
        <ele>432.3</ele>
        <time>2019-05-12T13:03:14Z</time>
      </trkpt>
      <trkpt lat="47.08112" lon="5.80328">
        <ele>431.9</ele>
        <time>2019-05-12T13:03:18Z</time>
      </trkpt>
      <trkpt lat="47.0811" lon="5.80335">
        <ele>430.5</ele>
        <time>2019-05-12T13:03:27Z</time>
      </trkpt>
      <trkpt lat="47.08111" lon="5.80342">
        <ele>429.9</ele>
        <time>2019-05-12T13:03:30Z</time>
      </trkpt>
      <trkpt lat="47.0811" lon="5.8035">
        <ele>428.9</ele>
        <time>2019-05-12T13:03:36Z</time>
      </trkpt>
      <trkpt lat="47.08113" lon="5.80356">
        <ele>428.5</ele>
        <time>2019-05-12T13:03:39Z</time>
      </trkpt>
      <trkpt lat="47.08112" lon="5.80364">
        <ele>428.1</ele>
        <time>2019-05-12T13:03:44Z</time>
      </trkpt>
      <trkpt lat="47.08111" lon="5.80371">
        <ele>427.8</ele>
        <time>2019-05-12T13:03:50Z</time>
      </trkpt>
      <trkpt lat="47.08113" lon="5.8038">
        <ele>427.1</ele>
        <time>2019-05-12T13:03:58Z</time>
      </trkpt>
      <trkpt lat="47.08114" lon="5.80387">
        <ele>426.7</ele>
        <time>2019-05-12T13:04:02Z</time>
      </trkpt>
      <trkpt lat="47.08114" lon="5.80394">
        <ele>426.3</ele>
        <time>2019-05-12T13:04:09Z</time>
      </trkpt>
      <trkpt lat="47.08116" lon="5.80401">
        <ele>426.5</ele>
        <time>2019-05-12T13:04:17Z</time>
      </trkpt>
      <trkpt lat="47.08119" lon="5.80407">
        <ele>427</ele>
        <time>2019-05-12T13:04:26Z</time>
      </trkpt>
      <trkpt lat="47.08121" lon="5.80414">
        <ele>427.3</ele>
        <time>2019-05-12T13:04:31Z</time>
      </trkpt>
      <trkpt lat="47.08123" lon="5.80419">
        <ele>427.3</ele>
        <time>2019-05-12T13:04:35Z</time>
      </trkpt>
      <trkpt lat="47.08127" lon="5.80425">
        <ele>427.1</ele>
        <time>2019-05-12T13:04:40Z</time>
      </trkpt>
      <trkpt lat="47.0813" lon="5.80432">
        <ele>426.7</ele>
        <time>2019-05-12T13:04:47Z</time>
      </trkpt>
      <trkpt lat="47.08133" lon="5.80439">
        <ele>426.4</ele>
        <time>2019-05-12T13:04:52Z</time>
      </trkpt>
      <trkpt lat="47.08136" lon="5.80444">
        <ele>426.1</ele>
        <time>2019-05-12T13:05:01Z</time>
      </trkpt>
      <trkpt lat="47.08139" lon="5.80453">
        <ele>426.2</ele>
        <time>2019-05-12T13:05:07Z</time>
      </trkpt>
      <trkpt lat="47.08142" lon="5.8046">
        <ele>426.2</ele>
        <time>2019-05-12T13:05:11Z</time>
      </trkpt>
      <trkpt lat="47.08145" lon="5.80466">
        <ele>426.4</ele>
        <time>2019-05-12T13:05:16Z</time>
      </trkpt>
      <trkpt lat="47.08148" lon="5.80472">
        <ele>427</ele>
        <time>2019-05-12T13:05:28Z</time>
      </trkpt>
      <trkpt lat="47.08151" lon="5.80478">
        <ele>428.2</ele>
        <time>2019-05-12T13:05:43Z</time>
      </trkpt>
      <trkpt lat="47.08153" lon="5.80486">
        <ele>429.2</ele>
        <time>2019-05-12T13:05:50Z</time>
      </trkpt>
      <trkpt lat="47.08157" lon="5.80492">
        <ele>429.6</ele>
        <time>2019-05-12T13:05:52Z</time>
      </trkpt>
      <trkpt lat="47.08159" lon="5.80499">
        <ele>430.5</ele>
        <time>2019-05-12T13:05:56Z</time>
      </trkpt>
      <trkpt lat="47.08162" lon="5.80504">
        <ele>431.1</ele>
        <time>2019-05-12T13:05:59Z</time>
      </trkpt>
      <trkpt lat="47.08164" lon="5.80511">
        <ele>431.8</ele>
        <time>2019-05-12T13:06:03Z</time>
      </trkpt>
      <trkpt lat="47.08168" lon="5.80516">
        <ele>432.4</ele>
        <time>2019-05-12T13:06:08Z</time>
      </trkpt>
      <trkpt lat="47.08171" lon="5.80521">
        <ele>433.5</ele>
        <time>2019-05-12T13:06:15Z</time>
      </trkpt>
      <trkpt lat="47.08174" lon="5.80546">
        <ele>435.2</ele>
        <time>2019-05-12T13:06:27Z</time>
      </trkpt>
      <trkpt lat="47.08176" lon="5.80552">
        <ele>435.2</ele>
        <time>2019-05-12T13:06:31Z</time>
      </trkpt>
      <trkpt lat="47.08179" lon="5.80558">
        <ele>435.1</ele>
        <time>2019-05-12T13:06:33Z</time>
      </trkpt>
      <trkpt lat="47.08183" lon="5.80563">
        <ele>435</ele>
        <time>2019-05-12T13:06:36Z</time>
      </trkpt>
      <trkpt lat="47.08189" lon="5.80575">
        <ele>434.3</ele>
        <time>2019-05-12T13:06:51Z</time>
      </trkpt>
      <trkpt lat="47.08189" lon="5.80582">
        <ele>434.7</ele>
        <time>2019-05-12T13:06:57Z</time>
      </trkpt>
      <trkpt lat="47.08194" lon="5.8061">
        <ele>436.9</ele>
        <time>2019-05-12T13:07:18Z</time>
      </trkpt>
      <trkpt lat="47.08196" lon="5.80616">
        <ele>436.9</ele>
        <time>2019-05-12T13:07:20Z</time>
      </trkpt>
      <trkpt lat="47.08198" lon="5.80623">
        <ele>436.8</ele>
        <time>2019-05-12T13:07:23Z</time>
      </trkpt>
      <trkpt lat="47.08205" lon="5.80641">
        <ele>435.5</ele>
        <time>2019-05-12T13:07:47Z</time>
      </trkpt>
      <trkpt lat="47.08207" lon="5.80649">
        <ele>435.2</ele>
        <time>2019-05-12T13:07:54Z</time>
      </trkpt>
      <trkpt lat="47.08209" lon="5.80658">
        <ele>435.2</ele>
        <time>2019-05-12T13:07:56Z</time>
      </trkpt>
      <trkpt lat="47.0821" lon="5.80665">
        <ele>435.2</ele>
        <time>2019-05-12T13:07:58Z</time>
      </trkpt>
      <trkpt lat="47.08213" lon="5.80671">
        <ele>435.1</ele>
        <time>2019-05-12T13:08:01Z</time>
      </trkpt>
      <trkpt lat="47.08216" lon="5.80677">
        <ele>434.9</ele>
        <time>2019-05-12T13:08:07Z</time>
      </trkpt>
      <trkpt lat="47.08223" lon="5.80704">
        <ele>432.5</ele>
        <time>2019-05-12T13:08:26Z</time>
      </trkpt>
      <trkpt lat="47.08222" lon="5.80711">
        <ele>432.2</ele>
        <time>2019-05-12T13:08:30Z</time>
      </trkpt>
      <trkpt lat="47.08224" lon="5.80717">
        <ele>431.9</ele>
        <time>2019-05-12T13:08:37Z</time>
      </trkpt>
      <trkpt lat="47.08226" lon="5.80724">
        <ele>431.5</ele>
        <time>2019-05-12T13:08:42Z</time>
      </trkpt>
      <trkpt lat="47.08229" lon="5.80732">
        <ele>431.1</ele>
        <time>2019-05-12T13:08:47Z</time>
      </trkpt>
      <trkpt lat="47.08231" lon="5.80738">
        <ele>430.9</ele>
        <time>2019-05-12T13:08:50Z</time>
      </trkpt>
      <trkpt lat="47.0823" lon="5.80744">
        <ele>430</ele>
        <time>2019-05-12T13:08:57Z</time>
      </trkpt>
      <trkpt lat="47.08227" lon="5.80748">
        <ele>429.9</ele>
        <time>2019-05-12T13:09:35Z</time>
      </trkpt>
      <trkpt lat="47.08226" lon="5.80756">
        <ele>430.3</ele>
        <time>2019-05-12T13:09:55Z</time>
      </trkpt>
      <trkpt lat="47.08228" lon="5.80762">
        <ele>430.4</ele>
        <time>2019-05-12T13:09:58Z</time>
      </trkpt>
      <trkpt lat="47.0823" lon="5.80771">
        <ele>430.3</ele>
        <time>2019-05-12T13:10:03Z</time>
      </trkpt>
      <trkpt lat="47.08232" lon="5.8078">
        <ele>430.2</ele>
        <time>2019-05-12T13:10:05Z</time>
      </trkpt>
      <trkpt lat="47.08233" lon="5.80787">
        <ele>430</ele>
        <time>2019-05-12T13:10:09Z</time>
      </trkpt>
      <trkpt lat="47.08234" lon="5.80795">
        <ele>429.6</ele>
        <time>2019-05-12T13:10:13Z</time>
      </trkpt>
      <trkpt lat="47.08235" lon="5.80802">
        <ele>429.4</ele>
        <time>2019-05-12T13:10:15Z</time>
      </trkpt>
      <trkpt lat="47.08236" lon="5.80809">
        <ele>429.1</ele>
        <time>2019-05-12T13:10:18Z</time>
      </trkpt>
      <trkpt lat="47.08238" lon="5.80827">
        <ele>427.8</ele>
        <time>2019-05-12T13:10:28Z</time>
      </trkpt>
      <trkpt lat="47.08238" lon="5.80853">
        <ele>428.3</ele>
        <time>2019-05-12T13:10:49Z</time>
      </trkpt>
      <trkpt lat="47.08238" lon="5.80861">
        <ele>428.6</ele>
        <time>2019-05-12T13:10:53Z</time>
      </trkpt>
      <trkpt lat="47.08239" lon="5.80867">
        <ele>428.8</ele>
        <time>2019-05-12T13:10:56Z</time>
      </trkpt>
      <trkpt lat="47.08242" lon="5.80877">
        <ele>429.2</ele>
        <time>2019-05-12T13:11:02Z</time>
      </trkpt>
      <trkpt lat="47.08243" lon="5.80884">
        <ele>429.5</ele>
        <time>2019-05-12T13:11:06Z</time>
      </trkpt>
      <trkpt lat="47.08243" lon="5.80892">
        <ele>429.7</ele>
        <time>2019-05-12T13:11:09Z</time>
      </trkpt>
      <trkpt lat="47.08247" lon="5.80897">
        <ele>429.8</ele>
        <time>2019-05-12T13:11:11Z</time>
      </trkpt>
      <trkpt lat="47.08251" lon="5.80901">
        <ele>429.9</ele>
        <time>2019-05-12T13:11:14Z</time>
      </trkpt>
      <trkpt lat="47.08255" lon="5.80906">
        <ele>430.1</ele>
        <time>2019-05-12T13:11:18Z</time>
      </trkpt>
      <trkpt lat="47.08259" lon="5.80911">
        <ele>430.3</ele>
        <time>2019-05-12T13:11:23Z</time>
      </trkpt>
      <trkpt lat="47.08261" lon="5.80918">
        <ele>430.4</ele>
        <time>2019-05-12T13:11:25Z</time>
      </trkpt>
      <trkpt lat="47.08268" lon="5.80934">
        <ele>431.6</ele>
        <time>2019-05-12T13:11:37Z</time>
      </trkpt>
      <trkpt lat="47.08276" lon="5.80946">
        <ele>431.9</ele>
        <time>2019-05-12T13:11:47Z</time>
      </trkpt>
      <trkpt lat="47.08282" lon="5.80948">
        <ele>431.9</ele>
        <time>2019-05-12T13:11:49Z</time>
      </trkpt>
      <trkpt lat="47.08285" lon="5.80952">
        <ele>432</ele>
        <time>2019-05-12T13:11:51Z</time>
      </trkpt>
      <trkpt lat="47.0829" lon="5.80956">
        <ele>432.1</ele>
        <time>2019-05-12T13:11:54Z</time>
      </trkpt>
      <trkpt lat="47.08295" lon="5.8096">
        <ele>432.4</ele>
        <time>2019-05-12T13:12:02Z</time>
      </trkpt>
      <trkpt lat="47.08299" lon="5.80964">
        <ele>432.6</ele>
        <time>2019-05-12T13:12:06Z</time>
      </trkpt>
      <trkpt lat="47.08302" lon="5.80969">
        <ele>432.7</ele>
        <time>2019-05-12T13:12:10Z</time>
      </trkpt>
      <trkpt lat="47.08306" lon="5.80976">
        <ele>432.8</ele>
        <time>2019-05-12T13:12:13Z</time>
      </trkpt>
      <trkpt lat="47.08308" lon="5.80982">
        <ele>432.9</ele>
        <time>2019-05-12T13:12:18Z</time>
      </trkpt>
      <trkpt lat="47.08316" lon="5.80987">
        <ele>432.5</ele>
        <time>2019-05-12T13:12:31Z</time>
      </trkpt>
      <trkpt lat="47.08321" lon="5.80989">
        <ele>432</ele>
        <time>2019-05-12T13:12:36Z</time>
      </trkpt>
      <trkpt lat="47.08326" lon="5.8099">
        <ele>431.7</ele>
        <time>2019-05-12T13:12:42Z</time>
      </trkpt>
      <trkpt lat="47.08331" lon="5.80993">
        <ele>431.5</ele>
        <time>2019-05-12T13:12:46Z</time>
      </trkpt>
      <trkpt lat="47.08336" lon="5.80997">
        <ele>431.4</ele>
        <time>2019-05-12T13:12:50Z</time>
      </trkpt>
      <trkpt lat="47.0834" lon="5.81001">
        <ele>431.3</ele>
        <time>2019-05-12T13:12:54Z</time>
      </trkpt>
      <trkpt lat="47.08355" lon="5.81014">
        <ele>431.5</ele>
        <time>2019-05-12T13:13:10Z</time>
      </trkpt>
      <trkpt lat="47.08358" lon="5.81019">
        <ele>431.6</ele>
        <time>2019-05-12T13:13:15Z</time>
      </trkpt>
      <trkpt lat="47.0836" lon="5.81025">
        <ele>431.6</ele>
        <time>2019-05-12T13:13:20Z</time>
      </trkpt>
      <trkpt lat="47.08364" lon="5.8103">
        <ele>431.2</ele>
        <time>2019-05-12T13:13:26Z</time>
      </trkpt>
      <trkpt lat="47.08369" lon="5.81037">
        <ele>430.8</ele>
        <time>2019-05-12T13:13:30Z</time>
      </trkpt>
      <trkpt lat="47.08372" lon="5.81043">
        <ele>430.4</ele>
        <time>2019-05-12T13:13:34Z</time>
      </trkpt>
      <trkpt lat="47.08374" lon="5.81049">
        <ele>429.9</ele>
        <time>2019-05-12T13:13:39Z</time>
      </trkpt>
      <trkpt lat="47.08375" lon="5.81056">
        <ele>429.6</ele>
        <time>2019-05-12T13:13:44Z</time>
      </trkpt>
      <trkpt lat="47.08374" lon="5.81063">
        <ele>429.1</ele>
        <time>2019-05-12T13:13:49Z</time>
      </trkpt>
      <trkpt lat="47.08373" lon="5.8107">
        <ele>428.7</ele>
        <time>2019-05-12T13:13:53Z</time>
      </trkpt>
      <trkpt lat="47.08371" lon="5.81085">
        <ele>427.5</ele>
        <time>2019-05-12T13:14:03Z</time>
      </trkpt>
      <trkpt lat="47.08372" lon="5.81092">
        <ele>427.2</ele>
        <time>2019-05-12T13:14:08Z</time>
      </trkpt>
      <trkpt lat="47.08373" lon="5.81099">
        <ele>426.9</ele>
        <time>2019-05-12T13:14:12Z</time>
      </trkpt>
      <trkpt lat="47.08373" lon="5.81105">
        <ele>427.5</ele>
        <time>2019-05-12T13:14:25Z</time>
      </trkpt>
      <trkpt lat="47.08371" lon="5.81113">
        <ele>427.7</ele>
        <time>2019-05-12T13:14:33Z</time>
      </trkpt>
      <trkpt lat="47.08371" lon="5.81119">
        <ele>427.6</ele>
        <time>2019-05-12T13:14:41Z</time>
      </trkpt>
      <trkpt lat="47.08369" lon="5.81126">
        <ele>425.1</ele>
        <time>2019-05-12T13:15:08Z</time>
      </trkpt>
      <trkpt lat="47.08368" lon="5.81135">
        <ele>423.8</ele>
        <time>2019-05-12T13:15:41Z</time>
      </trkpt>
      <trkpt lat="47.08374" lon="5.81157">
        <ele>428.3</ele>
        <time>2019-05-12T13:17:30Z</time>
      </trkpt>
      <trkpt lat="47.08376" lon="5.81165">
        <ele>428.5</ele>
        <time>2019-05-12T13:17:40Z</time>
      </trkpt>
      <trkpt lat="47.08377" lon="5.81172">
        <ele>428.2</ele>
        <time>2019-05-12T13:17:45Z</time>
      </trkpt>
      <trkpt lat="47.08375" lon="5.8118">
        <ele>428.1</ele>
        <time>2019-05-12T13:17:47Z</time>
      </trkpt>
      <trkpt lat="47.08377" lon="5.81189">
        <ele>428</ele>
        <time>2019-05-12T13:17:49Z</time>
      </trkpt>
      <trkpt lat="47.08379" lon="5.81196">
        <ele>427.7</ele>
        <time>2019-05-12T13:17:53Z</time>
      </trkpt>
      <trkpt lat="47.08382" lon="5.81203">
        <ele>427.5</ele>
        <time>2019-05-12T13:17:56Z</time>
      </trkpt>
      <trkpt lat="47.0839" lon="5.81214">
        <ele>427.2</ele>
        <time>2019-05-12T13:18:09Z</time>
      </trkpt>
      <trkpt lat="47.08393" lon="5.81221">
        <ele>427.3</ele>
        <time>2019-05-12T13:18:14Z</time>
      </trkpt>
      <trkpt lat="47.08393" lon="5.81228">
        <ele>427.4</ele>
        <time>2019-05-12T13:18:18Z</time>
      </trkpt>
      <trkpt lat="47.08395" lon="5.81235">
        <ele>427.4</ele>
        <time>2019-05-12T13:18:23Z</time>
      </trkpt>
      <trkpt lat="47.08398" lon="5.81242">
        <ele>427.5</ele>
        <time>2019-05-12T13:18:30Z</time>
      </trkpt>
      <trkpt lat="47.08401" lon="5.81246">
        <ele>427.5</ele>
        <time>2019-05-12T13:18:35Z</time>
      </trkpt>
      <trkpt lat="47.08405" lon="5.81251">
        <ele>427.5</ele>
        <time>2019-05-12T13:18:39Z</time>
      </trkpt>
      <trkpt lat="47.0841" lon="5.81255">
        <ele>427.8</ele>
        <time>2019-05-12T13:18:46Z</time>
      </trkpt>
      <trkpt lat="47.08415" lon="5.81258">
        <ele>428.3</ele>
        <time>2019-05-12T13:18:53Z</time>
      </trkpt>
      <trkpt lat="47.08418" lon="5.81264">
        <ele>428.6</ele>
        <time>2019-05-12T13:18:59Z</time>
      </trkpt>
      <trkpt lat="47.08422" lon="5.81269">
        <ele>428.6</ele>
        <time>2019-05-12T13:19:02Z</time>
      </trkpt>
      <trkpt lat="47.08425" lon="5.81275">
        <ele>428.7</ele>
        <time>2019-05-12T13:19:06Z</time>
      </trkpt>
      <trkpt lat="47.0843" lon="5.8128">
        <ele>429.1</ele>
        <time>2019-05-12T13:19:13Z</time>
      </trkpt>
      <trkpt lat="47.08435" lon="5.81281">
        <ele>429.3</ele>
        <time>2019-05-12T13:19:19Z</time>
      </trkpt>
      <trkpt lat="47.08439" lon="5.81283">
        <ele>429.2</ele>
        <time>2019-05-12T13:19:24Z</time>
      </trkpt>
      <trkpt lat="47.08445" lon="5.81283">
        <ele>429.2</ele>
        <time>2019-05-12T13:19:30Z</time>
      </trkpt>
      <trkpt lat="47.0845" lon="5.81284">
        <ele>429.5</ele>
        <time>2019-05-12T13:19:37Z</time>
      </trkpt>
      <trkpt lat="47.08455" lon="5.81283">
        <ele>429.7</ele>
        <time>2019-05-12T13:19:41Z</time>
      </trkpt>
      <trkpt lat="47.0846" lon="5.81284">
        <ele>429.9</ele>
        <time>2019-05-12T13:19:45Z</time>
      </trkpt>
      <trkpt lat="47.08465" lon="5.81287">
        <ele>430</ele>
        <time>2019-05-12T13:19:49Z</time>
      </trkpt>
      <trkpt lat="47.08469" lon="5.8129">
        <ele>429.9</ele>
        <time>2019-05-12T13:19:53Z</time>
      </trkpt>
      <trkpt lat="47.08474" lon="5.81291">
        <ele>429.7</ele>
        <time>2019-05-12T13:19:58Z</time>
      </trkpt>
      <trkpt lat="47.08479" lon="5.81293">
        <ele>429.4</ele>
        <time>2019-05-12T13:20:02Z</time>
      </trkpt>
      <trkpt lat="47.08484" lon="5.81296">
        <ele>429.1</ele>
        <time>2019-05-12T13:20:07Z</time>
      </trkpt>
      <trkpt lat="47.08488" lon="5.81298">
        <ele>429.1</ele>
        <time>2019-05-12T13:20:12Z</time>
      </trkpt>
      <trkpt lat="47.08493" lon="5.813">
        <ele>429.3</ele>
        <time>2019-05-12T13:20:19Z</time>
      </trkpt>
      <trkpt lat="47.08497" lon="5.81303">
        <ele>429.3</ele>
        <time>2019-05-12T13:20:22Z</time>
      </trkpt>
      <trkpt lat="47.08502" lon="5.81306">
        <ele>429.3</ele>
        <time>2019-05-12T13:20:25Z</time>
      </trkpt>
      <trkpt lat="47.08506" lon="5.8131">
        <ele>429.3</ele>
        <time>2019-05-12T13:20:28Z</time>
      </trkpt>
      <trkpt lat="47.0851" lon="5.81314">
        <ele>429.3</ele>
        <time>2019-05-12T13:20:31Z</time>
      </trkpt>
      <trkpt lat="47.08514" lon="5.81319">
        <ele>429.3</ele>
        <time>2019-05-12T13:20:36Z</time>
      </trkpt>
      <trkpt lat="47.08517" lon="5.81325">
        <ele>429.3</ele>
        <time>2019-05-12T13:20:42Z</time>
      </trkpt>
      <trkpt lat="47.08519" lon="5.81331">
        <ele>429.6</ele>
        <time>2019-05-12T13:20:47Z</time>
      </trkpt>
      <trkpt lat="47.08521" lon="5.81337">
        <ele>429.7</ele>
        <time>2019-05-12T13:20:52Z</time>
      </trkpt>
      <trkpt lat="47.08524" lon="5.81343">
        <ele>429.6</ele>
        <time>2019-05-12T13:21:01Z</time>
      </trkpt>
      <trkpt lat="47.08527" lon="5.81352">
        <ele>429.7</ele>
        <time>2019-05-12T13:21:10Z</time>
      </trkpt>
      <trkpt lat="47.08527" lon="5.8136">
        <ele>429.7</ele>
        <time>2019-05-12T13:21:13Z</time>
      </trkpt>
      <trkpt lat="47.0853" lon="5.8137">
        <ele>429.8</ele>
        <time>2019-05-12T13:21:16Z</time>
      </trkpt>
      <trkpt lat="47.08532" lon="5.81375">
        <ele>429.9</ele>
        <time>2019-05-12T13:21:18Z</time>
      </trkpt>
      <trkpt lat="47.08536" lon="5.81382">
        <ele>430</ele>
        <time>2019-05-12T13:21:21Z</time>
      </trkpt>
      <trkpt lat="47.0854" lon="5.81387">
        <ele>430.1</ele>
        <time>2019-05-12T13:21:26Z</time>
      </trkpt>
      <trkpt lat="47.08544" lon="5.81391">
        <ele>430</ele>
        <time>2019-05-12T13:21:30Z</time>
      </trkpt>
      <trkpt lat="47.08547" lon="5.81395">
        <ele>429.7</ele>
        <time>2019-05-12T13:21:35Z</time>
      </trkpt>
      <trkpt lat="47.08552" lon="5.814">
        <ele>429.4</ele>
        <time>2019-05-12T13:21:40Z</time>
      </trkpt>
      <trkpt lat="47.08555" lon="5.81406">
        <ele>429.2</ele>
        <time>2019-05-12T13:21:44Z</time>
      </trkpt>
      <trkpt lat="47.08569" lon="5.81423">
        <ele>427.5</ele>
        <time>2019-05-12T13:22:08Z</time>
      </trkpt>
      <trkpt lat="47.08572" lon="5.81428">
        <ele>427.3</ele>
        <time>2019-05-12T13:22:11Z</time>
      </trkpt>
      <trkpt lat="47.08575" lon="5.81433">
        <ele>427.2</ele>
        <time>2019-05-12T13:22:15Z</time>
      </trkpt>
      <trkpt lat="47.0858" lon="5.81435">
        <ele>427.1</ele>
        <time>2019-05-12T13:22:19Z</time>
      </trkpt>
      <trkpt lat="47.08584" lon="5.81441">
        <ele>427.1</ele>
        <time>2019-05-12T13:22:22Z</time>
      </trkpt>
      <trkpt lat="47.08587" lon="5.81447">
        <ele>427.2</ele>
        <time>2019-05-12T13:22:27Z</time>
      </trkpt>
      <trkpt lat="47.0859" lon="5.81452">
        <ele>426.5</ele>
        <time>2019-05-12T13:22:50Z</time>
      </trkpt>
      <trkpt lat="47.08595" lon="5.81455">
        <ele>426.6</ele>
        <time>2019-05-12T13:22:59Z</time>
      </trkpt>
      <trkpt lat="47.08599" lon="5.81458">
        <ele>426.6</ele>
        <time>2019-05-12T13:23:07Z</time>
      </trkpt>
      <trkpt lat="47.08605" lon="5.81463">
        <ele>426.6</ele>
        <time>2019-05-12T13:23:09Z</time>
      </trkpt>
      <trkpt lat="47.08612" lon="5.81463">
        <ele>426.6</ele>
        <time>2019-05-12T13:23:11Z</time>
      </trkpt>
      <trkpt lat="47.08618" lon="5.81465">
        <ele>426.6</ele>
        <time>2019-05-12T13:23:14Z</time>
      </trkpt>
      <trkpt lat="47.08625" lon="5.81468">
        <ele>426.6</ele>
        <time>2019-05-12T13:23:18Z</time>
      </trkpt>
      <trkpt lat="47.0863" lon="5.81472">
        <ele>426.6</ele>
        <time>2019-05-12T13:23:20Z</time>
      </trkpt>
      <trkpt lat="47.08634" lon="5.81477">
        <ele>426.7</ele>
        <time>2019-05-12T13:23:22Z</time>
      </trkpt>
      <trkpt lat="47.08638" lon="5.81483">
        <ele>426.8</ele>
        <time>2019-05-12T13:23:25Z</time>
      </trkpt>
      <trkpt lat="47.08638" lon="5.81491">
        <ele>427</ele>
        <time>2019-05-12T13:23:28Z</time>
      </trkpt>
      <trkpt lat="47.08639" lon="5.81499">
        <ele>427.7</ele>
        <time>2019-05-12T13:23:35Z</time>
      </trkpt>
      <trkpt lat="47.08642" lon="5.81504">
        <ele>427.9</ele>
        <time>2019-05-12T13:23:38Z</time>
      </trkpt>
      <trkpt lat="47.08644" lon="5.8151">
        <ele>427.6</ele>
        <time>2019-05-12T13:23:43Z</time>
      </trkpt>
      <trkpt lat="47.08647" lon="5.81515">
        <ele>426</ele>
        <time>2019-05-12T13:23:53Z</time>
      </trkpt>
      <trkpt lat="47.08651" lon="5.81515">
        <ele>421</ele>
        <time>2019-05-12T13:24:45Z</time>
      </trkpt>
      <trkpt lat="47.08654" lon="5.81508">
        <ele>420.6</ele>
        <time>2019-05-12T13:24:50Z</time>
      </trkpt>
      <trkpt lat="47.08659" lon="5.81502">
        <ele>420.3</ele>
        <time>2019-05-12T13:24:53Z</time>
      </trkpt>
      <trkpt lat="47.08664" lon="5.81498">
        <ele>420</ele>
        <time>2019-05-12T13:24:56Z</time>
      </trkpt>
      <trkpt lat="47.08668" lon="5.81495">
        <ele>419.6</ele>
        <time>2019-05-12T13:25:02Z</time>
      </trkpt>
      <trkpt lat="47.08672" lon="5.81492">
        <ele>419.5</ele>
        <time>2019-05-12T13:25:10Z</time>
      </trkpt>
      <trkpt lat="47.08677" lon="5.8149">
        <ele>419.2</ele>
        <time>2019-05-12T13:25:17Z</time>
      </trkpt>
      <trkpt lat="47.08682" lon="5.81487">
        <ele>419.1</ele>
        <time>2019-05-12T13:25:26Z</time>
      </trkpt>
      <trkpt lat="47.08687" lon="5.81485">
        <ele>419</ele>
        <time>2019-05-12T13:25:31Z</time>
      </trkpt>
      <trkpt lat="47.08692" lon="5.81481">
        <ele>419</ele>
        <time>2019-05-12T13:25:34Z</time>
      </trkpt>
      <trkpt lat="47.08696" lon="5.81478">
        <ele>418.8</ele>
        <time>2019-05-12T13:25:39Z</time>
      </trkpt>
      <trkpt lat="47.08699" lon="5.81472">
        <ele>418.5</ele>
        <time>2019-05-12T13:25:46Z</time>
      </trkpt>
      <trkpt lat="47.08705" lon="5.81466">
        <ele>417.8</ele>
        <time>2019-05-12T13:26:02Z</time>
      </trkpt>
      <trkpt lat="47.08715" lon="5.8147">
        <ele>416.9</ele>
        <time>2019-05-12T13:26:20Z</time>
      </trkpt>
      <trkpt lat="47.08724" lon="5.81476">
        <ele>410.1</ele>
        <time>2019-05-12T13:26:49Z</time>
      </trkpt>
      <trkpt lat="47.08738" lon="5.81505">
        <ele>403.3</ele>
        <time>2019-05-12T13:27:22Z</time>
      </trkpt>
      <trkpt lat="47.08741" lon="5.8151">
        <ele>403</ele>
        <time>2019-05-12T13:27:27Z</time>
      </trkpt>
      <trkpt lat="47.08744" lon="5.81517">
        <ele>403</ele>
        <time>2019-05-12T13:27:33Z</time>
      </trkpt>
      <trkpt lat="47.08755" lon="5.81535">
        <ele>404.5</ele>
        <time>2019-05-12T13:27:52Z</time>
      </trkpt>
      <trkpt lat="47.08759" lon="5.8154">
        <ele>404.4</ele>
        <time>2019-05-12T13:27:59Z</time>
      </trkpt>
      <trkpt lat="47.08763" lon="5.81547">
        <ele>404.3</ele>
        <time>2019-05-12T13:28:01Z</time>
      </trkpt>
      <trkpt lat="47.08765" lon="5.81552">
        <ele>404.3</ele>
        <time>2019-05-12T13:28:05Z</time>
      </trkpt>
      <trkpt lat="47.08769" lon="5.81557">
        <ele>404.5</ele>
        <time>2019-05-12T13:28:07Z</time>
      </trkpt>
      <trkpt lat="47.08772" lon="5.81561">
        <ele>405</ele>
        <time>2019-05-12T13:28:11Z</time>
      </trkpt>
      <trkpt lat="47.08784" lon="5.8158">
        <ele>407.7</ele>
        <time>2019-05-12T13:28:29Z</time>
      </trkpt>
      <trkpt lat="47.08797" lon="5.81596">
        <ele>408.8</ele>
        <time>2019-05-12T13:28:40Z</time>
      </trkpt>
      <trkpt lat="47.088" lon="5.81601">
        <ele>408.6</ele>
        <time>2019-05-12T13:28:46Z</time>
      </trkpt>
      <trkpt lat="47.08803" lon="5.81607">
        <ele>407.5</ele>
        <time>2019-05-12T13:28:57Z</time>
      </trkpt>
      <trkpt lat="47.08808" lon="5.81611">
        <ele>407.3</ele>
        <time>2019-05-12T13:29:00Z</time>
      </trkpt>
      <trkpt lat="47.08812" lon="5.81615">
        <ele>407</ele>
        <time>2019-05-12T13:29:03Z</time>
      </trkpt>
      <trkpt lat="47.08816" lon="5.8162">
        <ele>407.2</ele>
        <time>2019-05-12T13:29:10Z</time>
      </trkpt>
      <trkpt lat="47.08819" lon="5.81625">
        <ele>407.5</ele>
        <time>2019-05-12T13:29:20Z</time>
      </trkpt>
      <trkpt lat="47.08821" lon="5.81632">
        <ele>407.1</ele>
        <time>2019-05-12T13:29:24Z</time>
      </trkpt>
      <trkpt lat="47.08824" lon="5.81639">
        <ele>406.2</ele>
        <time>2019-05-12T13:29:29Z</time>
      </trkpt>
      <trkpt lat="47.08826" lon="5.81645">
        <ele>405.3</ele>
        <time>2019-05-12T13:29:33Z</time>
      </trkpt>
      <trkpt lat="47.08829" lon="5.8165">
        <ele>403.7</ele>
        <time>2019-05-12T13:29:39Z</time>
      </trkpt>
      <trkpt lat="47.08831" lon="5.81657">
        <ele>401.2</ele>
        <time>2019-05-12T13:29:47Z</time>
      </trkpt>
      <trkpt lat="47.08835" lon="5.81665">
        <ele>399.6</ele>
        <time>2019-05-12T13:29:51Z</time>
      </trkpt>
      <trkpt lat="47.08838" lon="5.81671">
        <ele>398.4</ele>
        <time>2019-05-12T13:29:54Z</time>
      </trkpt>
      <trkpt lat="47.08843" lon="5.81679">
        <ele>397.7</ele>
        <time>2019-05-12T13:29:56Z</time>
      </trkpt>
      <trkpt lat="47.08846" lon="5.81684">
        <ele>396.7</ele>
        <time>2019-05-12T13:29:59Z</time>
      </trkpt>
      <trkpt lat="47.08848" lon="5.81689">
        <ele>395.3</ele>
        <time>2019-05-12T13:30:07Z</time>
      </trkpt>
      <trkpt lat="47.08851" lon="5.81695">
        <ele>394</ele>
        <time>2019-05-12T13:30:19Z</time>
      </trkpt>
      <trkpt lat="47.08854" lon="5.81701">
        <ele>392.1</ele>
        <time>2019-05-12T13:30:27Z</time>
      </trkpt>
      <trkpt lat="47.08856" lon="5.81707">
        <ele>389.9</ele>
        <time>2019-05-12T13:30:34Z</time>
      </trkpt>
      <trkpt lat="47.0886" lon="5.81712">
        <ele>388.4</ele>
        <time>2019-05-12T13:30:41Z</time>
      </trkpt>
      <trkpt lat="47.08863" lon="5.81718">
        <ele>388.1</ele>
        <time>2019-05-12T13:30:45Z</time>
      </trkpt>
      <trkpt lat="47.08872" lon="5.81733">
        <ele>385.5</ele>
        <time>2019-05-12T13:31:20Z</time>
      </trkpt>
      <trkpt lat="47.08883" lon="5.8176">
        <ele>371.1</ele>
        <time>2019-05-12T13:32:21Z</time>
      </trkpt>
      <trkpt lat="47.08891" lon="5.81774">
        <ele>370.6</ele>
        <time>2019-05-12T13:32:23Z</time>
      </trkpt>
      <trkpt lat="47.08904" lon="5.81793">
        <ele>366.4</ele>
        <time>2019-05-12T13:32:35Z</time>
      </trkpt>
      <trkpt lat="47.08906" lon="5.81801">
        <ele>365.8</ele>
        <time>2019-05-12T13:32:39Z</time>
      </trkpt>
      <trkpt lat="47.0891" lon="5.81805">
        <ele>365.3</ele>
        <time>2019-05-12T13:32:43Z</time>
      </trkpt>
      <trkpt lat="47.08914" lon="5.8181">
        <ele>364.7</ele>
        <time>2019-05-12T13:32:51Z</time>
      </trkpt>
      <trkpt lat="47.08918" lon="5.81815">
        <ele>364.5</ele>
        <time>2019-05-12T13:32:58Z</time>
      </trkpt>
      <trkpt lat="47.0892" lon="5.81821">
        <ele>364.3</ele>
        <time>2019-05-12T13:33:02Z</time>
      </trkpt>
      <trkpt lat="47.08925" lon="5.8184">
        <ele>362.5</ele>
        <time>2019-05-12T13:33:18Z</time>
      </trkpt>
      <trkpt lat="47.08929" lon="5.81845">
        <ele>362.1</ele>
        <time>2019-05-12T13:33:20Z</time>
      </trkpt>
      <trkpt lat="47.08934" lon="5.81864">
        <ele>359.8</ele>
        <time>2019-05-12T13:33:28Z</time>
      </trkpt>
      <trkpt lat="47.08935" lon="5.81871">
        <ele>359.4</ele>
        <time>2019-05-12T13:33:32Z</time>
      </trkpt>
      <trkpt lat="47.08939" lon="5.81876">
        <ele>359.1</ele>
        <time>2019-05-12T13:33:34Z</time>
      </trkpt>
      <trkpt lat="47.08943" lon="5.81881">
        <ele>358.4</ele>
        <time>2019-05-12T13:33:38Z</time>
      </trkpt>
      <trkpt lat="47.08949" lon="5.8189">
        <ele>356.8</ele>
        <time>2019-05-12T13:33:46Z</time>
      </trkpt>
      <trkpt lat="47.08954" lon="5.81896">
        <ele>356.7</ele>
        <time>2019-05-12T13:33:48Z</time>
      </trkpt>
      <trkpt lat="47.08959" lon="5.81901">
        <ele>356.5</ele>
        <time>2019-05-12T13:33:52Z</time>
      </trkpt>
      <trkpt lat="47.08968" lon="5.81927">
        <ele>356.3</ele>
        <time>2019-05-12T13:34:01Z</time>
      </trkpt>
      <trkpt lat="47.0897" lon="5.81934">
        <ele>356</ele>
        <time>2019-05-12T13:34:07Z</time>
      </trkpt>
      <trkpt lat="47.08972" lon="5.81942">
        <ele>355.9</ele>
        <time>2019-05-12T13:34:10Z</time>
      </trkpt>
      <trkpt lat="47.08982" lon="5.81953">
        <ele>353.9</ele>
        <time>2019-05-12T13:34:29Z</time>
      </trkpt>
      <trkpt lat="47.08986" lon="5.8196">
        <ele>352.1</ele>
        <time>2019-05-12T13:34:38Z</time>
      </trkpt>
      <trkpt lat="47.0899" lon="5.81964">
        <ele>351.3</ele>
        <time>2019-05-12T13:34:41Z</time>
      </trkpt>
      <trkpt lat="47.08993" lon="5.81971">
        <ele>350.1</ele>
        <time>2019-05-12T13:34:46Z</time>
      </trkpt>
      <trkpt lat="47.08997" lon="5.81978">
        <ele>349.6</ele>
        <time>2019-05-12T13:34:48Z</time>
      </trkpt>
      <trkpt lat="47.09001" lon="5.81985">
        <ele>348.8</ele>
        <time>2019-05-12T13:34:52Z</time>
      </trkpt>
      <trkpt lat="47.09005" lon="5.81989">
        <ele>347.8</ele>
        <time>2019-05-12T13:34:58Z</time>
      </trkpt>
      <trkpt lat="47.09006" lon="5.81997">
        <ele>346.2</ele>
        <time>2019-05-12T13:35:04Z</time>
      </trkpt>
      <trkpt lat="47.09006" lon="5.82005">
        <ele>345.5</ele>
        <time>2019-05-12T13:35:07Z</time>
      </trkpt>
      <trkpt lat="47.09008" lon="5.82011">
        <ele>343.9</ele>
        <time>2019-05-12T13:35:14Z</time>
      </trkpt>
      <trkpt lat="47.0901" lon="5.82016">
        <ele>342</ele>
        <time>2019-05-12T13:35:21Z</time>
      </trkpt>
      <trkpt lat="47.09013" lon="5.82024">
        <ele>341.6</ele>
        <time>2019-05-12T13:35:23Z</time>
      </trkpt>
      <trkpt lat="47.09016" lon="5.82031">
        <ele>340.8</ele>
        <time>2019-05-12T13:35:27Z</time>
      </trkpt>
      <trkpt lat="47.09019" lon="5.82037">
        <ele>340.1</ele>
        <time>2019-05-12T13:35:30Z</time>
      </trkpt>
      <trkpt lat="47.09022" lon="5.82043">
        <ele>339.1</ele>
        <time>2019-05-12T13:35:34Z</time>
      </trkpt>
      <trkpt lat="47.09029" lon="5.82052">
        <ele>337.1</ele>
        <time>2019-05-12T13:36:05Z</time>
      </trkpt>
      <trkpt lat="47.09032" lon="5.82059">
        <ele>336.3</ele>
        <time>2019-05-12T13:36:14Z</time>
      </trkpt>
      <trkpt lat="47.09036" lon="5.82064">
        <ele>335.7</ele>
        <time>2019-05-12T13:36:17Z</time>
      </trkpt>
      <trkpt lat="47.09039" lon="5.82069">
        <ele>334.1</ele>
        <time>2019-05-12T13:36:25Z</time>
      </trkpt>
      <trkpt lat="47.09042" lon="5.82074">
        <ele>333.3</ele>
        <time>2019-05-12T13:36:31Z</time>
      </trkpt>
      <trkpt lat="47.09044" lon="5.82081">
        <ele>332.2</ele>
        <time>2019-05-12T13:36:53Z</time>
      </trkpt>
      <trkpt lat="47.09046" lon="5.82086">
        <ele>331.5</ele>
        <time>2019-05-12T13:36:57Z</time>
      </trkpt>
      <trkpt lat="47.0905" lon="5.82091">
        <ele>331.1</ele>
        <time>2019-05-12T13:36:59Z</time>
      </trkpt>
      <trkpt lat="47.09055" lon="5.82097">
        <ele>330.5</ele>
        <time>2019-05-12T13:37:01Z</time>
      </trkpt>
      <trkpt lat="47.09058" lon="5.82102">
        <ele>329.6</ele>
        <time>2019-05-12T13:37:04Z</time>
      </trkpt>
      <trkpt lat="47.09062" lon="5.82107">
        <ele>327.3</ele>
        <time>2019-05-12T13:37:12Z</time>
      </trkpt>
      <trkpt lat="47.09064" lon="5.82114">
        <ele>326.7</ele>
        <time>2019-05-12T13:37:14Z</time>
      </trkpt>
      <trkpt lat="47.09065" lon="5.8212">
        <ele>326.2</ele>
        <time>2019-05-12T13:37:16Z</time>
      </trkpt>
      <trkpt lat="47.09067" lon="5.82126">
        <ele>325</ele>
        <time>2019-05-12T13:37:21Z</time>
      </trkpt>
      <trkpt lat="47.0907" lon="5.82129">
        <ele>321.9</ele>
        <time>2019-05-12T13:38:35Z</time>
      </trkpt>
      <trkpt lat="47.09075" lon="5.82129">
        <ele>320.8</ele>
        <time>2019-05-12T13:41:53Z</time>
      </trkpt>
      <trkpt lat="47.0908" lon="5.82129">
        <ele>320.8</ele>
        <time>2019-05-12T13:42:00Z</time>
      </trkpt>
      <trkpt lat="47.09085" lon="5.82128">
        <ele>321.5</ele>
        <time>2019-05-12T13:42:08Z</time>
      </trkpt>
      <trkpt lat="47.09091" lon="5.82126">
        <ele>323.2</ele>
        <time>2019-05-12T13:42:20Z</time>
      </trkpt>
      <trkpt lat="47.09096" lon="5.82124">
        <ele>323.6</ele>
        <time>2019-05-12T13:42:23Z</time>
      </trkpt>
      <trkpt lat="47.09101" lon="5.82122">
        <ele>324.3</ele>
        <time>2019-05-12T13:42:29Z</time>
      </trkpt>
      <trkpt lat="47.09108" lon="5.82122">
        <ele>324.1</ele>
        <time>2019-05-12T13:42:55Z</time>
      </trkpt>
      <trkpt lat="47.09111" lon="5.82129">
        <ele>323.5</ele>
        <time>2019-05-12T13:42:59Z</time>
      </trkpt>
      <trkpt lat="47.09112" lon="5.82136">
        <ele>322.5</ele>
        <time>2019-05-12T13:43:04Z</time>
      </trkpt>
      <trkpt lat="47.09115" lon="5.82143">
        <ele>321.8</ele>
        <time>2019-05-12T13:43:09Z</time>
      </trkpt>
      <trkpt lat="47.09119" lon="5.82148">
        <ele>321.3</ele>
        <time>2019-05-12T13:43:14Z</time>
      </trkpt>
      <trkpt lat="47.09123" lon="5.82153">
        <ele>320.6</ele>
        <time>2019-05-12T13:43:19Z</time>
      </trkpt>
      <trkpt lat="47.09126" lon="5.82158">
        <ele>319.3</ele>
        <time>2019-05-12T13:43:26Z</time>
      </trkpt>
      <trkpt lat="47.0913" lon="5.82163">
        <ele>318.5</ele>
        <time>2019-05-12T13:43:30Z</time>
      </trkpt>
      <trkpt lat="47.09134" lon="5.82166">
        <ele>317</ele>
        <time>2019-05-12T13:43:39Z</time>
      </trkpt>
      <trkpt lat="47.09139" lon="5.82165">
        <ele>316.6</ele>
        <time>2019-05-12T13:43:44Z</time>
      </trkpt>
      <trkpt lat="47.09143" lon="5.82161">
        <ele>316.5</ele>
        <time>2019-05-12T13:43:50Z</time>
      </trkpt>
      <trkpt lat="47.09145" lon="5.82155">
        <ele>316.5</ele>
        <time>2019-05-12T13:43:53Z</time>
      </trkpt>
      <trkpt lat="47.09148" lon="5.82149">
        <ele>316.6</ele>
        <time>2019-05-12T13:43:59Z</time>
      </trkpt>
      <trkpt lat="47.0915" lon="5.82141">
        <ele>316.6</ele>
        <time>2019-05-12T13:44:05Z</time>
      </trkpt>
      <trkpt lat="47.09153" lon="5.82135">
        <ele>316.4</ele>
        <time>2019-05-12T13:44:10Z</time>
      </trkpt>
      <trkpt lat="47.09157" lon="5.82131">
        <ele>315.7</ele>
        <time>2019-05-12T13:44:17Z</time>
      </trkpt>
      <trkpt lat="47.09162" lon="5.82124">
        <ele>315</ele>
        <time>2019-05-12T13:44:23Z</time>
      </trkpt>
      <trkpt lat="47.09164" lon="5.82116">
        <ele>314.7</ele>
        <time>2019-05-12T13:44:25Z</time>
      </trkpt>
      <trkpt lat="47.09166" lon="5.82109">
        <ele>314.4</ele>
        <time>2019-05-12T13:44:27Z</time>
      </trkpt>
      <trkpt lat="47.09167" lon="5.82103">
        <ele>313.8</ele>
        <time>2019-05-12T13:44:31Z</time>
      </trkpt>
      <trkpt lat="47.09171" lon="5.82096">
        <ele>313</ele>
        <time>2019-05-12T13:44:39Z</time>
      </trkpt>
      <trkpt lat="47.09175" lon="5.82089">
        <ele>312.9</ele>
        <time>2019-05-12T13:44:44Z</time>
      </trkpt>
      <trkpt lat="47.09178" lon="5.82085">
        <ele>313</ele>
        <time>2019-05-12T13:44:47Z</time>
      </trkpt>
      <trkpt lat="47.09182" lon="5.8208">
        <ele>313.2</ele>
        <time>2019-05-12T13:44:51Z</time>
      </trkpt>
      <trkpt lat="47.09185" lon="5.82074">
        <ele>313.3</ele>
        <time>2019-05-12T13:44:56Z</time>
      </trkpt>
      <trkpt lat="47.09188" lon="5.8207">
        <ele>313.1</ele>
        <time>2019-05-12T13:45:01Z</time>
      </trkpt>
      <trkpt lat="47.09191" lon="5.82064">
        <ele>312.7</ele>
        <time>2019-05-12T13:45:05Z</time>
      </trkpt>
      <trkpt lat="47.09199" lon="5.82048">
        <ele>312.3</ele>
        <time>2019-05-12T13:45:17Z</time>
      </trkpt>
      <trkpt lat="47.09201" lon="5.82041">
        <ele>312.8</ele>
        <time>2019-05-12T13:45:27Z</time>
      </trkpt>
      <trkpt lat="47.09203" lon="5.82035">
        <ele>312.5</ele>
        <time>2019-05-12T13:45:33Z</time>
      </trkpt>
      <trkpt lat="47.09206" lon="5.82028">
        <ele>312.1</ele>
        <time>2019-05-12T13:45:36Z</time>
      </trkpt>
      <trkpt lat="47.09209" lon="5.82022">
        <ele>311.5</ele>
        <time>2019-05-12T13:45:40Z</time>
      </trkpt>
      <trkpt lat="47.09212" lon="5.82016">
        <ele>310.7</ele>
        <time>2019-05-12T13:45:45Z</time>
      </trkpt>
      <trkpt lat="47.09215" lon="5.82011">
        <ele>310.2</ele>
        <time>2019-05-12T13:45:49Z</time>
      </trkpt>
      <trkpt lat="47.09216" lon="5.82004">
        <ele>308.7</ele>
        <time>2019-05-12T13:45:57Z</time>
      </trkpt>
      <trkpt lat="47.09216" lon="5.81996">
        <ele>308</ele>
        <time>2019-05-12T13:46:00Z</time>
      </trkpt>
      <trkpt lat="47.09217" lon="5.81989">
        <ele>306.9</ele>
        <time>2019-05-12T13:46:05Z</time>
      </trkpt>
      <trkpt lat="47.09218" lon="5.81982">
        <ele>305.8</ele>
        <time>2019-05-12T13:46:10Z</time>
      </trkpt>
      <trkpt lat="47.09219" lon="5.81976">
        <ele>305.4</ele>
        <time>2019-05-12T13:46:14Z</time>
      </trkpt>
      <trkpt lat="47.09221" lon="5.81969">
        <ele>304.8</ele>
        <time>2019-05-12T13:46:20Z</time>
      </trkpt>
      <trkpt lat="47.09224" lon="5.81963">
        <ele>304.3</ele>
        <time>2019-05-12T13:46:24Z</time>
      </trkpt>
      <trkpt lat="47.09225" lon="5.81955">
        <ele>303.8</ele>
        <time>2019-05-12T13:46:27Z</time>
      </trkpt>
      <trkpt lat="47.09226" lon="5.81949">
        <ele>303.2</ele>
        <time>2019-05-12T13:46:32Z</time>
      </trkpt>
      <trkpt lat="47.09229" lon="5.81943">
        <ele>302.4</ele>
        <time>2019-05-12T13:46:38Z</time>
      </trkpt>
      <trkpt lat="47.09233" lon="5.81936">
        <ele>302.1</ele>
        <time>2019-05-12T13:46:41Z</time>
      </trkpt>
      <trkpt lat="47.09236" lon="5.8193">
        <ele>301.9</ele>
        <time>2019-05-12T13:46:45Z</time>
      </trkpt>
      <trkpt lat="47.09241" lon="5.81922">
        <ele>302</ele>
        <time>2019-05-12T13:46:48Z</time>
      </trkpt>
      <trkpt lat="47.09244" lon="5.81915">
        <ele>302.4</ele>
        <time>2019-05-12T13:46:53Z</time>
      </trkpt>
      <trkpt lat="47.09247" lon="5.8191">
        <ele>302.8</ele>
        <time>2019-05-12T13:46:58Z</time>
      </trkpt>
      <trkpt lat="47.0925" lon="5.81903">
        <ele>303.1</ele>
        <time>2019-05-12T13:47:02Z</time>
      </trkpt>
      <trkpt lat="47.09254" lon="5.81896">
        <ele>303.5</ele>
        <time>2019-05-12T13:47:06Z</time>
      </trkpt>
      <trkpt lat="47.09257" lon="5.81891">
        <ele>303.8</ele>
        <time>2019-05-12T13:47:09Z</time>
      </trkpt>
      <trkpt lat="47.0926" lon="5.81887">
        <ele>304.2</ele>
        <time>2019-05-12T13:47:14Z</time>
      </trkpt>
      <trkpt lat="47.09264" lon="5.81882">
        <ele>304.4</ele>
        <time>2019-05-12T13:47:20Z</time>
      </trkpt>
      <trkpt lat="47.09267" lon="5.81877">
        <ele>304.4</ele>
        <time>2019-05-12T13:47:26Z</time>
      </trkpt>
      <trkpt lat="47.0927" lon="5.81872">
        <ele>304.4</ele>
        <time>2019-05-12T13:47:30Z</time>
      </trkpt>
      <trkpt lat="47.09273" lon="5.81866">
        <ele>304.3</ele>
        <time>2019-05-12T13:47:34Z</time>
      </trkpt>
      <trkpt lat="47.09275" lon="5.8186">
        <ele>304.2</ele>
        <time>2019-05-12T13:47:38Z</time>
      </trkpt>
      <trkpt lat="47.09277" lon="5.81854">
        <ele>304</ele>
        <time>2019-05-12T13:47:43Z</time>
      </trkpt>
      <trkpt lat="47.09279" lon="5.81848">
        <ele>303.6</ele>
        <time>2019-05-12T13:47:49Z</time>
      </trkpt>
      <trkpt lat="47.0928" lon="5.81841">
        <ele>303.4</ele>
        <time>2019-05-12T13:47:54Z</time>
      </trkpt>
      <trkpt lat="47.09283" lon="5.81835">
        <ele>303</ele>
        <time>2019-05-12T13:48:01Z</time>
      </trkpt>
      <trkpt lat="47.09284" lon="5.81829">
        <ele>302.6</ele>
        <time>2019-05-12T13:48:06Z</time>
      </trkpt>
      <trkpt lat="47.09284" lon="5.81821">
        <ele>302</ele>
        <time>2019-05-12T13:48:11Z</time>
      </trkpt>
      <trkpt lat="47.09283" lon="5.81813">
        <ele>301.3</ele>
        <time>2019-05-12T13:48:16Z</time>
      </trkpt>
      <trkpt lat="47.09281" lon="5.81805">
        <ele>300.7</ele>
        <time>2019-05-12T13:48:20Z</time>
      </trkpt>
      <trkpt lat="47.0928" lon="5.81798">
        <ele>300.1</ele>
        <time>2019-05-12T13:48:24Z</time>
      </trkpt>
      <trkpt lat="47.0928" lon="5.81791">
        <ele>299.6</ele>
        <time>2019-05-12T13:48:27Z</time>
      </trkpt>
      <trkpt lat="47.0928" lon="5.81784">
        <ele>299.1</ele>
        <time>2019-05-12T13:48:31Z</time>
      </trkpt>
      <trkpt lat="47.09281" lon="5.81777">
        <ele>298.5</ele>
        <time>2019-05-12T13:48:36Z</time>
      </trkpt>
      <trkpt lat="47.09282" lon="5.8177">
        <ele>297.9</ele>
        <time>2019-05-12T13:48:43Z</time>
      </trkpt>
      <trkpt lat="47.09282" lon="5.81763">
        <ele>297.6</ele>
        <time>2019-05-12T13:48:46Z</time>
      </trkpt>
      <trkpt lat="47.09284" lon="5.81756">
        <ele>297.4</ele>
        <time>2019-05-12T13:48:50Z</time>
      </trkpt>
      <trkpt lat="47.09286" lon="5.8175">
        <ele>297.7</ele>
        <time>2019-05-12T13:49:18Z</time>
      </trkpt>
      <trkpt lat="47.0929" lon="5.81743">
        <ele>299.9</ele>
        <time>2019-05-12T13:51:10Z</time>
      </trkpt>
      <trkpt lat="47.09288" lon="5.81737">
        <ele>298.2</ele>
        <time>2019-05-12T13:51:17Z</time>
      </trkpt>
      <trkpt lat="47.09287" lon="5.8173">
        <ele>297.4</ele>
        <time>2019-05-12T13:51:21Z</time>
      </trkpt>
      <trkpt lat="47.09285" lon="5.81723">
        <ele>296.5</ele>
        <time>2019-05-12T13:51:26Z</time>
      </trkpt>
      <trkpt lat="47.09284" lon="5.81716">
        <ele>295.7</ele>
        <time>2019-05-12T13:51:30Z</time>
      </trkpt>
      <trkpt lat="47.09285" lon="5.81709">
        <ele>295</ele>
        <time>2019-05-12T13:51:34Z</time>
      </trkpt>
      <trkpt lat="47.09284" lon="5.81701">
        <ele>294.4</ele>
        <time>2019-05-12T13:51:38Z</time>
      </trkpt>
      <trkpt lat="47.09283" lon="5.81694">
        <ele>293.8</ele>
        <time>2019-05-12T13:51:43Z</time>
      </trkpt>
      <trkpt lat="47.09282" lon="5.81686">
        <ele>293.2</ele>
        <time>2019-05-12T13:51:50Z</time>
      </trkpt>
      <trkpt lat="47.09282" lon="5.81677">
        <ele>292.9</ele>
        <time>2019-05-12T13:51:54Z</time>
      </trkpt>
      <trkpt lat="47.09282" lon="5.8167">
        <ele>292.6</ele>
        <time>2019-05-12T13:51:58Z</time>
      </trkpt>
      <trkpt lat="47.09283" lon="5.81663">
        <ele>292.3</ele>
        <time>2019-05-12T13:52:02Z</time>
      </trkpt>
      <trkpt lat="47.09283" lon="5.81642">
        <ele>290.9</ele>
        <time>2019-05-12T13:52:14Z</time>
      </trkpt>
      <trkpt lat="47.09283" lon="5.81634">
        <ele>290.6</ele>
        <time>2019-05-12T13:52:19Z</time>
      </trkpt>
      <trkpt lat="47.09282" lon="5.81626">
        <ele>290.4</ele>
        <time>2019-05-12T13:52:24Z</time>
      </trkpt>
      <trkpt lat="47.0928" lon="5.81605">
        <ele>290.2</ele>
        <time>2019-05-12T13:52:36Z</time>
      </trkpt>
      <trkpt lat="47.09281" lon="5.81599">
        <ele>290.3</ele>
        <time>2019-05-12T13:52:40Z</time>
      </trkpt>
      <trkpt lat="47.09282" lon="5.81592">
        <ele>290.4</ele>
        <time>2019-05-12T13:52:43Z</time>
      </trkpt>
      <trkpt lat="47.09284" lon="5.81584">
        <ele>290.5</ele>
        <time>2019-05-12T13:52:47Z</time>
      </trkpt>
      <trkpt lat="47.09285" lon="5.81576">
        <ele>290.8</ele>
        <time>2019-05-12T13:52:53Z</time>
      </trkpt>
      <trkpt lat="47.09288" lon="5.8157">
        <ele>291</ele>
        <time>2019-05-12T13:52:58Z</time>
      </trkpt>
      <trkpt lat="47.09291" lon="5.81565">
        <ele>291.1</ele>
        <time>2019-05-12T13:53:02Z</time>
      </trkpt>
      <trkpt lat="47.09295" lon="5.8156">
        <ele>291</ele>
        <time>2019-05-12T13:53:07Z</time>
      </trkpt>
      <trkpt lat="47.093" lon="5.81555">
        <ele>290.7</ele>
        <time>2019-05-12T13:53:12Z</time>
      </trkpt>
      <trkpt lat="47.09303" lon="5.8155">
        <ele>290.5</ele>
        <time>2019-05-12T13:53:16Z</time>
      </trkpt>
      <trkpt lat="47.09307" lon="5.81545">
        <ele>290.4</ele>
        <time>2019-05-12T13:53:20Z</time>
      </trkpt>
      <trkpt lat="47.09309" lon="5.8154">
        <ele>290.5</ele>
        <time>2019-05-12T13:53:25Z</time>
      </trkpt>
      <trkpt lat="47.09312" lon="5.81534">
        <ele>290.5</ele>
        <time>2019-05-12T13:53:29Z</time>
      </trkpt>
      <trkpt lat="47.09315" lon="5.81528">
        <ele>290.6</ele>
        <time>2019-05-12T13:53:33Z</time>
      </trkpt>
      <trkpt lat="47.09319" lon="5.81522">
        <ele>290.6</ele>
        <time>2019-05-12T13:53:37Z</time>
      </trkpt>
      <trkpt lat="47.09323" lon="5.81517">
        <ele>290.7</ele>
        <time>2019-05-12T13:53:41Z</time>
      </trkpt>
      <trkpt lat="47.09327" lon="5.81512">
        <ele>290.9</ele>
        <time>2019-05-12T13:53:46Z</time>
      </trkpt>
      <trkpt lat="47.0933" lon="5.81507">
        <ele>290.7</ele>
        <time>2019-05-12T13:53:55Z</time>
      </trkpt>
      <trkpt lat="47.09333" lon="5.81502">
        <ele>290.5</ele>
        <time>2019-05-12T13:54:00Z</time>
      </trkpt>
      <trkpt lat="47.09337" lon="5.81496">
        <ele>290.4</ele>
        <time>2019-05-12T13:54:04Z</time>
      </trkpt>
      <trkpt lat="47.09341" lon="5.81491">
        <ele>290.3</ele>
        <time>2019-05-12T13:54:08Z</time>
      </trkpt>
      <trkpt lat="47.09346" lon="5.81486">
        <ele>290.2</ele>
        <time>2019-05-12T13:54:13Z</time>
      </trkpt>
      <trkpt lat="47.0935" lon="5.81482">
        <ele>290.2</ele>
        <time>2019-05-12T13:54:16Z</time>
      </trkpt>
      <trkpt lat="47.09354" lon="5.81477">
        <ele>289.9</ele>
        <time>2019-05-12T13:54:21Z</time>
      </trkpt>
      <trkpt lat="47.09359" lon="5.81473">
        <ele>289.6</ele>
        <time>2019-05-12T13:54:26Z</time>
      </trkpt>
      <trkpt lat="47.09362" lon="5.81469">
        <ele>289.5</ele>
        <time>2019-05-12T13:54:30Z</time>
      </trkpt>
      <trkpt lat="47.09366" lon="5.81466">
        <ele>289.4</ele>
        <time>2019-05-12T13:54:34Z</time>
      </trkpt>
      <trkpt lat="47.0937" lon="5.81461">
        <ele>289.4</ele>
        <time>2019-05-12T13:54:38Z</time>
      </trkpt>
      <trkpt lat="47.09374" lon="5.81456">
        <ele>289.5</ele>
        <time>2019-05-12T13:54:42Z</time>
      </trkpt>
      <trkpt lat="47.09379" lon="5.81452">
        <ele>289.5</ele>
        <time>2019-05-12T13:54:46Z</time>
      </trkpt>
      <trkpt lat="47.09383" lon="5.81448">
        <ele>289.8</ele>
        <time>2019-05-12T13:54:51Z</time>
      </trkpt>
      <trkpt lat="47.09388" lon="5.81445">
        <ele>290</ele>
        <time>2019-05-12T13:54:55Z</time>
      </trkpt>
      <trkpt lat="47.09392" lon="5.81441">
        <ele>290.3</ele>
        <time>2019-05-12T13:54:59Z</time>
      </trkpt>
      <trkpt lat="47.09396" lon="5.81438">
        <ele>290.5</ele>
        <time>2019-05-12T13:55:03Z</time>
      </trkpt>
      <trkpt lat="47.09401" lon="5.81433">
        <ele>290.7</ele>
        <time>2019-05-12T13:55:09Z</time>
      </trkpt>
      <trkpt lat="47.09405" lon="5.81431">
        <ele>290.9</ele>
        <time>2019-05-12T13:55:13Z</time>
      </trkpt>
      <trkpt lat="47.0941" lon="5.81428">
        <ele>290.7</ele>
        <time>2019-05-12T13:55:21Z</time>
      </trkpt>
      <trkpt lat="47.09415" lon="5.81426">
        <ele>290.3</ele>
        <time>2019-05-12T13:55:27Z</time>
      </trkpt>
      <trkpt lat="47.0942" lon="5.81424">
        <ele>290.2</ele>
        <time>2019-05-12T13:55:31Z</time>
      </trkpt>
      <trkpt lat="47.09425" lon="5.81421">
        <ele>290.1</ele>
        <time>2019-05-12T13:55:35Z</time>
      </trkpt>
      <trkpt lat="47.09429" lon="5.81418">
        <ele>289.9</ele>
        <time>2019-05-12T13:55:40Z</time>
      </trkpt>
      <trkpt lat="47.09434" lon="5.81415">
        <ele>289.8</ele>
        <time>2019-05-12T13:55:44Z</time>
      </trkpt>
      <trkpt lat="47.09439" lon="5.81412">
        <ele>289.5</ele>
        <time>2019-05-12T13:55:49Z</time>
      </trkpt>
      <trkpt lat="47.09444" lon="5.8141">
        <ele>289.4</ele>
        <time>2019-05-12T13:55:54Z</time>
      </trkpt>
      <trkpt lat="47.09449" lon="5.8141">
        <ele>289.4</ele>
        <time>2019-05-12T13:55:58Z</time>
      </trkpt>
      <trkpt lat="47.09454" lon="5.81409">
        <ele>289.5</ele>
        <time>2019-05-12T13:56:02Z</time>
      </trkpt>
      <trkpt lat="47.09459" lon="5.81408">
        <ele>289.5</ele>
        <time>2019-05-12T13:56:06Z</time>
      </trkpt>
      <trkpt lat="47.09464" lon="5.81407">
        <ele>289.6</ele>
        <time>2019-05-12T13:56:10Z</time>
      </trkpt>
      <trkpt lat="47.09469" lon="5.81407">
        <ele>289.5</ele>
        <time>2019-05-12T13:56:14Z</time>
      </trkpt>
      <trkpt lat="47.09474" lon="5.81407">
        <ele>289.2</ele>
        <time>2019-05-12T13:56:19Z</time>
      </trkpt>
      <trkpt lat="47.09479" lon="5.81407">
        <ele>288.9</ele>
        <time>2019-05-12T13:56:23Z</time>
      </trkpt>
      <trkpt lat="47.09484" lon="5.81408">
        <ele>288.5</ele>
        <time>2019-05-12T13:56:28Z</time>
      </trkpt>
      <trkpt lat="47.09488" lon="5.81408">
        <ele>288.3</ele>
        <time>2019-05-12T13:56:32Z</time>
      </trkpt>
      <trkpt lat="47.09495" lon="5.81408">
        <ele>288.1</ele>
        <time>2019-05-12T13:56:36Z</time>
      </trkpt>
      <trkpt lat="47.09499" lon="5.81409">
        <ele>288</ele>
        <time>2019-05-12T13:56:39Z</time>
      </trkpt>
      <trkpt lat="47.09505" lon="5.8141">
        <ele>287.7</ele>
        <time>2019-05-12T13:56:44Z</time>
      </trkpt>
      <trkpt lat="47.0951" lon="5.81411">
        <ele>287.5</ele>
        <time>2019-05-12T13:56:48Z</time>
      </trkpt>
      <trkpt lat="47.09515" lon="5.81412">
        <ele>287.6</ele>
        <time>2019-05-12T13:56:53Z</time>
      </trkpt>
      <trkpt lat="47.09521" lon="5.81411">
        <ele>287.6</ele>
        <time>2019-05-12T13:56:57Z</time>
      </trkpt>
      <trkpt lat="47.09525" lon="5.81408">
        <ele>287.6</ele>
        <time>2019-05-12T13:57:03Z</time>
      </trkpt>
      <trkpt lat="47.09527" lon="5.81401">
        <ele>287.5</ele>
        <time>2019-05-12T13:57:08Z</time>
      </trkpt>
      <trkpt lat="47.09527" lon="5.81395">
        <ele>287.6</ele>
        <time>2019-05-12T13:57:12Z</time>
      </trkpt>
      <trkpt lat="47.09526" lon="5.81388">
        <ele>287.4</ele>
        <time>2019-05-12T13:57:16Z</time>
      </trkpt>
      <trkpt lat="47.09525" lon="5.81381">
        <ele>287</ele>
        <time>2019-05-12T13:57:21Z</time>
      </trkpt>
      <trkpt lat="47.09523" lon="5.81374">
        <ele>286.2</ele>
        <time>2019-05-12T13:57:28Z</time>
      </trkpt>
      <trkpt lat="47.09523" lon="5.81366">
        <ele>285.2</ele>
        <time>2019-05-12T13:57:35Z</time>
      </trkpt>
      <trkpt lat="47.09522" lon="5.81359">
        <ele>284.6</ele>
        <time>2019-05-12T13:57:39Z</time>
      </trkpt>
      <trkpt lat="47.09521" lon="5.81351">
        <ele>283.9</ele>
        <time>2019-05-12T13:57:43Z</time>
      </trkpt>
      <trkpt lat="47.09519" lon="5.81343">
        <ele>283.1</ele>
        <time>2019-05-12T13:57:47Z</time>
      </trkpt>
      <trkpt lat="47.09516" lon="5.81337">
        <ele>282.6</ele>
        <time>2019-05-12T13:57:51Z</time>
      </trkpt>
      <trkpt lat="47.09515" lon="5.8133">
        <ele>282</ele>
        <time>2019-05-12T13:57:56Z</time>
      </trkpt>
      <trkpt lat="47.09514" lon="5.81324">
        <ele>281.4</ele>
        <time>2019-05-12T13:58:00Z</time>
      </trkpt>
      <trkpt lat="47.09512" lon="5.81316">
        <ele>280.6</ele>
        <time>2019-05-12T13:58:05Z</time>
      </trkpt>
      <trkpt lat="47.0951" lon="5.81309">
        <ele>279.9</ele>
        <time>2019-05-12T13:58:10Z</time>
      </trkpt>
      <trkpt lat="47.0951" lon="5.81302">
        <ele>279.3</ele>
        <time>2019-05-12T13:58:14Z</time>
      </trkpt>
      <trkpt lat="47.0951" lon="5.81294">
        <ele>278.4</ele>
        <time>2019-05-12T13:58:19Z</time>
      </trkpt>
      <trkpt lat="47.0951" lon="5.81286">
        <ele>277.5</ele>
        <time>2019-05-12T13:58:25Z</time>
      </trkpt>
      <trkpt lat="47.0951" lon="5.81279">
        <ele>276.7</ele>
        <time>2019-05-12T13:58:31Z</time>
      </trkpt>
      <trkpt lat="47.09511" lon="5.81271">
        <ele>276.2</ele>
        <time>2019-05-12T13:58:37Z</time>
      </trkpt>
      <trkpt lat="47.09512" lon="5.81263">
        <ele>275.9</ele>
        <time>2019-05-12T13:58:41Z</time>
      </trkpt>
      <trkpt lat="47.09514" lon="5.81257">
        <ele>275.5</ele>
        <time>2019-05-12T13:58:46Z</time>
      </trkpt>
      <trkpt lat="47.09514" lon="5.81249">
        <ele>275</ele>
        <time>2019-05-12T13:58:51Z</time>
      </trkpt>
      <trkpt lat="47.09514" lon="5.81243">
        <ele>274.6</ele>
        <time>2019-05-12T13:58:55Z</time>
      </trkpt>
      <trkpt lat="47.09515" lon="5.81235">
        <ele>274.2</ele>
        <time>2019-05-12T13:59:00Z</time>
      </trkpt>
      <trkpt lat="47.09516" lon="5.81227">
        <ele>273.7</ele>
        <time>2019-05-12T13:59:05Z</time>
      </trkpt>
      <trkpt lat="47.09515" lon="5.8122">
        <ele>273.2</ele>
        <time>2019-05-12T13:59:10Z</time>
      </trkpt>
      <trkpt lat="47.09515" lon="5.81213">
        <ele>272.7</ele>
        <time>2019-05-12T13:59:15Z</time>
      </trkpt>
      <trkpt lat="47.09514" lon="5.81206">
        <ele>272.2</ele>
        <time>2019-05-12T13:59:19Z</time>
      </trkpt>
      <trkpt lat="47.09512" lon="5.812">
        <ele>271.8</ele>
        <time>2019-05-12T13:59:23Z</time>
      </trkpt>
      <trkpt lat="47.09511" lon="5.81193">
        <ele>271.3</ele>
        <time>2019-05-12T13:59:29Z</time>
      </trkpt>
      <trkpt lat="47.0951" lon="5.81187">
        <ele>270.9</ele>
        <time>2019-05-12T13:59:33Z</time>
      </trkpt>
      <trkpt lat="47.09509" lon="5.81179">
        <ele>270.3</ele>
        <time>2019-05-12T13:59:37Z</time>
      </trkpt>
      <trkpt lat="47.09508" lon="5.81171">
        <ele>269.7</ele>
        <time>2019-05-12T13:59:42Z</time>
      </trkpt>
      <trkpt lat="47.0951" lon="5.81163">
        <ele>269.1</ele>
        <time>2019-05-12T13:59:46Z</time>
      </trkpt>
      <trkpt lat="47.09511" lon="5.81157">
        <ele>268.6</ele>
        <time>2019-05-12T13:59:50Z</time>
      </trkpt>
      <trkpt lat="47.09511" lon="5.8115">
        <ele>268.1</ele>
        <time>2019-05-12T13:59:54Z</time>
      </trkpt>
      <trkpt lat="47.09511" lon="5.81142">
        <ele>267.6</ele>
        <time>2019-05-12T13:59:59Z</time>
      </trkpt>
      <trkpt lat="47.09511" lon="5.81134">
        <ele>267</ele>
        <time>2019-05-12T14:00:05Z</time>
      </trkpt>
      <trkpt lat="47.09511" lon="5.81127">
        <ele>266.7</ele>
        <time>2019-05-12T14:00:10Z</time>
      </trkpt>
      <trkpt lat="47.09511" lon="5.81118">
        <ele>266.2</ele>
        <time>2019-05-12T14:00:14Z</time>
      </trkpt>
      <trkpt lat="47.09511" lon="5.81111">
        <ele>265.4</ele>
        <time>2019-05-12T14:00:20Z</time>
      </trkpt>
      <trkpt lat="47.09513" lon="5.81104">
        <ele>264.8</ele>
        <time>2019-05-12T14:00:25Z</time>
      </trkpt>
      <trkpt lat="47.09514" lon="5.81096">
        <ele>264.4</ele>
        <time>2019-05-12T14:00:30Z</time>
      </trkpt>
      <trkpt lat="47.09514" lon="5.81088">
        <ele>264.1</ele>
        <time>2019-05-12T14:00:36Z</time>
      </trkpt>
      <trkpt lat="47.09516" lon="5.81081">
        <ele>263.9</ele>
        <time>2019-05-12T14:00:41Z</time>
      </trkpt>
      <trkpt lat="47.09519" lon="5.81074">
        <ele>263.9</ele>
        <time>2019-05-12T14:00:45Z</time>
      </trkpt>
      <trkpt lat="47.09522" lon="5.81069">
        <ele>263.5</ele>
        <time>2019-05-12T14:00:54Z</time>
      </trkpt>
      <trkpt lat="47.09524" lon="5.81061">
        <ele>263.3</ele>
        <time>2019-05-12T14:00:58Z</time>
      </trkpt>
      <trkpt lat="47.09526" lon="5.81054">
        <ele>263.1</ele>
        <time>2019-05-12T14:01:02Z</time>
      </trkpt>
      <trkpt lat="47.09529" lon="5.81047">
        <ele>262.7</ele>
        <time>2019-05-12T14:01:07Z</time>
      </trkpt>
      <trkpt lat="47.09532" lon="5.81041">
        <ele>262.4</ele>
        <time>2019-05-12T14:01:12Z</time>
      </trkpt>
      <trkpt lat="47.09534" lon="5.81033">
        <ele>262</ele>
        <time>2019-05-12T14:01:17Z</time>
      </trkpt>
      <trkpt lat="47.09536" lon="5.81026">
        <ele>261.6</ele>
        <time>2019-05-12T14:01:21Z</time>
      </trkpt>
      <trkpt lat="47.09539" lon="5.81019">
        <ele>261.3</ele>
        <time>2019-05-12T14:01:25Z</time>
      </trkpt>
      <trkpt lat="47.09541" lon="5.81012">
        <ele>260.9</ele>
        <time>2019-05-12T14:01:29Z</time>
      </trkpt>
      <trkpt lat="47.09544" lon="5.81006">
        <ele>260.7</ele>
        <time>2019-05-12T14:01:33Z</time>
      </trkpt>
      <trkpt lat="47.09546" lon="5.81">
        <ele>260.5</ele>
        <time>2019-05-12T14:01:37Z</time>
      </trkpt>
      <trkpt lat="47.09548" lon="5.80994">
        <ele>260.4</ele>
        <time>2019-05-12T14:01:41Z</time>
      </trkpt>
      <trkpt lat="47.09551" lon="5.80988">
        <ele>260.3</ele>
        <time>2019-05-12T14:01:44Z</time>
      </trkpt>
      <trkpt lat="47.09553" lon="5.80981">
        <ele>260.3</ele>
        <time>2019-05-12T14:01:49Z</time>
      </trkpt>
      <trkpt lat="47.09554" lon="5.80974">
        <ele>260.3</ele>
        <time>2019-05-12T14:01:53Z</time>
      </trkpt>
      <trkpt lat="47.09556" lon="5.80967">
        <ele>260.1</ele>
        <time>2019-05-12T14:01:57Z</time>
      </trkpt>
      <trkpt lat="47.09558" lon="5.8096">
        <ele>260.1</ele>
        <time>2019-05-12T14:02:02Z</time>
      </trkpt>
      <trkpt lat="47.09559" lon="5.80953">
        <ele>260</ele>
        <time>2019-05-12T14:02:06Z</time>
      </trkpt>
      <trkpt lat="47.09561" lon="5.80946">
        <ele>259.9</ele>
        <time>2019-05-12T14:02:10Z</time>
      </trkpt>
      <trkpt lat="47.09564" lon="5.8094">
        <ele>259.7</ele>
        <time>2019-05-12T14:02:15Z</time>
      </trkpt>
      <trkpt lat="47.09566" lon="5.80932">
        <ele>259.5</ele>
        <time>2019-05-12T14:02:21Z</time>
      </trkpt>
      <trkpt lat="47.09567" lon="5.80925">
        <ele>259.4</ele>
        <time>2019-05-12T14:02:24Z</time>
      </trkpt>
      <trkpt lat="47.09568" lon="5.80918">
        <ele>259.1</ele>
        <time>2019-05-12T14:02:28Z</time>
      </trkpt>
      <trkpt lat="47.0957" lon="5.80911">
        <ele>259</ele>
        <time>2019-05-12T14:02:32Z</time>
      </trkpt>
      <trkpt lat="47.09572" lon="5.80905">
        <ele>258.7</ele>
        <time>2019-05-12T14:02:37Z</time>
      </trkpt>
      <trkpt lat="47.09574" lon="5.80899">
        <ele>258.3</ele>
        <time>2019-05-12T14:02:42Z</time>
      </trkpt>
      <trkpt lat="47.09577" lon="5.80893">
        <ele>257.6</ele>
        <time>2019-05-12T14:02:49Z</time>
      </trkpt>
      <trkpt lat="47.09581" lon="5.80889">
        <ele>257.4</ele>
        <time>2019-05-12T14:02:54Z</time>
      </trkpt>
      <trkpt lat="47.09586" lon="5.80887">
        <ele>257.4</ele>
        <time>2019-05-12T14:02:59Z</time>
      </trkpt>
      <trkpt lat="47.09591" lon="5.80886">
        <ele>257.6</ele>
        <time>2019-05-12T14:03:02Z</time>
      </trkpt>
      <trkpt lat="47.09597" lon="5.80887">
        <ele>257.9</ele>
        <time>2019-05-12T14:03:06Z</time>
      </trkpt>
      <trkpt lat="47.09602" lon="5.80888">
        <ele>258.3</ele>
        <time>2019-05-12T14:03:10Z</time>
      </trkpt>
      <trkpt lat="47.09608" lon="5.80889">
        <ele>258.6</ele>
        <time>2019-05-12T14:03:14Z</time>
      </trkpt>
      <trkpt lat="47.09612" lon="5.80892">
        <ele>258.7</ele>
        <time>2019-05-12T14:03:18Z</time>
      </trkpt>
      <trkpt lat="47.09617" lon="5.80895">
        <ele>258.9</ele>
        <time>2019-05-12T14:03:23Z</time>
      </trkpt>
      <trkpt lat="47.09622" lon="5.80897">
        <ele>259</ele>
        <time>2019-05-12T14:03:27Z</time>
      </trkpt>
      <trkpt lat="47.09626" lon="5.80901">
        <ele>259.2</ele>
        <time>2019-05-12T14:03:31Z</time>
      </trkpt>
      <trkpt lat="47.0963" lon="5.80903">
        <ele>259.4</ele>
        <time>2019-05-12T14:03:35Z</time>
      </trkpt>
      <trkpt lat="47.09635" lon="5.80906">
        <ele>259.5</ele>
        <time>2019-05-12T14:03:39Z</time>
      </trkpt>
      <trkpt lat="47.0964" lon="5.80909">
        <ele>259.7</ele>
        <time>2019-05-12T14:03:43Z</time>
      </trkpt>
      <trkpt lat="47.09644" lon="5.80913">
        <ele>259.9</ele>
        <time>2019-05-12T14:03:47Z</time>
      </trkpt>
      <trkpt lat="47.09648" lon="5.80917">
        <ele>260</ele>
        <time>2019-05-12T14:03:51Z</time>
      </trkpt>
      <trkpt lat="47.09652" lon="5.8092">
        <ele>260.1</ele>
        <time>2019-05-12T14:03:55Z</time>
      </trkpt>
      <trkpt lat="47.09657" lon="5.80924">
        <ele>260.2</ele>
        <time>2019-05-12T14:04:00Z</time>
      </trkpt>
      <trkpt lat="47.09661" lon="5.80927">
        <ele>260.2</ele>
        <time>2019-05-12T14:04:04Z</time>
      </trkpt>
      <trkpt lat="47.09665" lon="5.80931">
        <ele>260.3</ele>
        <time>2019-05-12T14:04:10Z</time>
      </trkpt>
      <trkpt lat="47.0967" lon="5.80936">
        <ele>260.3</ele>
        <time>2019-05-12T14:04:14Z</time>
      </trkpt>
      <trkpt lat="47.09674" lon="5.80941">
        <ele>260.4</ele>
        <time>2019-05-12T14:04:18Z</time>
      </trkpt>
      <trkpt lat="47.09679" lon="5.80945">
        <ele>260.6</ele>
        <time>2019-05-12T14:04:23Z</time>
      </trkpt>
      <trkpt lat="47.09683" lon="5.80948">
        <ele>260.7</ele>
        <time>2019-05-12T14:04:28Z</time>
      </trkpt>
      <trkpt lat="47.09688" lon="5.80951">
        <ele>260.9</ele>
        <time>2019-05-12T14:04:33Z</time>
      </trkpt>
      <trkpt lat="47.09692" lon="5.80956">
        <ele>260.9</ele>
        <time>2019-05-12T14:04:38Z</time>
      </trkpt>
      <trkpt lat="47.09696" lon="5.8096">
        <ele>260.8</ele>
        <time>2019-05-12T14:04:42Z</time>
      </trkpt>
      <trkpt lat="47.097" lon="5.80964">
        <ele>260.4</ele>
        <time>2019-05-12T14:04:47Z</time>
      </trkpt>
      <trkpt lat="47.09705" lon="5.80967">
        <ele>260</ele>
        <time>2019-05-12T14:04:52Z</time>
      </trkpt>
      <trkpt lat="47.09709" lon="5.80971">
        <ele>259.7</ele>
        <time>2019-05-12T14:04:56Z</time>
      </trkpt>
      <trkpt lat="47.09711" lon="5.80977">
        <ele>259.5</ele>
        <time>2019-05-12T14:04:59Z</time>
      </trkpt>
      <trkpt lat="47.09714" lon="5.80983">
        <ele>259.2</ele>
        <time>2019-05-12T14:05:03Z</time>
      </trkpt>
      <trkpt lat="47.09716" lon="5.8099">
        <ele>258.6</ele>
        <time>2019-05-12T14:05:09Z</time>
      </trkpt>
      <trkpt lat="47.09719" lon="5.80997">
        <ele>258</ele>
        <time>2019-05-12T14:05:14Z</time>
      </trkpt>
      <trkpt lat="47.09722" lon="5.81002">
        <ele>257.8</ele>
        <time>2019-05-12T14:05:17Z</time>
      </trkpt>
      <trkpt lat="47.09726" lon="5.81008">
        <ele>257.5</ele>
        <time>2019-05-12T14:05:21Z</time>
      </trkpt>
      <trkpt lat="47.0973" lon="5.81013">
        <ele>257.3</ele>
        <time>2019-05-12T14:05:25Z</time>
      </trkpt>
      <trkpt lat="47.09734" lon="5.81018">
        <ele>257.2</ele>
        <time>2019-05-12T14:05:29Z</time>
      </trkpt>
      <trkpt lat="47.09738" lon="5.81023">
        <ele>257.1</ele>
        <time>2019-05-12T14:05:34Z</time>
      </trkpt>
      <trkpt lat="47.09742" lon="5.81025">
        <ele>257.4</ele>
        <time>2019-05-12T14:05:46Z</time>
      </trkpt>
      <trkpt lat="47.09747" lon="5.81025">
        <ele>257.5</ele>
        <time>2019-05-12T14:05:51Z</time>
      </trkpt>
      <trkpt lat="47.09752" lon="5.81025">
        <ele>257.7</ele>
        <time>2019-05-12T14:05:58Z</time>
      </trkpt>
      <trkpt lat="47.09756" lon="5.81021">
        <ele>258</ele>
        <time>2019-05-12T14:06:04Z</time>
      </trkpt>
      <trkpt lat="47.09761" lon="5.8102">
        <ele>258.5</ele>
        <time>2019-05-12T14:06:11Z</time>
      </trkpt>
      <trkpt lat="47.09764" lon="5.81014">
        <ele>258.6</ele>
        <time>2019-05-12T14:07:03Z</time>
      </trkpt>
      <trkpt lat="47.09763" lon="5.8102">
        <ele>258.4</ele>
        <time>2019-05-12T14:07:32Z</time>
      </trkpt>
    </trkseg>
  </trk>
</gpx>